<?xml version="1.0" encoding="UTF-8" standalone="no" ?>
<gpx xmlns="http://www.topografix.com/GPX/1/1" xmlns:xsi="http://www.w3.org/2001/XMLSchema-instance" xsi:schemaLocation="http://www.topografix.com/GPX/1/1 http://www.topografix.com/GPX/1/1/gpx.xsd" version="1.1" creator="VisuGPX - https://www.visugpx.com">
  <metadata>
    <name>Loisirs &amp;amp; Découvertes à Celles 24600 (3)</name>
    <desc><![CDATA[Promenade autour de notre commune. Accessible à tous]]></desc>
  </metadata>
  <trk>
    <name><![CDATA[Tracé 5 déc. 2015 09:42:42 celles]]></name>
    <trkseg>
      <trkpt lat="45.29909" lon="0.41449">
        <ele>92</ele>
        <time>2015-12-05T08:42:42Z</time>
      </trkpt>
      <trkpt lat="45.29909" lon="0.41449">
        <ele>92</ele>
        <time>2015-12-05T08:42:59Z</time>
      </trkpt>
      <trkpt lat="45.29915" lon="0.41453">
        <ele>104</ele>
        <time>2015-12-05T08:43:03Z</time>
      </trkpt>
      <trkpt lat="45.29919" lon="0.41453">
        <ele>94</ele>
        <time>2015-12-05T08:44:01Z</time>
      </trkpt>
      <trkpt lat="45.29925" lon="0.41452">
        <ele>92</ele>
        <time>2015-12-05T08:44:06Z</time>
      </trkpt>
      <trkpt lat="45.29932" lon="0.41454">
        <ele>98</ele>
        <time>2015-12-05T08:44:11Z</time>
      </trkpt>
      <trkpt lat="45.29936" lon="0.41457">
        <ele>103</ele>
        <time>2015-12-05T08:44:15Z</time>
      </trkpt>
      <trkpt lat="45.2994" lon="0.41458">
        <ele>106</ele>
        <time>2015-12-05T08:44:32Z</time>
      </trkpt>
      <trkpt lat="45.29943" lon="0.41462">
        <ele>107</ele>
        <time>2015-12-05T08:44:36Z</time>
      </trkpt>
      <trkpt lat="45.29951" lon="0.41461">
        <ele>108</ele>
        <time>2015-12-05T08:44:41Z</time>
      </trkpt>
      <trkpt lat="45.29956" lon="0.4146">
        <ele>110</ele>
        <time>2015-12-05T08:44:45Z</time>
      </trkpt>
      <trkpt lat="45.29958" lon="0.41455">
        <ele>111</ele>
        <time>2015-12-05T08:44:51Z</time>
      </trkpt>
      <trkpt lat="45.29954" lon="0.41455">
        <ele>115</ele>
        <time>2015-12-05T08:45:52Z</time>
      </trkpt>
      <trkpt lat="45.29955" lon="0.41447">
        <ele>111</ele>
        <time>2015-12-05T08:45:56Z</time>
      </trkpt>
      <trkpt lat="45.29961" lon="0.41443">
        <ele>107</ele>
        <time>2015-12-05T08:46:00Z</time>
      </trkpt>
      <trkpt lat="45.29966" lon="0.41443">
        <ele>105</ele>
        <time>2015-12-05T08:46:05Z</time>
      </trkpt>
      <trkpt lat="45.2997" lon="0.41447">
        <ele>107</ele>
        <time>2015-12-05T08:46:09Z</time>
      </trkpt>
      <trkpt lat="45.29973" lon="0.41449">
        <ele>108</ele>
        <time>2015-12-05T08:46:13Z</time>
      </trkpt>
      <trkpt lat="45.29977" lon="0.41451">
        <ele>108</ele>
        <time>2015-12-05T08:46:17Z</time>
      </trkpt>
      <trkpt lat="45.29986" lon="0.41453">
        <ele>112</ele>
        <time>2015-12-05T08:46:22Z</time>
      </trkpt>
      <trkpt lat="45.29989" lon="0.41456">
        <ele>108</ele>
        <time>2015-12-05T08:46:27Z</time>
      </trkpt>
      <trkpt lat="45.29994" lon="0.41459">
        <ele>107</ele>
        <time>2015-12-05T08:46:31Z</time>
      </trkpt>
      <trkpt lat="45.29997" lon="0.41463">
        <ele>106</ele>
        <time>2015-12-05T08:46:35Z</time>
      </trkpt>
      <trkpt lat="45.30004" lon="0.41465">
        <ele>107</ele>
        <time>2015-12-05T08:46:40Z</time>
      </trkpt>
      <trkpt lat="45.30008" lon="0.41465">
        <ele>104</ele>
        <time>2015-12-05T08:46:45Z</time>
      </trkpt>
      <trkpt lat="45.30014" lon="0.41466">
        <ele>104</ele>
        <time>2015-12-05T08:46:50Z</time>
      </trkpt>
      <trkpt lat="45.30022" lon="0.41467">
        <ele>107</ele>
        <time>2015-12-05T08:46:55Z</time>
      </trkpt>
      <trkpt lat="45.30029" lon="0.41467">
        <ele>108</ele>
        <time>2015-12-05T08:46:59Z</time>
      </trkpt>
      <trkpt lat="45.30034" lon="0.41469">
        <ele>107</ele>
        <time>2015-12-05T08:47:04Z</time>
      </trkpt>
      <trkpt lat="45.30037" lon="0.41468">
        <ele>108</ele>
        <time>2015-12-05T08:47:08Z</time>
      </trkpt>
      <trkpt lat="45.30044" lon="0.41466">
        <ele>111</ele>
        <time>2015-12-05T08:47:12Z</time>
      </trkpt>
      <trkpt lat="45.30051" lon="0.41465">
        <ele>110</ele>
        <time>2015-12-05T08:47:16Z</time>
      </trkpt>
      <trkpt lat="45.30057" lon="0.41465">
        <ele>113</ele>
        <time>2015-12-05T08:47:20Z</time>
      </trkpt>
      <trkpt lat="45.30061" lon="0.41461">
        <ele>114</ele>
        <time>2015-12-05T08:47:24Z</time>
      </trkpt>
      <trkpt lat="45.30066" lon="0.41462">
        <ele>113</ele>
        <time>2015-12-05T08:47:28Z</time>
      </trkpt>
      <trkpt lat="45.30068" lon="0.41459">
        <ele>111</ele>
        <time>2015-12-05T08:47:32Z</time>
      </trkpt>
      <trkpt lat="45.30074" lon="0.41459">
        <ele>109</ele>
        <time>2015-12-05T08:47:37Z</time>
      </trkpt>
      <trkpt lat="45.3008" lon="0.41459">
        <ele>110</ele>
        <time>2015-12-05T08:47:41Z</time>
      </trkpt>
      <trkpt lat="45.30085" lon="0.41458">
        <ele>111</ele>
        <time>2015-12-05T08:47:45Z</time>
      </trkpt>
      <trkpt lat="45.30089" lon="0.41455">
        <ele>115</ele>
        <time>2015-12-05T08:47:51Z</time>
      </trkpt>
      <trkpt lat="45.30094" lon="0.41454">
        <ele>120</ele>
        <time>2015-12-05T08:47:56Z</time>
      </trkpt>
      <trkpt lat="45.30099" lon="0.41451">
        <ele>122</ele>
        <time>2015-12-05T08:48:00Z</time>
      </trkpt>
      <trkpt lat="45.30104" lon="0.41447">
        <ele>123</ele>
        <time>2015-12-05T08:48:05Z</time>
      </trkpt>
      <trkpt lat="45.30111" lon="0.41442">
        <ele>124</ele>
        <time>2015-12-05T08:48:10Z</time>
      </trkpt>
      <trkpt lat="45.30115" lon="0.41437">
        <ele>124</ele>
        <time>2015-12-05T08:48:14Z</time>
      </trkpt>
      <trkpt lat="45.3012" lon="0.41433">
        <ele>124</ele>
        <time>2015-12-05T08:48:18Z</time>
      </trkpt>
      <trkpt lat="45.30124" lon="0.41428">
        <ele>125</ele>
        <time>2015-12-05T08:48:22Z</time>
      </trkpt>
      <trkpt lat="45.30128" lon="0.41424">
        <ele>125</ele>
        <time>2015-12-05T08:48:26Z</time>
      </trkpt>
      <trkpt lat="45.30134" lon="0.41417">
        <ele>126</ele>
        <time>2015-12-05T08:48:31Z</time>
      </trkpt>
      <trkpt lat="45.30139" lon="0.4141">
        <ele>126</ele>
        <time>2015-12-05T08:48:36Z</time>
      </trkpt>
      <trkpt lat="45.30144" lon="0.41406">
        <ele>128</ele>
        <time>2015-12-05T08:48:40Z</time>
      </trkpt>
      <trkpt lat="45.30149" lon="0.41401">
        <ele>128</ele>
        <time>2015-12-05T08:48:45Z</time>
      </trkpt>
      <trkpt lat="45.30154" lon="0.41394">
        <ele>130</ele>
        <time>2015-12-05T08:48:50Z</time>
      </trkpt>
      <trkpt lat="45.30158" lon="0.4139">
        <ele>130</ele>
        <time>2015-12-05T08:48:54Z</time>
      </trkpt>
      <trkpt lat="45.30162" lon="0.41384">
        <ele>131</ele>
        <time>2015-12-05T08:48:58Z</time>
      </trkpt>
      <trkpt lat="45.30166" lon="0.41378">
        <ele>129</ele>
        <time>2015-12-05T08:49:02Z</time>
      </trkpt>
      <trkpt lat="45.3017" lon="0.41371">
        <ele>129</ele>
        <time>2015-12-05T08:49:07Z</time>
      </trkpt>
      <trkpt lat="45.30174" lon="0.41366">
        <ele>129</ele>
        <time>2015-12-05T08:49:11Z</time>
      </trkpt>
      <trkpt lat="45.30178" lon="0.41361">
        <ele>129</ele>
        <time>2015-12-05T08:49:15Z</time>
      </trkpt>
      <trkpt lat="45.30183" lon="0.41354">
        <ele>129</ele>
        <time>2015-12-05T08:49:20Z</time>
      </trkpt>
      <trkpt lat="45.30185" lon="0.41349">
        <ele>130</ele>
        <time>2015-12-05T08:49:24Z</time>
      </trkpt>
      <trkpt lat="45.30189" lon="0.41344">
        <ele>131</ele>
        <time>2015-12-05T08:49:28Z</time>
      </trkpt>
      <trkpt lat="45.30192" lon="0.4134">
        <ele>132</ele>
        <time>2015-12-05T08:49:32Z</time>
      </trkpt>
      <trkpt lat="45.30195" lon="0.41335">
        <ele>132</ele>
        <time>2015-12-05T08:49:36Z</time>
      </trkpt>
      <trkpt lat="45.30199" lon="0.41329">
        <ele>132</ele>
        <time>2015-12-05T08:49:40Z</time>
      </trkpt>
      <trkpt lat="45.30202" lon="0.41322">
        <ele>133</ele>
        <time>2015-12-05T08:49:45Z</time>
      </trkpt>
      <trkpt lat="45.30204" lon="0.41316">
        <ele>133</ele>
        <time>2015-12-05T08:49:49Z</time>
      </trkpt>
      <trkpt lat="45.30208" lon="0.41307">
        <ele>134</ele>
        <time>2015-12-05T08:49:54Z</time>
      </trkpt>
      <trkpt lat="45.3021" lon="0.41301">
        <ele>135</ele>
        <time>2015-12-05T08:49:58Z</time>
      </trkpt>
      <trkpt lat="45.30211" lon="0.41294">
        <ele>135</ele>
        <time>2015-12-05T08:50:02Z</time>
      </trkpt>
      <trkpt lat="45.30214" lon="0.41286">
        <ele>136</ele>
        <time>2015-12-05T08:50:07Z</time>
      </trkpt>
      <trkpt lat="45.30216" lon="0.41279">
        <ele>137</ele>
        <time>2015-12-05T08:50:11Z</time>
      </trkpt>
      <trkpt lat="45.30216" lon="0.41269">
        <ele>137</ele>
        <time>2015-12-05T08:50:16Z</time>
      </trkpt>
      <trkpt lat="45.30215" lon="0.41261">
        <ele>137</ele>
        <time>2015-12-05T08:50:20Z</time>
      </trkpt>
      <trkpt lat="45.30215" lon="0.41254">
        <ele>139</ele>
        <time>2015-12-05T08:50:25Z</time>
      </trkpt>
      <trkpt lat="45.30215" lon="0.41247">
        <ele>139</ele>
        <time>2015-12-05T08:50:29Z</time>
      </trkpt>
      <trkpt lat="45.30216" lon="0.41241">
        <ele>142</ele>
        <time>2015-12-05T08:50:33Z</time>
      </trkpt>
      <trkpt lat="45.30216" lon="0.41234">
        <ele>144</ele>
        <time>2015-12-05T08:50:38Z</time>
      </trkpt>
      <trkpt lat="45.30216" lon="0.41228">
        <ele>146</ele>
        <time>2015-12-05T08:50:44Z</time>
      </trkpt>
      <trkpt lat="45.30216" lon="0.41219">
        <ele>147</ele>
        <time>2015-12-05T08:50:48Z</time>
      </trkpt>
      <trkpt lat="45.30216" lon="0.41211">
        <ele>147</ele>
        <time>2015-12-05T08:50:52Z</time>
      </trkpt>
      <trkpt lat="45.30213" lon="0.41204">
        <ele>145</ele>
        <time>2015-12-05T08:50:57Z</time>
      </trkpt>
      <trkpt lat="45.30212" lon="0.41198">
        <ele>147</ele>
        <time>2015-12-05T08:51:02Z</time>
      </trkpt>
      <trkpt lat="45.3021" lon="0.41192">
        <ele>145</ele>
        <time>2015-12-05T08:51:07Z</time>
      </trkpt>
      <trkpt lat="45.30209" lon="0.41185">
        <ele>148</ele>
        <time>2015-12-05T08:51:11Z</time>
      </trkpt>
      <trkpt lat="45.30206" lon="0.41178">
        <ele>146</ele>
        <time>2015-12-05T08:51:15Z</time>
      </trkpt>
      <trkpt lat="45.30204" lon="0.41171">
        <ele>145</ele>
        <time>2015-12-05T08:51:20Z</time>
      </trkpt>
      <trkpt lat="45.30203" lon="0.41164">
        <ele>145</ele>
        <time>2015-12-05T08:51:24Z</time>
      </trkpt>
      <trkpt lat="45.30201" lon="0.41158">
        <ele>147</ele>
        <time>2015-12-05T08:51:28Z</time>
      </trkpt>
      <trkpt lat="45.30197" lon="0.41149">
        <ele>146</ele>
        <time>2015-12-05T08:51:33Z</time>
      </trkpt>
      <trkpt lat="45.30195" lon="0.41144">
        <ele>147</ele>
        <time>2015-12-05T08:51:37Z</time>
      </trkpt>
      <trkpt lat="45.30192" lon="0.41137">
        <ele>148</ele>
        <time>2015-12-05T08:51:41Z</time>
      </trkpt>
      <trkpt lat="45.30189" lon="0.41129">
        <ele>150</ele>
        <time>2015-12-05T08:51:46Z</time>
      </trkpt>
      <trkpt lat="45.30186" lon="0.41121">
        <ele>151</ele>
        <time>2015-12-05T08:51:50Z</time>
      </trkpt>
      <trkpt lat="45.30182" lon="0.4111">
        <ele>150</ele>
        <time>2015-12-05T08:51:55Z</time>
      </trkpt>
      <trkpt lat="45.3018" lon="0.41102">
        <ele>151</ele>
        <time>2015-12-05T08:51:59Z</time>
      </trkpt>
      <trkpt lat="45.30179" lon="0.41092">
        <ele>152</ele>
        <time>2015-12-05T08:52:04Z</time>
      </trkpt>
      <trkpt lat="45.30178" lon="0.41082">
        <ele>154</ele>
        <time>2015-12-05T08:52:08Z</time>
      </trkpt>
      <trkpt lat="45.30176" lon="0.41074">
        <ele>154</ele>
        <time>2015-12-05T08:52:12Z</time>
      </trkpt>
      <trkpt lat="45.30173" lon="0.41063">
        <ele>156</ele>
        <time>2015-12-05T08:52:17Z</time>
      </trkpt>
      <trkpt lat="45.30172" lon="0.41054">
        <ele>157</ele>
        <time>2015-12-05T08:52:21Z</time>
      </trkpt>
      <trkpt lat="45.30171" lon="0.41045">
        <ele>157</ele>
        <time>2015-12-05T08:52:26Z</time>
      </trkpt>
      <trkpt lat="45.3017" lon="0.41036">
        <ele>158</ele>
        <time>2015-12-05T08:52:31Z</time>
      </trkpt>
      <trkpt lat="45.3017" lon="0.41025">
        <ele>160</ele>
        <time>2015-12-05T08:52:35Z</time>
      </trkpt>
      <trkpt lat="45.30169" lon="0.41016">
        <ele>162</ele>
        <time>2015-12-05T08:52:39Z</time>
      </trkpt>
      <trkpt lat="45.30172" lon="0.41009">
        <ele>166</ele>
        <time>2015-12-05T08:52:44Z</time>
      </trkpt>
      <trkpt lat="45.3017" lon="0.41002">
        <ele>166</ele>
        <time>2015-12-05T08:52:48Z</time>
      </trkpt>
      <trkpt lat="45.30171" lon="0.40995">
        <ele>169</ele>
        <time>2015-12-05T08:52:52Z</time>
      </trkpt>
      <trkpt lat="45.30172" lon="0.40986">
        <ele>172</ele>
        <time>2015-12-05T08:52:57Z</time>
      </trkpt>
      <trkpt lat="45.30174" lon="0.40979">
        <ele>176</ele>
        <time>2015-12-05T08:53:01Z</time>
      </trkpt>
      <trkpt lat="45.30176" lon="0.40972">
        <ele>177</ele>
        <time>2015-12-05T08:53:05Z</time>
      </trkpt>
      <trkpt lat="45.30178" lon="0.40966">
        <ele>178</ele>
        <time>2015-12-05T08:53:09Z</time>
      </trkpt>
      <trkpt lat="45.30182" lon="0.40959">
        <ele>176</ele>
        <time>2015-12-05T08:53:13Z</time>
      </trkpt>
      <trkpt lat="45.30189" lon="0.40951">
        <ele>173</ele>
        <time>2015-12-05T08:53:18Z</time>
      </trkpt>
      <trkpt lat="45.30195" lon="0.40946">
        <ele>172</ele>
        <time>2015-12-05T08:53:23Z</time>
      </trkpt>
      <trkpt lat="45.30199" lon="0.40946">
        <ele>173</ele>
        <time>2015-12-05T08:53:27Z</time>
      </trkpt>
      <trkpt lat="45.30204" lon="0.40946">
        <ele>175</ele>
        <time>2015-12-05T08:53:32Z</time>
      </trkpt>
      <trkpt lat="45.3021" lon="0.40947">
        <ele>178</ele>
        <time>2015-12-05T08:53:36Z</time>
      </trkpt>
      <trkpt lat="45.30215" lon="0.40947">
        <ele>176</ele>
        <time>2015-12-05T08:53:40Z</time>
      </trkpt>
      <trkpt lat="45.3022" lon="0.40946">
        <ele>177</ele>
        <time>2015-12-05T08:53:44Z</time>
      </trkpt>
      <trkpt lat="45.30228" lon="0.40945">
        <ele>181</ele>
        <time>2015-12-05T08:53:49Z</time>
      </trkpt>
      <trkpt lat="45.30233" lon="0.40944">
        <ele>181</ele>
        <time>2015-12-05T08:53:53Z</time>
      </trkpt>
      <trkpt lat="45.30241" lon="0.40944">
        <ele>180</ele>
        <time>2015-12-05T08:53:58Z</time>
      </trkpt>
      <trkpt lat="45.30249" lon="0.40942">
        <ele>179</ele>
        <time>2015-12-05T08:54:02Z</time>
      </trkpt>
      <trkpt lat="45.30257" lon="0.40935">
        <ele>178</ele>
        <time>2015-12-05T08:54:07Z</time>
      </trkpt>
      <trkpt lat="45.30265" lon="0.40927">
        <ele>174</ele>
        <time>2015-12-05T08:54:11Z</time>
      </trkpt>
      <trkpt lat="45.30271" lon="0.40921">
        <ele>173</ele>
        <time>2015-12-05T08:54:15Z</time>
      </trkpt>
      <trkpt lat="45.30278" lon="0.40916">
        <ele>172</ele>
        <time>2015-12-05T08:54:19Z</time>
      </trkpt>
      <trkpt lat="45.30283" lon="0.40911">
        <ele>170</ele>
        <time>2015-12-05T08:54:23Z</time>
      </trkpt>
      <trkpt lat="45.30286" lon="0.40905">
        <ele>170</ele>
        <time>2015-12-05T08:54:27Z</time>
      </trkpt>
      <trkpt lat="45.30291" lon="0.40899">
        <ele>171</ele>
        <time>2015-12-05T08:54:32Z</time>
      </trkpt>
      <trkpt lat="45.30292" lon="0.40894">
        <ele>172</ele>
        <time>2015-12-05T08:54:36Z</time>
      </trkpt>
      <trkpt lat="45.30295" lon="0.40889">
        <ele>173</ele>
        <time>2015-12-05T08:54:40Z</time>
      </trkpt>
      <trkpt lat="45.30299" lon="0.40885">
        <ele>174</ele>
        <time>2015-12-05T08:54:44Z</time>
      </trkpt>
      <trkpt lat="45.30303" lon="0.4088">
        <ele>177</ele>
        <time>2015-12-05T08:54:49Z</time>
      </trkpt>
      <trkpt lat="45.30307" lon="0.40873">
        <ele>177</ele>
        <time>2015-12-05T08:54:54Z</time>
      </trkpt>
      <trkpt lat="45.30311" lon="0.40866">
        <ele>178</ele>
        <time>2015-12-05T08:54:58Z</time>
      </trkpt>
      <trkpt lat="45.30315" lon="0.4086">
        <ele>178</ele>
        <time>2015-12-05T08:55:03Z</time>
      </trkpt>
      <trkpt lat="45.30318" lon="0.40856">
        <ele>180</ele>
        <time>2015-12-05T08:55:08Z</time>
      </trkpt>
      <trkpt lat="45.30322" lon="0.4085">
        <ele>180</ele>
        <time>2015-12-05T08:55:12Z</time>
      </trkpt>
      <trkpt lat="45.30325" lon="0.40845">
        <ele>180</ele>
        <time>2015-12-05T08:55:16Z</time>
      </trkpt>
      <trkpt lat="45.3033" lon="0.4084">
        <ele>181</ele>
        <time>2015-12-05T08:55:20Z</time>
      </trkpt>
      <trkpt lat="45.30334" lon="0.40832">
        <ele>180</ele>
        <time>2015-12-05T08:55:25Z</time>
      </trkpt>
      <trkpt lat="45.30338" lon="0.40826">
        <ele>180</ele>
        <time>2015-12-05T08:55:30Z</time>
      </trkpt>
      <trkpt lat="45.30341" lon="0.40822">
        <ele>180</ele>
        <time>2015-12-05T08:55:34Z</time>
      </trkpt>
      <trkpt lat="45.30346" lon="0.40817">
        <ele>181</ele>
        <time>2015-12-05T08:55:39Z</time>
      </trkpt>
      <trkpt lat="45.30351" lon="0.40813">
        <ele>181</ele>
        <time>2015-12-05T08:55:43Z</time>
      </trkpt>
      <trkpt lat="45.30353" lon="0.40809">
        <ele>185</ele>
        <time>2015-12-05T08:55:49Z</time>
      </trkpt>
      <trkpt lat="45.3036" lon="0.40806">
        <ele>187</ele>
        <time>2015-12-05T08:55:54Z</time>
      </trkpt>
      <trkpt lat="45.30365" lon="0.40802">
        <ele>185</ele>
        <time>2015-12-05T08:55:58Z</time>
      </trkpt>
      <trkpt lat="45.30369" lon="0.40799">
        <ele>185</ele>
        <time>2015-12-05T08:56:02Z</time>
      </trkpt>
      <trkpt lat="45.30373" lon="0.40797">
        <ele>189</ele>
        <time>2015-12-05T08:56:07Z</time>
      </trkpt>
      <trkpt lat="45.30377" lon="0.40795">
        <ele>189</ele>
        <time>2015-12-05T08:56:11Z</time>
      </trkpt>
      <trkpt lat="45.30383" lon="0.40793">
        <ele>191</ele>
        <time>2015-12-05T08:56:15Z</time>
      </trkpt>
      <trkpt lat="45.30388" lon="0.4079">
        <ele>188</ele>
        <time>2015-12-05T08:56:20Z</time>
      </trkpt>
      <trkpt lat="45.30391" lon="0.40789">
        <ele>187</ele>
        <time>2015-12-05T08:56:25Z</time>
      </trkpt>
      <trkpt lat="45.30396" lon="0.40787">
        <ele>183</ele>
        <time>2015-12-05T08:56:29Z</time>
      </trkpt>
      <trkpt lat="45.30399" lon="0.40787">
        <ele>184</ele>
        <time>2015-12-05T08:57:00Z</time>
      </trkpt>
      <trkpt lat="45.30405" lon="0.40785">
        <ele>185</ele>
        <time>2015-12-05T08:57:05Z</time>
      </trkpt>
      <trkpt lat="45.30409" lon="0.40781">
        <ele>185</ele>
        <time>2015-12-05T08:57:10Z</time>
      </trkpt>
      <trkpt lat="45.30413" lon="0.40778">
        <ele>184</ele>
        <time>2015-12-05T08:57:14Z</time>
      </trkpt>
      <trkpt lat="45.30417" lon="0.40774">
        <ele>183</ele>
        <time>2015-12-05T08:57:18Z</time>
      </trkpt>
      <trkpt lat="45.30421" lon="0.40771">
        <ele>183</ele>
        <time>2015-12-05T08:57:22Z</time>
      </trkpt>
      <trkpt lat="45.30426" lon="0.40767">
        <ele>184</ele>
        <time>2015-12-05T08:57:26Z</time>
      </trkpt>
      <trkpt lat="45.30432" lon="0.40761">
        <ele>183</ele>
        <time>2015-12-05T08:57:31Z</time>
      </trkpt>
      <trkpt lat="45.30437" lon="0.40757">
        <ele>183</ele>
        <time>2015-12-05T08:57:35Z</time>
      </trkpt>
      <trkpt lat="45.30441" lon="0.4075">
        <ele>184</ele>
        <time>2015-12-05T08:57:40Z</time>
      </trkpt>
      <trkpt lat="45.30446" lon="0.40744">
        <ele>185</ele>
        <time>2015-12-05T08:57:45Z</time>
      </trkpt>
      <trkpt lat="45.30449" lon="0.40738">
        <ele>183</ele>
        <time>2015-12-05T08:57:49Z</time>
      </trkpt>
      <trkpt lat="45.30452" lon="0.40733">
        <ele>183</ele>
        <time>2015-12-05T08:57:53Z</time>
      </trkpt>
      <trkpt lat="45.30456" lon="0.40727">
        <ele>183</ele>
        <time>2015-12-05T08:57:57Z</time>
      </trkpt>
      <trkpt lat="45.30461" lon="0.40721">
        <ele>183</ele>
        <time>2015-12-05T08:58:01Z</time>
      </trkpt>
      <trkpt lat="45.30464" lon="0.40714">
        <ele>185</ele>
        <time>2015-12-05T08:58:05Z</time>
      </trkpt>
      <trkpt lat="45.30468" lon="0.40706">
        <ele>185</ele>
        <time>2015-12-05T08:58:09Z</time>
      </trkpt>
      <trkpt lat="45.30471" lon="0.40699">
        <ele>185</ele>
        <time>2015-12-05T08:58:13Z</time>
      </trkpt>
      <trkpt lat="45.30475" lon="0.40691">
        <ele>184</ele>
        <time>2015-12-05T08:58:17Z</time>
      </trkpt>
      <trkpt lat="45.30477" lon="0.40684">
        <ele>183</ele>
        <time>2015-12-05T08:58:22Z</time>
      </trkpt>
      <trkpt lat="45.30479" lon="0.40678">
        <ele>183</ele>
        <time>2015-12-05T08:58:26Z</time>
      </trkpt>
      <trkpt lat="45.30482" lon="0.40672">
        <ele>183</ele>
        <time>2015-12-05T08:58:30Z</time>
      </trkpt>
      <trkpt lat="45.30485" lon="0.40666">
        <ele>183</ele>
        <time>2015-12-05T08:58:34Z</time>
      </trkpt>
      <trkpt lat="45.30487" lon="0.40659">
        <ele>183</ele>
        <time>2015-12-05T08:58:38Z</time>
      </trkpt>
      <trkpt lat="45.30489" lon="0.40651">
        <ele>182</ele>
        <time>2015-12-05T08:58:42Z</time>
      </trkpt>
      <trkpt lat="45.30491" lon="0.40646">
        <ele>183</ele>
        <time>2015-12-05T08:58:46Z</time>
      </trkpt>
      <trkpt lat="45.30492" lon="0.40639">
        <ele>184</ele>
        <time>2015-12-05T08:58:50Z</time>
      </trkpt>
      <trkpt lat="45.30496" lon="0.40632">
        <ele>185</ele>
        <time>2015-12-05T08:58:55Z</time>
      </trkpt>
      <trkpt lat="45.30498" lon="0.40626">
        <ele>185</ele>
        <time>2015-12-05T08:58:59Z</time>
      </trkpt>
      <trkpt lat="45.30503" lon="0.4062">
        <ele>185</ele>
        <time>2015-12-05T08:59:04Z</time>
      </trkpt>
      <trkpt lat="45.30507" lon="0.40615">
        <ele>185</ele>
        <time>2015-12-05T08:59:08Z</time>
      </trkpt>
      <trkpt lat="45.30512" lon="0.40613">
        <ele>184</ele>
        <time>2015-12-05T08:59:13Z</time>
      </trkpt>
      <trkpt lat="45.30517" lon="0.40612">
        <ele>185</ele>
        <time>2015-12-05T08:59:17Z</time>
      </trkpt>
      <trkpt lat="45.30521" lon="0.40613">
        <ele>185</ele>
        <time>2015-12-05T08:59:22Z</time>
      </trkpt>
      <trkpt lat="45.30525" lon="0.40612">
        <ele>185</ele>
        <time>2015-12-05T08:59:26Z</time>
      </trkpt>
      <trkpt lat="45.30529" lon="0.40611">
        <ele>186</ele>
        <time>2015-12-05T08:59:30Z</time>
      </trkpt>
      <trkpt lat="45.30535" lon="0.4061">
        <ele>185</ele>
        <time>2015-12-05T08:59:35Z</time>
      </trkpt>
      <trkpt lat="45.3054" lon="0.4061">
        <ele>185</ele>
        <time>2015-12-05T08:59:39Z</time>
      </trkpt>
      <trkpt lat="45.30544" lon="0.40609">
        <ele>184</ele>
        <time>2015-12-05T08:59:44Z</time>
      </trkpt>
      <trkpt lat="45.30548" lon="0.40608">
        <ele>184</ele>
        <time>2015-12-05T08:59:48Z</time>
      </trkpt>
      <trkpt lat="45.30555" lon="0.40607">
        <ele>185</ele>
        <time>2015-12-05T08:59:53Z</time>
      </trkpt>
      <trkpt lat="45.3056" lon="0.40606">
        <ele>184</ele>
        <time>2015-12-05T08:59:57Z</time>
      </trkpt>
      <trkpt lat="45.30564" lon="0.40605">
        <ele>184</ele>
        <time>2015-12-05T09:00:01Z</time>
      </trkpt>
      <trkpt lat="45.30569" lon="0.40603">
        <ele>185</ele>
        <time>2015-12-05T09:00:05Z</time>
      </trkpt>
      <trkpt lat="45.30574" lon="0.406">
        <ele>184</ele>
        <time>2015-12-05T09:00:10Z</time>
      </trkpt>
      <trkpt lat="45.3058" lon="0.40598">
        <ele>183</ele>
        <time>2015-12-05T09:00:15Z</time>
      </trkpt>
      <trkpt lat="45.30583" lon="0.40595">
        <ele>184</ele>
        <time>2015-12-05T09:00:20Z</time>
      </trkpt>
      <trkpt lat="45.30588" lon="0.40591">
        <ele>185</ele>
        <time>2015-12-05T09:00:24Z</time>
      </trkpt>
      <trkpt lat="45.30593" lon="0.40588">
        <ele>186</ele>
        <time>2015-12-05T09:00:29Z</time>
      </trkpt>
      <trkpt lat="45.30597" lon="0.40585">
        <ele>185</ele>
        <time>2015-12-05T09:00:33Z</time>
      </trkpt>
      <trkpt lat="45.30601" lon="0.40583">
        <ele>185</ele>
        <time>2015-12-05T09:00:37Z</time>
      </trkpt>
      <trkpt lat="45.30605" lon="0.40581">
        <ele>186</ele>
        <time>2015-12-05T09:00:41Z</time>
      </trkpt>
      <trkpt lat="45.3061" lon="0.4058">
        <ele>187</ele>
        <time>2015-12-05T09:00:46Z</time>
      </trkpt>
      <trkpt lat="45.30615" lon="0.40577">
        <ele>188</ele>
        <time>2015-12-05T09:00:50Z</time>
      </trkpt>
      <trkpt lat="45.30619" lon="0.40575">
        <ele>187</ele>
        <time>2015-12-05T09:00:57Z</time>
      </trkpt>
      <trkpt lat="45.30623" lon="0.40574">
        <ele>187</ele>
        <time>2015-12-05T09:01:02Z</time>
      </trkpt>
      <trkpt lat="45.30631" lon="0.40573">
        <ele>187</ele>
        <time>2015-12-05T09:01:06Z</time>
      </trkpt>
      <trkpt lat="45.30635" lon="0.40574">
        <ele>186</ele>
        <time>2015-12-05T09:01:10Z</time>
      </trkpt>
      <trkpt lat="45.30642" lon="0.40575">
        <ele>186</ele>
        <time>2015-12-05T09:01:14Z</time>
      </trkpt>
      <trkpt lat="45.30655" lon="0.4058">
        <ele>187</ele>
        <time>2015-12-05T09:01:19Z</time>
      </trkpt>
      <trkpt lat="45.30666" lon="0.40584">
        <ele>187</ele>
        <time>2015-12-05T09:01:23Z</time>
      </trkpt>
      <trkpt lat="45.30678" lon="0.40587">
        <ele>188</ele>
        <time>2015-12-05T09:01:28Z</time>
      </trkpt>
      <trkpt lat="45.30686" lon="0.40589">
        <ele>188</ele>
        <time>2015-12-05T09:01:32Z</time>
      </trkpt>
      <trkpt lat="45.30696" lon="0.4059">
        <ele>185</ele>
        <time>2015-12-05T09:01:37Z</time>
      </trkpt>
      <trkpt lat="45.30703" lon="0.40592">
        <ele>186</ele>
        <time>2015-12-05T09:01:41Z</time>
      </trkpt>
      <trkpt lat="45.30711" lon="0.40592">
        <ele>184</ele>
        <time>2015-12-05T09:01:46Z</time>
      </trkpt>
      <trkpt lat="45.30719" lon="0.40592">
        <ele>184</ele>
        <time>2015-12-05T09:01:50Z</time>
      </trkpt>
      <trkpt lat="45.30725" lon="0.40592">
        <ele>184</ele>
        <time>2015-12-05T09:01:54Z</time>
      </trkpt>
      <trkpt lat="45.30733" lon="0.40593">
        <ele>185</ele>
        <time>2015-12-05T09:01:59Z</time>
      </trkpt>
      <trkpt lat="45.30738" lon="0.40594">
        <ele>185</ele>
        <time>2015-12-05T09:02:03Z</time>
      </trkpt>
      <trkpt lat="45.30744" lon="0.40594">
        <ele>183</ele>
        <time>2015-12-05T09:02:08Z</time>
      </trkpt>
      <trkpt lat="45.30748" lon="0.40591">
        <ele>178</ele>
        <time>2015-12-05T09:03:00Z</time>
      </trkpt>
      <trkpt lat="45.30754" lon="0.40593">
        <ele>179</ele>
        <time>2015-12-05T09:03:05Z</time>
      </trkpt>
      <trkpt lat="45.30762" lon="0.40595">
        <ele>180</ele>
        <time>2015-12-05T09:03:10Z</time>
      </trkpt>
      <trkpt lat="45.30768" lon="0.40593">
        <ele>180</ele>
        <time>2015-12-05T09:03:14Z</time>
      </trkpt>
      <trkpt lat="45.30774" lon="0.40596">
        <ele>181</ele>
        <time>2015-12-05T09:03:19Z</time>
      </trkpt>
      <trkpt lat="45.3078" lon="0.40597">
        <ele>180</ele>
        <time>2015-12-05T09:03:24Z</time>
      </trkpt>
      <trkpt lat="45.30785" lon="0.40598">
        <ele>180</ele>
        <time>2015-12-05T09:03:28Z</time>
      </trkpt>
      <trkpt lat="45.30789" lon="0.40599">
        <ele>180</ele>
        <time>2015-12-05T09:03:32Z</time>
      </trkpt>
      <trkpt lat="45.30795" lon="0.406">
        <ele>179</ele>
        <time>2015-12-05T09:03:37Z</time>
      </trkpt>
      <trkpt lat="45.30799" lon="0.40601">
        <ele>180</ele>
        <time>2015-12-05T09:03:41Z</time>
      </trkpt>
      <trkpt lat="45.30804" lon="0.40603">
        <ele>181</ele>
        <time>2015-12-05T09:03:45Z</time>
      </trkpt>
      <trkpt lat="45.3081" lon="0.40606">
        <ele>181</ele>
        <time>2015-12-05T09:03:50Z</time>
      </trkpt>
      <trkpt lat="45.30815" lon="0.40606">
        <ele>182</ele>
        <time>2015-12-05T09:03:54Z</time>
      </trkpt>
      <trkpt lat="45.3082" lon="0.40606">
        <ele>181</ele>
        <time>2015-12-05T09:03:59Z</time>
      </trkpt>
      <trkpt lat="45.30827" lon="0.40605">
        <ele>182</ele>
        <time>2015-12-05T09:04:04Z</time>
      </trkpt>
      <trkpt lat="45.30834" lon="0.40608">
        <ele>181</ele>
        <time>2015-12-05T09:04:08Z</time>
      </trkpt>
      <trkpt lat="45.30841" lon="0.4061">
        <ele>182</ele>
        <time>2015-12-05T09:04:13Z</time>
      </trkpt>
      <trkpt lat="45.30847" lon="0.4061">
        <ele>182</ele>
        <time>2015-12-05T09:04:17Z</time>
      </trkpt>
      <trkpt lat="45.30853" lon="0.40611">
        <ele>182</ele>
        <time>2015-12-05T09:04:22Z</time>
      </trkpt>
      <trkpt lat="45.30859" lon="0.40611">
        <ele>184</ele>
        <time>2015-12-05T09:04:26Z</time>
      </trkpt>
      <trkpt lat="45.30865" lon="0.40612">
        <ele>185</ele>
        <time>2015-12-05T09:04:30Z</time>
      </trkpt>
      <trkpt lat="45.30871" lon="0.40615">
        <ele>183</ele>
        <time>2015-12-05T09:04:34Z</time>
      </trkpt>
      <trkpt lat="45.30876" lon="0.40615">
        <ele>183</ele>
        <time>2015-12-05T09:04:38Z</time>
      </trkpt>
      <trkpt lat="45.30883" lon="0.40613">
        <ele>185</ele>
        <time>2015-12-05T09:04:43Z</time>
      </trkpt>
      <trkpt lat="45.30887" lon="0.40614">
        <ele>184</ele>
        <time>2015-12-05T09:04:47Z</time>
      </trkpt>
      <trkpt lat="45.30895" lon="0.40616">
        <ele>185</ele>
        <time>2015-12-05T09:04:52Z</time>
      </trkpt>
      <trkpt lat="45.30901" lon="0.40617">
        <ele>185</ele>
        <time>2015-12-05T09:04:57Z</time>
      </trkpt>
      <trkpt lat="45.30907" lon="0.40615">
        <ele>184</ele>
        <time>2015-12-05T09:05:01Z</time>
      </trkpt>
      <trkpt lat="45.30915" lon="0.40616">
        <ele>186</ele>
        <time>2015-12-05T09:05:06Z</time>
      </trkpt>
      <trkpt lat="45.3092" lon="0.40615">
        <ele>186</ele>
        <time>2015-12-05T09:05:10Z</time>
      </trkpt>
      <trkpt lat="45.30924" lon="0.40614">
        <ele>185</ele>
        <time>2015-12-05T09:05:17Z</time>
      </trkpt>
      <trkpt lat="45.30932" lon="0.40614">
        <ele>186</ele>
        <time>2015-12-05T09:05:22Z</time>
      </trkpt>
      <trkpt lat="45.30938" lon="0.40614">
        <ele>185</ele>
        <time>2015-12-05T09:05:26Z</time>
      </trkpt>
      <trkpt lat="45.30946" lon="0.4061">
        <ele>185</ele>
        <time>2015-12-05T09:05:31Z</time>
      </trkpt>
      <trkpt lat="45.30953" lon="0.40605">
        <ele>184</ele>
        <time>2015-12-05T09:05:36Z</time>
      </trkpt>
      <trkpt lat="45.30959" lon="0.40602">
        <ele>185</ele>
        <time>2015-12-05T09:05:40Z</time>
      </trkpt>
      <trkpt lat="45.30965" lon="0.40601">
        <ele>185</ele>
        <time>2015-12-05T09:05:45Z</time>
      </trkpt>
      <trkpt lat="45.3097" lon="0.40598">
        <ele>184</ele>
        <time>2015-12-05T09:05:49Z</time>
      </trkpt>
      <trkpt lat="45.30976" lon="0.40596">
        <ele>184</ele>
        <time>2015-12-05T09:05:53Z</time>
      </trkpt>
      <trkpt lat="45.30982" lon="0.40595">
        <ele>184</ele>
        <time>2015-12-05T09:05:58Z</time>
      </trkpt>
      <trkpt lat="45.3099" lon="0.40595">
        <ele>184</ele>
        <time>2015-12-05T09:06:03Z</time>
      </trkpt>
      <trkpt lat="45.30994" lon="0.40595">
        <ele>184</ele>
        <time>2015-12-05T09:06:07Z</time>
      </trkpt>
      <trkpt lat="45.30999" lon="0.40594">
        <ele>185</ele>
        <time>2015-12-05T09:06:11Z</time>
      </trkpt>
      <trkpt lat="45.31005" lon="0.40594">
        <ele>186</ele>
        <time>2015-12-05T09:06:16Z</time>
      </trkpt>
      <trkpt lat="45.31011" lon="0.40591">
        <ele>187</ele>
        <time>2015-12-05T09:06:21Z</time>
      </trkpt>
      <trkpt lat="45.31014" lon="0.40592">
        <ele>188</ele>
        <time>2015-12-05T09:06:25Z</time>
      </trkpt>
      <trkpt lat="45.31021" lon="0.40591">
        <ele>186</ele>
        <time>2015-12-05T09:06:30Z</time>
      </trkpt>
      <trkpt lat="45.31028" lon="0.40589">
        <ele>184</ele>
        <time>2015-12-05T09:06:35Z</time>
      </trkpt>
      <trkpt lat="45.31032" lon="0.40587">
        <ele>184</ele>
        <time>2015-12-05T09:06:39Z</time>
      </trkpt>
      <trkpt lat="45.31039" lon="0.40586">
        <ele>185</ele>
        <time>2015-12-05T09:06:44Z</time>
      </trkpt>
      <trkpt lat="45.31044" lon="0.40584">
        <ele>184</ele>
        <time>2015-12-05T09:06:48Z</time>
      </trkpt>
      <trkpt lat="45.3105" lon="0.40584">
        <ele>185</ele>
        <time>2015-12-05T09:06:53Z</time>
      </trkpt>
      <trkpt lat="45.31054" lon="0.40583">
        <ele>185</ele>
        <time>2015-12-05T09:06:58Z</time>
      </trkpt>
      <trkpt lat="45.3106" lon="0.40582">
        <ele>184</ele>
        <time>2015-12-05T09:07:02Z</time>
      </trkpt>
      <trkpt lat="45.31066" lon="0.40582">
        <ele>186</ele>
        <time>2015-12-05T09:07:06Z</time>
      </trkpt>
      <trkpt lat="45.31072" lon="0.40582">
        <ele>186</ele>
        <time>2015-12-05T09:07:11Z</time>
      </trkpt>
      <trkpt lat="45.31077" lon="0.40583">
        <ele>187</ele>
        <time>2015-12-05T09:07:15Z</time>
      </trkpt>
      <trkpt lat="45.31082" lon="0.40582">
        <ele>186</ele>
        <time>2015-12-05T09:07:19Z</time>
      </trkpt>
      <trkpt lat="45.31085" lon="0.40582">
        <ele>185</ele>
        <time>2015-12-05T09:07:23Z</time>
      </trkpt>
      <trkpt lat="45.31091" lon="0.40582">
        <ele>185</ele>
        <time>2015-12-05T09:07:27Z</time>
      </trkpt>
      <trkpt lat="45.31095" lon="0.40585">
        <ele>185</ele>
        <time>2015-12-05T09:07:32Z</time>
      </trkpt>
      <trkpt lat="45.31101" lon="0.40585">
        <ele>186</ele>
        <time>2015-12-05T09:07:36Z</time>
      </trkpt>
      <trkpt lat="45.31107" lon="0.40585">
        <ele>187</ele>
        <time>2015-12-05T09:07:40Z</time>
      </trkpt>
      <trkpt lat="45.31111" lon="0.40583">
        <ele>187</ele>
        <time>2015-12-05T09:07:44Z</time>
      </trkpt>
      <trkpt lat="45.31117" lon="0.40581">
        <ele>192</ele>
        <time>2015-12-05T09:07:48Z</time>
      </trkpt>
      <trkpt lat="45.31121" lon="0.40579">
        <ele>196</ele>
        <time>2015-12-05T09:07:54Z</time>
      </trkpt>
      <trkpt lat="45.31124" lon="0.40576">
        <ele>193</ele>
        <time>2015-12-05T09:07:58Z</time>
      </trkpt>
      <trkpt lat="45.31128" lon="0.40573">
        <ele>194</ele>
        <time>2015-12-05T09:08:03Z</time>
      </trkpt>
      <trkpt lat="45.31134" lon="0.40568">
        <ele>195</ele>
        <time>2015-12-05T09:08:08Z</time>
      </trkpt>
      <trkpt lat="45.3114" lon="0.40561">
        <ele>196</ele>
        <time>2015-12-05T09:08:13Z</time>
      </trkpt>
      <trkpt lat="45.31145" lon="0.40557">
        <ele>196</ele>
        <time>2015-12-05T09:08:17Z</time>
      </trkpt>
      <trkpt lat="45.31148" lon="0.40553">
        <ele>196</ele>
        <time>2015-12-05T09:08:21Z</time>
      </trkpt>
      <trkpt lat="45.31153" lon="0.40546">
        <ele>195</ele>
        <time>2015-12-05T09:08:25Z</time>
      </trkpt>
      <trkpt lat="45.31156" lon="0.40539">
        <ele>192</ele>
        <time>2015-12-05T09:08:30Z</time>
      </trkpt>
      <trkpt lat="45.3116" lon="0.40534">
        <ele>193</ele>
        <time>2015-12-05T09:08:34Z</time>
      </trkpt>
      <trkpt lat="45.31163" lon="0.40529">
        <ele>193</ele>
        <time>2015-12-05T09:08:38Z</time>
      </trkpt>
      <trkpt lat="45.31167" lon="0.40524">
        <ele>191</ele>
        <time>2015-12-05T09:08:42Z</time>
      </trkpt>
      <trkpt lat="45.31171" lon="0.40519">
        <ele>191</ele>
        <time>2015-12-05T09:08:47Z</time>
      </trkpt>
      <trkpt lat="45.31176" lon="0.40515">
        <ele>191</ele>
        <time>2015-12-05T09:08:51Z</time>
      </trkpt>
      <trkpt lat="45.31181" lon="0.40511">
        <ele>192</ele>
        <time>2015-12-05T09:08:56Z</time>
      </trkpt>
      <trkpt lat="45.31184" lon="0.40507">
        <ele>192</ele>
        <time>2015-12-05T09:09:00Z</time>
      </trkpt>
      <trkpt lat="45.31189" lon="0.40501">
        <ele>191</ele>
        <time>2015-12-05T09:09:05Z</time>
      </trkpt>
      <trkpt lat="45.31193" lon="0.40498">
        <ele>193</ele>
        <time>2015-12-05T09:09:09Z</time>
      </trkpt>
      <trkpt lat="45.31197" lon="0.40492">
        <ele>192</ele>
        <time>2015-12-05T09:09:14Z</time>
      </trkpt>
      <trkpt lat="45.31201" lon="0.40488">
        <ele>191</ele>
        <time>2015-12-05T09:09:18Z</time>
      </trkpt>
      <trkpt lat="45.31206" lon="0.40483">
        <ele>191</ele>
        <time>2015-12-05T09:09:22Z</time>
      </trkpt>
      <trkpt lat="45.3121" lon="0.4048">
        <ele>191</ele>
        <time>2015-12-05T09:09:26Z</time>
      </trkpt>
      <trkpt lat="45.31214" lon="0.40476">
        <ele>190</ele>
        <time>2015-12-05T09:09:30Z</time>
      </trkpt>
      <trkpt lat="45.31219" lon="0.40471">
        <ele>189</ele>
        <time>2015-12-05T09:09:35Z</time>
      </trkpt>
      <trkpt lat="45.31223" lon="0.40465">
        <ele>190</ele>
        <time>2015-12-05T09:09:39Z</time>
      </trkpt>
      <trkpt lat="45.31226" lon="0.4046">
        <ele>188</ele>
        <time>2015-12-05T09:09:44Z</time>
      </trkpt>
      <trkpt lat="45.31231" lon="0.40457">
        <ele>188</ele>
        <time>2015-12-05T09:09:48Z</time>
      </trkpt>
      <trkpt lat="45.31235" lon="0.40453">
        <ele>189</ele>
        <time>2015-12-05T09:09:52Z</time>
      </trkpt>
      <trkpt lat="45.31239" lon="0.40446">
        <ele>186</ele>
        <time>2015-12-05T09:09:56Z</time>
      </trkpt>
      <trkpt lat="45.31244" lon="0.40443">
        <ele>188</ele>
        <time>2015-12-05T09:10:00Z</time>
      </trkpt>
      <trkpt lat="45.31252" lon="0.40436">
        <ele>186</ele>
        <time>2015-12-05T09:10:05Z</time>
      </trkpt>
      <trkpt lat="45.3126" lon="0.40432">
        <ele>187</ele>
        <time>2015-12-05T09:10:09Z</time>
      </trkpt>
      <trkpt lat="45.31266" lon="0.40428">
        <ele>186</ele>
        <time>2015-12-05T09:10:13Z</time>
      </trkpt>
      <trkpt lat="45.31271" lon="0.40422">
        <ele>185</ele>
        <time>2015-12-05T09:10:17Z</time>
      </trkpt>
      <trkpt lat="45.31277" lon="0.40415">
        <ele>186</ele>
        <time>2015-12-05T09:10:22Z</time>
      </trkpt>
      <trkpt lat="45.31281" lon="0.4041">
        <ele>187</ele>
        <time>2015-12-05T09:10:26Z</time>
      </trkpt>
      <trkpt lat="45.31285" lon="0.40404">
        <ele>187</ele>
        <time>2015-12-05T09:10:31Z</time>
      </trkpt>
      <trkpt lat="45.31289" lon="0.40397">
        <ele>185</ele>
        <time>2015-12-05T09:10:36Z</time>
      </trkpt>
      <trkpt lat="45.31292" lon="0.40392">
        <ele>188</ele>
        <time>2015-12-05T09:10:40Z</time>
      </trkpt>
      <trkpt lat="45.31296" lon="0.40387">
        <ele>190</ele>
        <time>2015-12-05T09:10:44Z</time>
      </trkpt>
      <trkpt lat="45.31298" lon="0.40381">
        <ele>190</ele>
        <time>2015-12-05T09:10:48Z</time>
      </trkpt>
      <trkpt lat="45.313" lon="0.40372">
        <ele>188</ele>
        <time>2015-12-05T09:10:53Z</time>
      </trkpt>
      <trkpt lat="45.31302" lon="0.40367">
        <ele>187</ele>
        <time>2015-12-05T09:10:57Z</time>
      </trkpt>
      <trkpt lat="45.31304" lon="0.40358">
        <ele>186</ele>
        <time>2015-12-05T09:11:02Z</time>
      </trkpt>
      <trkpt lat="45.31305" lon="0.40351">
        <ele>186</ele>
        <time>2015-12-05T09:11:06Z</time>
      </trkpt>
      <trkpt lat="45.31306" lon="0.40346">
        <ele>187</ele>
        <time>2015-12-05T09:11:10Z</time>
      </trkpt>
      <trkpt lat="45.31308" lon="0.40337">
        <ele>191</ele>
        <time>2015-12-05T09:11:14Z</time>
      </trkpt>
      <trkpt lat="45.31309" lon="0.40331">
        <ele>191</ele>
        <time>2015-12-05T09:11:18Z</time>
      </trkpt>
      <trkpt lat="45.3131" lon="0.40323">
        <ele>192</ele>
        <time>2015-12-05T09:11:22Z</time>
      </trkpt>
      <trkpt lat="45.31311" lon="0.40315">
        <ele>191</ele>
        <time>2015-12-05T09:11:26Z</time>
      </trkpt>
      <trkpt lat="45.31312" lon="0.40304">
        <ele>188</ele>
        <time>2015-12-05T09:11:31Z</time>
      </trkpt>
      <trkpt lat="45.31314" lon="0.40296">
        <ele>191</ele>
        <time>2015-12-05T09:11:36Z</time>
      </trkpt>
      <trkpt lat="45.31316" lon="0.4029">
        <ele>191</ele>
        <time>2015-12-05T09:11:40Z</time>
      </trkpt>
      <trkpt lat="45.31318" lon="0.40283">
        <ele>190</ele>
        <time>2015-12-05T09:11:44Z</time>
      </trkpt>
      <trkpt lat="45.31321" lon="0.40276">
        <ele>190</ele>
        <time>2015-12-05T09:11:48Z</time>
      </trkpt>
      <trkpt lat="45.31323" lon="0.40269">
        <ele>190</ele>
        <time>2015-12-05T09:11:52Z</time>
      </trkpt>
      <trkpt lat="45.31325" lon="0.4026">
        <ele>187</ele>
        <time>2015-12-05T09:11:57Z</time>
      </trkpt>
      <trkpt lat="45.31327" lon="0.40251">
        <ele>183</ele>
        <time>2015-12-05T09:12:01Z</time>
      </trkpt>
      <trkpt lat="45.31331" lon="0.40244">
        <ele>185</ele>
        <time>2015-12-05T09:12:06Z</time>
      </trkpt>
      <trkpt lat="45.31332" lon="0.40235">
        <ele>183</ele>
        <time>2015-12-05T09:12:10Z</time>
      </trkpt>
      <trkpt lat="45.31335" lon="0.40227">
        <ele>182</ele>
        <time>2015-12-05T09:12:15Z</time>
      </trkpt>
      <trkpt lat="45.31336" lon="0.40215">
        <ele>177</ele>
        <time>2015-12-05T09:12:19Z</time>
      </trkpt>
      <trkpt lat="45.31338" lon="0.40206">
        <ele>176</ele>
        <time>2015-12-05T09:12:23Z</time>
      </trkpt>
      <trkpt lat="45.31338" lon="0.40199">
        <ele>177</ele>
        <time>2015-12-05T09:12:28Z</time>
      </trkpt>
      <trkpt lat="45.31339" lon="0.40192">
        <ele>177</ele>
        <time>2015-12-05T09:12:32Z</time>
      </trkpt>
      <trkpt lat="45.31339" lon="0.40184">
        <ele>175</ele>
        <time>2015-12-05T09:12:37Z</time>
      </trkpt>
      <trkpt lat="45.31339" lon="0.40177">
        <ele>175</ele>
        <time>2015-12-05T09:12:42Z</time>
      </trkpt>
      <trkpt lat="45.3134" lon="0.40171">
        <ele>176</ele>
        <time>2015-12-05T09:12:46Z</time>
      </trkpt>
      <trkpt lat="45.3134" lon="0.4016">
        <ele>172</ele>
        <time>2015-12-05T09:12:50Z</time>
      </trkpt>
      <trkpt lat="45.31342" lon="0.4015">
        <ele>173</ele>
        <time>2015-12-05T09:12:54Z</time>
      </trkpt>
      <trkpt lat="45.31344" lon="0.40134">
        <ele>174</ele>
        <time>2015-12-05T09:12:59Z</time>
      </trkpt>
      <trkpt lat="45.31348" lon="0.40122">
        <ele>175</ele>
        <time>2015-12-05T09:13:03Z</time>
      </trkpt>
      <trkpt lat="45.31352" lon="0.40111">
        <ele>173</ele>
        <time>2015-12-05T09:13:08Z</time>
      </trkpt>
      <trkpt lat="45.31354" lon="0.40102">
        <ele>171</ele>
        <time>2015-12-05T09:13:12Z</time>
      </trkpt>
      <trkpt lat="45.31356" lon="0.40089">
        <ele>168</ele>
        <time>2015-12-05T09:13:16Z</time>
      </trkpt>
      <trkpt lat="45.31361" lon="0.40084">
        <ele>168</ele>
        <time>2015-12-05T09:13:20Z</time>
      </trkpt>
      <trkpt lat="45.31369" lon="0.40079">
        <ele>171</ele>
        <time>2015-12-05T09:13:25Z</time>
      </trkpt>
      <trkpt lat="45.31374" lon="0.40072">
        <ele>170</ele>
        <time>2015-12-05T09:13:29Z</time>
      </trkpt>
      <trkpt lat="45.31377" lon="0.40065">
        <ele>164</ele>
        <time>2015-12-05T09:13:34Z</time>
      </trkpt>
      <trkpt lat="45.31378" lon="0.40058">
        <ele>162</ele>
        <time>2015-12-05T09:13:38Z</time>
      </trkpt>
      <trkpt lat="45.3138" lon="0.40054">
        <ele>160</ele>
        <time>2015-12-05T09:13:42Z</time>
      </trkpt>
      <trkpt lat="45.3138" lon="0.40048">
        <ele>158</ele>
        <time>2015-12-05T09:13:47Z</time>
      </trkpt>
      <trkpt lat="45.31383" lon="0.40043">
        <ele>160</ele>
        <time>2015-12-05T09:13:57Z</time>
      </trkpt>
      <trkpt lat="45.31387" lon="0.40043">
        <ele>164</ele>
        <time>2015-12-05T09:14:02Z</time>
      </trkpt>
      <trkpt lat="45.31391" lon="0.40045">
        <ele>168</ele>
        <time>2015-12-05T09:14:13Z</time>
      </trkpt>
      <trkpt lat="45.31395" lon="0.40047">
        <ele>170</ele>
        <time>2015-12-05T09:14:23Z</time>
      </trkpt>
      <trkpt lat="45.31393" lon="0.40043">
        <ele>181</ele>
        <time>2015-12-05T09:16:03Z</time>
      </trkpt>
      <trkpt lat="45.31397" lon="0.40046">
        <ele>178</ele>
        <time>2015-12-05T09:16:39Z</time>
      </trkpt>
      <trkpt lat="45.31401" lon="0.40045">
        <ele>178</ele>
        <time>2015-12-05T09:16:49Z</time>
      </trkpt>
      <trkpt lat="45.31406" lon="0.40042">
        <ele>178</ele>
        <time>2015-12-05T09:16:54Z</time>
      </trkpt>
      <trkpt lat="45.3141" lon="0.4004">
        <ele>179</ele>
        <time>2015-12-05T09:16:59Z</time>
      </trkpt>
      <trkpt lat="45.31416" lon="0.40038">
        <ele>178</ele>
        <time>2015-12-05T09:17:03Z</time>
      </trkpt>
      <trkpt lat="45.31422" lon="0.40036">
        <ele>178</ele>
        <time>2015-12-05T09:17:07Z</time>
      </trkpt>
      <trkpt lat="45.31428" lon="0.40034">
        <ele>178</ele>
        <time>2015-12-05T09:17:11Z</time>
      </trkpt>
      <trkpt lat="45.31435" lon="0.40029">
        <ele>177</ele>
        <time>2015-12-05T09:17:16Z</time>
      </trkpt>
      <trkpt lat="45.31439" lon="0.40027">
        <ele>174</ele>
        <time>2015-12-05T09:17:20Z</time>
      </trkpt>
      <trkpt lat="45.31443" lon="0.40024">
        <ele>173</ele>
        <time>2015-12-05T09:17:24Z</time>
      </trkpt>
      <trkpt lat="45.3145" lon="0.40022">
        <ele>172</ele>
        <time>2015-12-05T09:17:29Z</time>
      </trkpt>
      <trkpt lat="45.31456" lon="0.40018">
        <ele>171</ele>
        <time>2015-12-05T09:17:34Z</time>
      </trkpt>
      <trkpt lat="45.31461" lon="0.40016">
        <ele>171</ele>
        <time>2015-12-05T09:17:38Z</time>
      </trkpt>
      <trkpt lat="45.31465" lon="0.40014">
        <ele>169</ele>
        <time>2015-12-05T09:17:42Z</time>
      </trkpt>
      <trkpt lat="45.3147" lon="0.40012">
        <ele>168</ele>
        <time>2015-12-05T09:17:47Z</time>
      </trkpt>
      <trkpt lat="45.31475" lon="0.40009">
        <ele>166</ele>
        <time>2015-12-05T09:17:52Z</time>
      </trkpt>
      <trkpt lat="45.31479" lon="0.40008">
        <ele>165</ele>
        <time>2015-12-05T09:17:56Z</time>
      </trkpt>
      <trkpt lat="45.31484" lon="0.40005">
        <ele>164</ele>
        <time>2015-12-05T09:18:01Z</time>
      </trkpt>
      <trkpt lat="45.31488" lon="0.40004">
        <ele>164</ele>
        <time>2015-12-05T09:18:05Z</time>
      </trkpt>
      <trkpt lat="45.31495" lon="0.40002">
        <ele>164</ele>
        <time>2015-12-05T09:18:10Z</time>
      </trkpt>
      <trkpt lat="45.31501" lon="0.39999">
        <ele>163</ele>
        <time>2015-12-05T09:18:14Z</time>
      </trkpt>
      <trkpt lat="45.31508" lon="0.39997">
        <ele>161</ele>
        <time>2015-12-05T09:18:18Z</time>
      </trkpt>
      <trkpt lat="45.31516" lon="0.39997">
        <ele>161</ele>
        <time>2015-12-05T09:18:22Z</time>
      </trkpt>
      <trkpt lat="45.31523" lon="0.39996">
        <ele>160</ele>
        <time>2015-12-05T09:18:27Z</time>
      </trkpt>
      <trkpt lat="45.31528" lon="0.39996">
        <ele>159</ele>
        <time>2015-12-05T09:18:31Z</time>
      </trkpt>
      <trkpt lat="45.31533" lon="0.39996">
        <ele>159</ele>
        <time>2015-12-05T09:18:35Z</time>
      </trkpt>
      <trkpt lat="45.31537" lon="0.39995">
        <ele>156</ele>
        <time>2015-12-05T09:18:40Z</time>
      </trkpt>
      <trkpt lat="45.31543" lon="0.39995">
        <ele>156</ele>
        <time>2015-12-05T09:18:45Z</time>
      </trkpt>
      <trkpt lat="45.31547" lon="0.39994">
        <ele>155</ele>
        <time>2015-12-05T09:18:49Z</time>
      </trkpt>
      <trkpt lat="45.31552" lon="0.39994">
        <ele>155</ele>
        <time>2015-12-05T09:18:53Z</time>
      </trkpt>
      <trkpt lat="45.31557" lon="0.39993">
        <ele>155</ele>
        <time>2015-12-05T09:18:58Z</time>
      </trkpt>
      <trkpt lat="45.31561" lon="0.39992">
        <ele>155</ele>
        <time>2015-12-05T09:19:02Z</time>
      </trkpt>
      <trkpt lat="45.31569" lon="0.39992">
        <ele>155</ele>
        <time>2015-12-05T09:19:07Z</time>
      </trkpt>
      <trkpt lat="45.31573" lon="0.39992">
        <ele>154</ele>
        <time>2015-12-05T09:19:12Z</time>
      </trkpt>
      <trkpt lat="45.31579" lon="0.39993">
        <ele>153</ele>
        <time>2015-12-05T09:19:17Z</time>
      </trkpt>
      <trkpt lat="45.31586" lon="0.39993">
        <ele>154</ele>
        <time>2015-12-05T09:19:22Z</time>
      </trkpt>
      <trkpt lat="45.3159" lon="0.39992">
        <ele>152</ele>
        <time>2015-12-05T09:19:27Z</time>
      </trkpt>
      <trkpt lat="45.31594" lon="0.39991">
        <ele>150</ele>
        <time>2015-12-05T09:19:32Z</time>
      </trkpt>
      <trkpt lat="45.31601" lon="0.3999">
        <ele>151</ele>
        <time>2015-12-05T09:19:36Z</time>
      </trkpt>
      <trkpt lat="45.31606" lon="0.39989">
        <ele>151</ele>
        <time>2015-12-05T09:19:40Z</time>
      </trkpt>
      <trkpt lat="45.31612" lon="0.3999">
        <ele>151</ele>
        <time>2015-12-05T09:19:45Z</time>
      </trkpt>
      <trkpt lat="45.31616" lon="0.3999">
        <ele>150</ele>
        <time>2015-12-05T09:19:49Z</time>
      </trkpt>
      <trkpt lat="45.31622" lon="0.3999">
        <ele>150</ele>
        <time>2015-12-05T09:19:54Z</time>
      </trkpt>
      <trkpt lat="45.31627" lon="0.3999">
        <ele>150</ele>
        <time>2015-12-05T09:19:59Z</time>
      </trkpt>
      <trkpt lat="45.31634" lon="0.39989">
        <ele>148</ele>
        <time>2015-12-05T09:20:04Z</time>
      </trkpt>
      <trkpt lat="45.3164" lon="0.39988">
        <ele>148</ele>
        <time>2015-12-05T09:20:09Z</time>
      </trkpt>
      <trkpt lat="45.31645" lon="0.39989">
        <ele>148</ele>
        <time>2015-12-05T09:20:13Z</time>
      </trkpt>
      <trkpt lat="45.31649" lon="0.39987">
        <ele>146</ele>
        <time>2015-12-05T09:20:17Z</time>
      </trkpt>
      <trkpt lat="45.31656" lon="0.39987">
        <ele>147</ele>
        <time>2015-12-05T09:20:22Z</time>
      </trkpt>
      <trkpt lat="45.31662" lon="0.39986">
        <ele>147</ele>
        <time>2015-12-05T09:20:26Z</time>
      </trkpt>
      <trkpt lat="45.31666" lon="0.39985">
        <ele>145</ele>
        <time>2015-12-05T09:20:31Z</time>
      </trkpt>
      <trkpt lat="45.31672" lon="0.39985">
        <ele>145</ele>
        <time>2015-12-05T09:20:36Z</time>
      </trkpt>
      <trkpt lat="45.31677" lon="0.39984">
        <ele>146</ele>
        <time>2015-12-05T09:20:40Z</time>
      </trkpt>
      <trkpt lat="45.31681" lon="0.39982">
        <ele>143</ele>
        <time>2015-12-05T09:20:45Z</time>
      </trkpt>
      <trkpt lat="45.31686" lon="0.39983">
        <ele>139</ele>
        <time>2015-12-05T09:20:51Z</time>
      </trkpt>
      <trkpt lat="45.31689" lon="0.39983">
        <ele>139</ele>
        <time>2015-12-05T09:20:55Z</time>
      </trkpt>
      <trkpt lat="45.31694" lon="0.39983">
        <ele>139</ele>
        <time>2015-12-05T09:20:59Z</time>
      </trkpt>
      <trkpt lat="45.317" lon="0.39981">
        <ele>138</ele>
        <time>2015-12-05T09:21:04Z</time>
      </trkpt>
      <trkpt lat="45.31706" lon="0.39979">
        <ele>137</ele>
        <time>2015-12-05T09:21:09Z</time>
      </trkpt>
      <trkpt lat="45.3171" lon="0.39978">
        <ele>137</ele>
        <time>2015-12-05T09:21:13Z</time>
      </trkpt>
      <trkpt lat="45.31715" lon="0.39977">
        <ele>137</ele>
        <time>2015-12-05T09:21:17Z</time>
      </trkpt>
      <trkpt lat="45.3172" lon="0.39976">
        <ele>136</ele>
        <time>2015-12-05T09:21:21Z</time>
      </trkpt>
      <trkpt lat="45.31724" lon="0.39976">
        <ele>135</ele>
        <time>2015-12-05T09:21:25Z</time>
      </trkpt>
      <trkpt lat="45.31728" lon="0.39975">
        <ele>135</ele>
        <time>2015-12-05T09:21:29Z</time>
      </trkpt>
      <trkpt lat="45.31734" lon="0.39974">
        <ele>136</ele>
        <time>2015-12-05T09:21:34Z</time>
      </trkpt>
      <trkpt lat="45.31739" lon="0.39974">
        <ele>135</ele>
        <time>2015-12-05T09:21:38Z</time>
      </trkpt>
      <trkpt lat="45.31744" lon="0.39973">
        <ele>135</ele>
        <time>2015-12-05T09:21:42Z</time>
      </trkpt>
      <trkpt lat="45.31749" lon="0.39972">
        <ele>134</ele>
        <time>2015-12-05T09:21:47Z</time>
      </trkpt>
      <trkpt lat="45.31754" lon="0.39971">
        <ele>133</ele>
        <time>2015-12-05T09:21:51Z</time>
      </trkpt>
      <trkpt lat="45.3176" lon="0.39968">
        <ele>132</ele>
        <time>2015-12-05T09:21:56Z</time>
      </trkpt>
      <trkpt lat="45.31765" lon="0.39968">
        <ele>131</ele>
        <time>2015-12-05T09:22:01Z</time>
      </trkpt>
      <trkpt lat="45.31769" lon="0.39966">
        <ele>131</ele>
        <time>2015-12-05T09:22:05Z</time>
      </trkpt>
      <trkpt lat="45.31773" lon="0.39965">
        <ele>131</ele>
        <time>2015-12-05T09:22:10Z</time>
      </trkpt>
      <trkpt lat="45.31778" lon="0.39964">
        <ele>130</ele>
        <time>2015-12-05T09:22:15Z</time>
      </trkpt>
      <trkpt lat="45.31783" lon="0.39962">
        <ele>129</ele>
        <time>2015-12-05T09:22:20Z</time>
      </trkpt>
      <trkpt lat="45.31789" lon="0.3996">
        <ele>129</ele>
        <time>2015-12-05T09:22:24Z</time>
      </trkpt>
      <trkpt lat="45.31793" lon="0.39958">
        <ele>128</ele>
        <time>2015-12-05T09:22:29Z</time>
      </trkpt>
      <trkpt lat="45.31798" lon="0.39957">
        <ele>127</ele>
        <time>2015-12-05T09:22:33Z</time>
      </trkpt>
      <trkpt lat="45.31803" lon="0.39956">
        <ele>128</ele>
        <time>2015-12-05T09:22:38Z</time>
      </trkpt>
      <trkpt lat="45.31808" lon="0.39956">
        <ele>127</ele>
        <time>2015-12-05T09:22:42Z</time>
      </trkpt>
      <trkpt lat="45.31813" lon="0.39953">
        <ele>126</ele>
        <time>2015-12-05T09:22:46Z</time>
      </trkpt>
      <trkpt lat="45.31818" lon="0.39952">
        <ele>126</ele>
        <time>2015-12-05T09:22:50Z</time>
      </trkpt>
      <trkpt lat="45.31826" lon="0.39952">
        <ele>126</ele>
        <time>2015-12-05T09:22:55Z</time>
      </trkpt>
      <trkpt lat="45.31833" lon="0.3995">
        <ele>126</ele>
        <time>2015-12-05T09:23:00Z</time>
      </trkpt>
      <trkpt lat="45.31839" lon="0.39949">
        <ele>126</ele>
        <time>2015-12-05T09:23:04Z</time>
      </trkpt>
      <trkpt lat="45.31844" lon="0.39947">
        <ele>125</ele>
        <time>2015-12-05T09:23:08Z</time>
      </trkpt>
      <trkpt lat="45.31852" lon="0.39945">
        <ele>124</ele>
        <time>2015-12-05T09:23:13Z</time>
      </trkpt>
      <trkpt lat="45.31857" lon="0.39944">
        <ele>123</ele>
        <time>2015-12-05T09:23:17Z</time>
      </trkpt>
      <trkpt lat="45.31864" lon="0.39941">
        <ele>123</ele>
        <time>2015-12-05T09:23:22Z</time>
      </trkpt>
      <trkpt lat="45.31868" lon="0.39934">
        <ele>122</ele>
        <time>2015-12-05T09:23:26Z</time>
      </trkpt>
      <trkpt lat="45.31874" lon="0.39927">
        <ele>122</ele>
        <time>2015-12-05T09:23:31Z</time>
      </trkpt>
      <trkpt lat="45.3188" lon="0.39926">
        <ele>122</ele>
        <time>2015-12-05T09:23:35Z</time>
      </trkpt>
      <trkpt lat="45.31884" lon="0.39925">
        <ele>120</ele>
        <time>2015-12-05T09:23:40Z</time>
      </trkpt>
      <trkpt lat="45.31887" lon="0.39924">
        <ele>120</ele>
        <time>2015-12-05T09:23:44Z</time>
      </trkpt>
      <trkpt lat="45.31891" lon="0.39922">
        <ele>118</ele>
        <time>2015-12-05T09:23:49Z</time>
      </trkpt>
      <trkpt lat="45.31896" lon="0.39925">
        <ele>118</ele>
        <time>2015-12-05T09:23:53Z</time>
      </trkpt>
      <trkpt lat="45.31901" lon="0.39927">
        <ele>121</ele>
        <time>2015-12-05T09:23:57Z</time>
      </trkpt>
      <trkpt lat="45.31906" lon="0.3993">
        <ele>124</ele>
        <time>2015-12-05T09:24:01Z</time>
      </trkpt>
      <trkpt lat="45.3191" lon="0.39932">
        <ele>122</ele>
        <time>2015-12-05T09:24:06Z</time>
      </trkpt>
      <trkpt lat="45.31915" lon="0.39934">
        <ele>121</ele>
        <time>2015-12-05T09:24:10Z</time>
      </trkpt>
      <trkpt lat="45.3192" lon="0.39935">
        <ele>120</ele>
        <time>2015-12-05T09:24:15Z</time>
      </trkpt>
      <trkpt lat="45.31925" lon="0.39939">
        <ele>120</ele>
        <time>2015-12-05T09:24:19Z</time>
      </trkpt>
      <trkpt lat="45.31931" lon="0.39941">
        <ele>120</ele>
        <time>2015-12-05T09:24:23Z</time>
      </trkpt>
      <trkpt lat="45.31937" lon="0.39944">
        <ele>120</ele>
        <time>2015-12-05T09:24:28Z</time>
      </trkpt>
      <trkpt lat="45.31945" lon="0.39948">
        <ele>122</ele>
        <time>2015-12-05T09:24:33Z</time>
      </trkpt>
      <trkpt lat="45.31949" lon="0.39949">
        <ele>122</ele>
        <time>2015-12-05T09:24:38Z</time>
      </trkpt>
      <trkpt lat="45.31955" lon="0.39951">
        <ele>122</ele>
        <time>2015-12-05T09:24:43Z</time>
      </trkpt>
      <trkpt lat="45.31961" lon="0.39952">
        <ele>122</ele>
        <time>2015-12-05T09:24:47Z</time>
      </trkpt>
      <trkpt lat="45.31964" lon="0.39954">
        <ele>121</ele>
        <time>2015-12-05T09:24:51Z</time>
      </trkpt>
      <trkpt lat="45.31968" lon="0.39954">
        <ele>121</ele>
        <time>2015-12-05T09:24:55Z</time>
      </trkpt>
      <trkpt lat="45.31972" lon="0.39953">
        <ele>120</ele>
        <time>2015-12-05T09:24:59Z</time>
      </trkpt>
      <trkpt lat="45.31979" lon="0.39954">
        <ele>121</ele>
        <time>2015-12-05T09:25:04Z</time>
      </trkpt>
      <trkpt lat="45.31987" lon="0.39954">
        <ele>124</ele>
        <time>2015-12-05T09:25:08Z</time>
      </trkpt>
      <trkpt lat="45.31992" lon="0.39954">
        <ele>126</ele>
        <time>2015-12-05T09:25:12Z</time>
      </trkpt>
      <trkpt lat="45.31999" lon="0.39952">
        <ele>127</ele>
        <time>2015-12-05T09:25:17Z</time>
      </trkpt>
      <trkpt lat="45.32005" lon="0.39949">
        <ele>127</ele>
        <time>2015-12-05T09:25:21Z</time>
      </trkpt>
      <trkpt lat="45.32011" lon="0.39947">
        <ele>128</ele>
        <time>2015-12-05T09:25:26Z</time>
      </trkpt>
      <trkpt lat="45.32016" lon="0.39945">
        <ele>128</ele>
        <time>2015-12-05T09:25:30Z</time>
      </trkpt>
      <trkpt lat="45.32022" lon="0.39943">
        <ele>128</ele>
        <time>2015-12-05T09:25:35Z</time>
      </trkpt>
      <trkpt lat="45.32028" lon="0.3994">
        <ele>128</ele>
        <time>2015-12-05T09:25:40Z</time>
      </trkpt>
      <trkpt lat="45.32033" lon="0.39938">
        <ele>128</ele>
        <time>2015-12-05T09:25:44Z</time>
      </trkpt>
      <trkpt lat="45.32039" lon="0.39935">
        <ele>128</ele>
        <time>2015-12-05T09:25:49Z</time>
      </trkpt>
      <trkpt lat="45.32044" lon="0.39934">
        <ele>129</ele>
        <time>2015-12-05T09:25:54Z</time>
      </trkpt>
      <trkpt lat="45.3205" lon="0.39932">
        <ele>129</ele>
        <time>2015-12-05T09:25:58Z</time>
      </trkpt>
      <trkpt lat="45.32056" lon="0.3993">
        <ele>129</ele>
        <time>2015-12-05T09:26:03Z</time>
      </trkpt>
      <trkpt lat="45.32061" lon="0.39929">
        <ele>129</ele>
        <time>2015-12-05T09:26:07Z</time>
      </trkpt>
      <trkpt lat="45.32066" lon="0.39929">
        <ele>129</ele>
        <time>2015-12-05T09:26:11Z</time>
      </trkpt>
      <trkpt lat="45.3207" lon="0.39928">
        <ele>129</ele>
        <time>2015-12-05T09:26:15Z</time>
      </trkpt>
      <trkpt lat="45.32075" lon="0.39928">
        <ele>130</ele>
        <time>2015-12-05T09:26:19Z</time>
      </trkpt>
      <trkpt lat="45.32081" lon="0.39927">
        <ele>130</ele>
        <time>2015-12-05T09:26:24Z</time>
      </trkpt>
      <trkpt lat="45.32086" lon="0.39926">
        <ele>130</ele>
        <time>2015-12-05T09:26:28Z</time>
      </trkpt>
      <trkpt lat="45.32091" lon="0.39926">
        <ele>130</ele>
        <time>2015-12-05T09:26:32Z</time>
      </trkpt>
      <trkpt lat="45.32098" lon="0.39925">
        <ele>131</ele>
        <time>2015-12-05T09:26:37Z</time>
      </trkpt>
      <trkpt lat="45.32101" lon="0.39929">
        <ele>136</ele>
        <time>2015-12-05T09:27:59Z</time>
      </trkpt>
      <trkpt lat="45.32107" lon="0.39929">
        <ele>135</ele>
        <time>2015-12-05T09:28:04Z</time>
      </trkpt>
      <trkpt lat="45.32113" lon="0.39928">
        <ele>135</ele>
        <time>2015-12-05T09:28:08Z</time>
      </trkpt>
      <trkpt lat="45.32118" lon="0.39928">
        <ele>135</ele>
        <time>2015-12-05T09:28:12Z</time>
      </trkpt>
      <trkpt lat="45.32123" lon="0.39927">
        <ele>133</ele>
        <time>2015-12-05T09:28:16Z</time>
      </trkpt>
      <trkpt lat="45.32132" lon="0.39927">
        <ele>132</ele>
        <time>2015-12-05T09:28:21Z</time>
      </trkpt>
      <trkpt lat="45.32138" lon="0.39927">
        <ele>132</ele>
        <time>2015-12-05T09:28:25Z</time>
      </trkpt>
      <trkpt lat="45.32144" lon="0.39927">
        <ele>134</ele>
        <time>2015-12-05T09:28:30Z</time>
      </trkpt>
      <trkpt lat="45.3215" lon="0.39925">
        <ele>134</ele>
        <time>2015-12-05T09:28:34Z</time>
      </trkpt>
      <trkpt lat="45.32156" lon="0.39923">
        <ele>136</ele>
        <time>2015-12-05T09:28:39Z</time>
      </trkpt>
      <trkpt lat="45.32163" lon="0.39921">
        <ele>137</ele>
        <time>2015-12-05T09:28:44Z</time>
      </trkpt>
      <trkpt lat="45.32167" lon="0.39919">
        <ele>136</ele>
        <time>2015-12-05T09:28:48Z</time>
      </trkpt>
      <trkpt lat="45.32171" lon="0.39918">
        <ele>137</ele>
        <time>2015-12-05T09:29:05Z</time>
      </trkpt>
      <trkpt lat="45.32175" lon="0.39916">
        <ele>136</ele>
        <time>2015-12-05T09:29:16Z</time>
      </trkpt>
      <trkpt lat="45.32178" lon="0.39914">
        <ele>137</ele>
        <time>2015-12-05T09:29:26Z</time>
      </trkpt>
      <trkpt lat="45.32186" lon="0.3991">
        <ele>136</ele>
        <time>2015-12-05T09:29:31Z</time>
      </trkpt>
      <trkpt lat="45.32192" lon="0.39907">
        <ele>136</ele>
        <time>2015-12-05T09:29:35Z</time>
      </trkpt>
      <trkpt lat="45.32198" lon="0.39905">
        <ele>136</ele>
        <time>2015-12-05T09:29:39Z</time>
      </trkpt>
      <trkpt lat="45.32203" lon="0.39902">
        <ele>137</ele>
        <time>2015-12-05T09:29:43Z</time>
      </trkpt>
      <trkpt lat="45.32211" lon="0.399">
        <ele>138</ele>
        <time>2015-12-05T09:29:48Z</time>
      </trkpt>
      <trkpt lat="45.32217" lon="0.39897">
        <ele>139</ele>
        <time>2015-12-05T09:29:52Z</time>
      </trkpt>
      <trkpt lat="45.32223" lon="0.39895">
        <ele>139</ele>
        <time>2015-12-05T09:29:56Z</time>
      </trkpt>
      <trkpt lat="45.32231" lon="0.39893">
        <ele>139</ele>
        <time>2015-12-05T09:30:01Z</time>
      </trkpt>
      <trkpt lat="45.32239" lon="0.39889">
        <ele>138</ele>
        <time>2015-12-05T09:30:06Z</time>
      </trkpt>
      <trkpt lat="45.32244" lon="0.39887">
        <ele>138</ele>
        <time>2015-12-05T09:30:10Z</time>
      </trkpt>
      <trkpt lat="45.32248" lon="0.39885">
        <ele>139</ele>
        <time>2015-12-05T09:30:14Z</time>
      </trkpt>
      <trkpt lat="45.32253" lon="0.39882">
        <ele>141</ele>
        <time>2015-12-05T09:30:18Z</time>
      </trkpt>
      <trkpt lat="45.32259" lon="0.3988">
        <ele>144</ele>
        <time>2015-12-05T09:30:22Z</time>
      </trkpt>
      <trkpt lat="45.32263" lon="0.39878">
        <ele>144</ele>
        <time>2015-12-05T09:30:27Z</time>
      </trkpt>
      <trkpt lat="45.32269" lon="0.39874">
        <ele>144</ele>
        <time>2015-12-05T09:30:32Z</time>
      </trkpt>
      <trkpt lat="45.32273" lon="0.39873">
        <ele>145</ele>
        <time>2015-12-05T09:30:39Z</time>
      </trkpt>
      <trkpt lat="45.32277" lon="0.39871">
        <ele>147</ele>
        <time>2015-12-05T09:30:45Z</time>
      </trkpt>
      <trkpt lat="45.32282" lon="0.39869">
        <ele>147</ele>
        <time>2015-12-05T09:30:50Z</time>
      </trkpt>
      <trkpt lat="45.32287" lon="0.39868">
        <ele>150</ele>
        <time>2015-12-05T09:30:55Z</time>
      </trkpt>
      <trkpt lat="45.32292" lon="0.39865">
        <ele>149</ele>
        <time>2015-12-05T09:31:00Z</time>
      </trkpt>
      <trkpt lat="45.32297" lon="0.39862">
        <ele>148</ele>
        <time>2015-12-05T09:31:05Z</time>
      </trkpt>
      <trkpt lat="45.32302" lon="0.39862">
        <ele>149</ele>
        <time>2015-12-05T09:31:09Z</time>
      </trkpt>
      <trkpt lat="45.32306" lon="0.39859">
        <ele>149</ele>
        <time>2015-12-05T09:31:13Z</time>
      </trkpt>
      <trkpt lat="45.3231" lon="0.39859">
        <ele>151</ele>
        <time>2015-12-05T09:31:16Z</time>
      </trkpt>
      <trkpt lat="45.32316" lon="0.39857">
        <ele>153</ele>
        <time>2015-12-05T09:31:20Z</time>
      </trkpt>
      <trkpt lat="45.32322" lon="0.39854">
        <ele>154</ele>
        <time>2015-12-05T09:31:25Z</time>
      </trkpt>
      <trkpt lat="45.32326" lon="0.39851">
        <ele>154</ele>
        <time>2015-12-05T09:31:34Z</time>
      </trkpt>
      <trkpt lat="45.32331" lon="0.39849">
        <ele>155</ele>
        <time>2015-12-05T09:31:39Z</time>
      </trkpt>
      <trkpt lat="45.32336" lon="0.39849">
        <ele>156</ele>
        <time>2015-12-05T09:31:44Z</time>
      </trkpt>
      <trkpt lat="45.32341" lon="0.39849">
        <ele>156</ele>
        <time>2015-12-05T09:31:48Z</time>
      </trkpt>
      <trkpt lat="45.32344" lon="0.3985">
        <ele>156</ele>
        <time>2015-12-05T09:31:53Z</time>
      </trkpt>
      <trkpt lat="45.3235" lon="0.39854">
        <ele>157</ele>
        <time>2015-12-05T09:31:58Z</time>
      </trkpt>
      <trkpt lat="45.32354" lon="0.39857">
        <ele>158</ele>
        <time>2015-12-05T09:32:02Z</time>
      </trkpt>
      <trkpt lat="45.32359" lon="0.39859">
        <ele>157</ele>
        <time>2015-12-05T09:32:06Z</time>
      </trkpt>
      <trkpt lat="45.32364" lon="0.39863">
        <ele>157</ele>
        <time>2015-12-05T09:32:11Z</time>
      </trkpt>
      <trkpt lat="45.32368" lon="0.39863">
        <ele>155</ele>
        <time>2015-12-05T09:32:15Z</time>
      </trkpt>
      <trkpt lat="45.32373" lon="0.39866">
        <ele>155</ele>
        <time>2015-12-05T09:32:19Z</time>
      </trkpt>
      <trkpt lat="45.32378" lon="0.39871">
        <ele>155</ele>
        <time>2015-12-05T09:32:23Z</time>
      </trkpt>
      <trkpt lat="45.32382" lon="0.39873">
        <ele>156</ele>
        <time>2015-12-05T09:32:27Z</time>
      </trkpt>
      <trkpt lat="45.32388" lon="0.39877">
        <ele>155</ele>
        <time>2015-12-05T09:32:32Z</time>
      </trkpt>
      <trkpt lat="45.32392" lon="0.3988">
        <ele>155</ele>
        <time>2015-12-05T09:32:37Z</time>
      </trkpt>
      <trkpt lat="45.32395" lon="0.39882">
        <ele>154</ele>
        <time>2015-12-05T09:32:41Z</time>
      </trkpt>
      <trkpt lat="45.324" lon="0.39885">
        <ele>155</ele>
        <time>2015-12-05T09:32:45Z</time>
      </trkpt>
      <trkpt lat="45.32404" lon="0.39889">
        <ele>154</ele>
        <time>2015-12-05T09:32:49Z</time>
      </trkpt>
      <trkpt lat="45.32407" lon="0.39891">
        <ele>153</ele>
        <time>2015-12-05T09:32:54Z</time>
      </trkpt>
      <trkpt lat="45.32411" lon="0.39894">
        <ele>154</ele>
        <time>2015-12-05T09:32:58Z</time>
      </trkpt>
      <trkpt lat="45.32416" lon="0.39896">
        <ele>153</ele>
        <time>2015-12-05T09:33:03Z</time>
      </trkpt>
      <trkpt lat="45.32419" lon="0.39899">
        <ele>153</ele>
        <time>2015-12-05T09:33:07Z</time>
      </trkpt>
      <trkpt lat="45.32423" lon="0.39902">
        <ele>154</ele>
        <time>2015-12-05T09:33:11Z</time>
      </trkpt>
      <trkpt lat="45.32427" lon="0.39905">
        <ele>153</ele>
        <time>2015-12-05T09:33:17Z</time>
      </trkpt>
      <trkpt lat="45.32431" lon="0.39907">
        <ele>154</ele>
        <time>2015-12-05T09:33:21Z</time>
      </trkpt>
      <trkpt lat="45.32435" lon="0.3991">
        <ele>153</ele>
        <time>2015-12-05T09:33:26Z</time>
      </trkpt>
      <trkpt lat="45.32439" lon="0.39912">
        <ele>152</ele>
        <time>2015-12-05T09:33:31Z</time>
      </trkpt>
      <trkpt lat="45.32444" lon="0.39915">
        <ele>153</ele>
        <time>2015-12-05T09:33:35Z</time>
      </trkpt>
      <trkpt lat="45.32449" lon="0.39918">
        <ele>154</ele>
        <time>2015-12-05T09:33:39Z</time>
      </trkpt>
      <trkpt lat="45.32454" lon="0.39921">
        <ele>153</ele>
        <time>2015-12-05T09:33:44Z</time>
      </trkpt>
      <trkpt lat="45.3246" lon="0.39922">
        <ele>154</ele>
        <time>2015-12-05T09:33:48Z</time>
      </trkpt>
      <trkpt lat="45.32465" lon="0.39923">
        <ele>154</ele>
        <time>2015-12-05T09:33:52Z</time>
      </trkpt>
      <trkpt lat="45.32469" lon="0.39923">
        <ele>154</ele>
        <time>2015-12-05T09:33:56Z</time>
      </trkpt>
      <trkpt lat="45.32473" lon="0.39923">
        <ele>153</ele>
        <time>2015-12-05T09:34:01Z</time>
      </trkpt>
      <trkpt lat="45.32478" lon="0.39924">
        <ele>153</ele>
        <time>2015-12-05T09:34:06Z</time>
      </trkpt>
      <trkpt lat="45.32483" lon="0.39926">
        <ele>153</ele>
        <time>2015-12-05T09:34:11Z</time>
      </trkpt>
      <trkpt lat="45.32488" lon="0.39927">
        <ele>153</ele>
        <time>2015-12-05T09:34:16Z</time>
      </trkpt>
      <trkpt lat="45.32493" lon="0.39929">
        <ele>154</ele>
        <time>2015-12-05T09:34:20Z</time>
      </trkpt>
      <trkpt lat="45.32499" lon="0.3993">
        <ele>155</ele>
        <time>2015-12-05T09:34:25Z</time>
      </trkpt>
      <trkpt lat="45.32506" lon="0.39931">
        <ele>154</ele>
        <time>2015-12-05T09:34:30Z</time>
      </trkpt>
      <trkpt lat="45.32509" lon="0.39935">
        <ele>152</ele>
        <time>2015-12-05T09:34:36Z</time>
      </trkpt>
      <trkpt lat="45.32514" lon="0.39936">
        <ele>154</ele>
        <time>2015-12-05T09:34:40Z</time>
      </trkpt>
      <trkpt lat="45.32517" lon="0.39938">
        <ele>154</ele>
        <time>2015-12-05T09:34:44Z</time>
      </trkpt>
      <trkpt lat="45.32521" lon="0.3994">
        <ele>154</ele>
        <time>2015-12-05T09:34:48Z</time>
      </trkpt>
      <trkpt lat="45.32526" lon="0.39942">
        <ele>155</ele>
        <time>2015-12-05T09:34:53Z</time>
      </trkpt>
      <trkpt lat="45.3253" lon="0.39944">
        <ele>156</ele>
        <time>2015-12-05T09:34:58Z</time>
      </trkpt>
      <trkpt lat="45.32534" lon="0.39946">
        <ele>157</ele>
        <time>2015-12-05T09:35:07Z</time>
      </trkpt>
      <trkpt lat="45.32539" lon="0.39948">
        <ele>158</ele>
        <time>2015-12-05T09:35:12Z</time>
      </trkpt>
      <trkpt lat="45.32543" lon="0.3995">
        <ele>161</ele>
        <time>2015-12-05T09:35:17Z</time>
      </trkpt>
      <trkpt lat="45.32547" lon="0.3995">
        <ele>160</ele>
        <time>2015-12-05T09:35:21Z</time>
      </trkpt>
      <trkpt lat="45.32551" lon="0.39951">
        <ele>161</ele>
        <time>2015-12-05T09:35:25Z</time>
      </trkpt>
      <trkpt lat="45.32557" lon="0.39952">
        <ele>162</ele>
        <time>2015-12-05T09:35:30Z</time>
      </trkpt>
      <trkpt lat="45.3256" lon="0.39954">
        <ele>164</ele>
        <time>2015-12-05T09:35:36Z</time>
      </trkpt>
      <trkpt lat="45.32566" lon="0.39958">
        <ele>164</ele>
        <time>2015-12-05T09:35:40Z</time>
      </trkpt>
      <trkpt lat="45.3257" lon="0.3996">
        <ele>164</ele>
        <time>2015-12-05T09:35:46Z</time>
      </trkpt>
      <trkpt lat="45.32575" lon="0.39962">
        <ele>161</ele>
        <time>2015-12-05T09:35:51Z</time>
      </trkpt>
      <trkpt lat="45.32579" lon="0.39964">
        <ele>161</ele>
        <time>2015-12-05T09:35:55Z</time>
      </trkpt>
      <trkpt lat="45.32584" lon="0.39965">
        <ele>161</ele>
        <time>2015-12-05T09:35:59Z</time>
      </trkpt>
      <trkpt lat="45.3259" lon="0.39967">
        <ele>161</ele>
        <time>2015-12-05T09:36:04Z</time>
      </trkpt>
      <trkpt lat="45.32595" lon="0.39971">
        <ele>162</ele>
        <time>2015-12-05T09:36:09Z</time>
      </trkpt>
      <trkpt lat="45.32597" lon="0.39973">
        <ele>162</ele>
        <time>2015-12-05T09:36:13Z</time>
      </trkpt>
      <trkpt lat="45.32605" lon="0.39977">
        <ele>161</ele>
        <time>2015-12-05T09:36:18Z</time>
      </trkpt>
      <trkpt lat="45.32608" lon="0.39979">
        <ele>160</ele>
        <time>2015-12-05T09:36:22Z</time>
      </trkpt>
      <trkpt lat="45.32614" lon="0.39982">
        <ele>159</ele>
        <time>2015-12-05T09:36:26Z</time>
      </trkpt>
      <trkpt lat="45.32617" lon="0.39984">
        <ele>161</ele>
        <time>2015-12-05T09:36:31Z</time>
      </trkpt>
      <trkpt lat="45.32621" lon="0.39986">
        <ele>165</ele>
        <time>2015-12-05T09:38:10Z</time>
      </trkpt>
      <trkpt lat="45.32625" lon="0.39991">
        <ele>165</ele>
        <time>2015-12-05T09:38:15Z</time>
      </trkpt>
      <trkpt lat="45.32629" lon="0.39993">
        <ele>164</ele>
        <time>2015-12-05T09:38:19Z</time>
      </trkpt>
      <trkpt lat="45.32633" lon="0.39997">
        <ele>164</ele>
        <time>2015-12-05T09:38:24Z</time>
      </trkpt>
      <trkpt lat="45.32637" lon="0.4">
        <ele>164</ele>
        <time>2015-12-05T09:38:28Z</time>
      </trkpt>
      <trkpt lat="45.3264" lon="0.40003">
        <ele>163</ele>
        <time>2015-12-05T09:38:32Z</time>
      </trkpt>
      <trkpt lat="45.32644" lon="0.40007">
        <ele>163</ele>
        <time>2015-12-05T09:38:36Z</time>
      </trkpt>
      <trkpt lat="45.32648" lon="0.4001">
        <ele>163</ele>
        <time>2015-12-05T09:38:41Z</time>
      </trkpt>
      <trkpt lat="45.32652" lon="0.40013">
        <ele>163</ele>
        <time>2015-12-05T09:38:45Z</time>
      </trkpt>
      <trkpt lat="45.32655" lon="0.40016">
        <ele>163</ele>
        <time>2015-12-05T09:38:51Z</time>
      </trkpt>
      <trkpt lat="45.3266" lon="0.4002">
        <ele>164</ele>
        <time>2015-12-05T09:38:56Z</time>
      </trkpt>
      <trkpt lat="45.32664" lon="0.40023">
        <ele>164</ele>
        <time>2015-12-05T09:39:00Z</time>
      </trkpt>
      <trkpt lat="45.32669" lon="0.40027">
        <ele>163</ele>
        <time>2015-12-05T09:39:05Z</time>
      </trkpt>
      <trkpt lat="45.32674" lon="0.40032">
        <ele>164</ele>
        <time>2015-12-05T09:39:10Z</time>
      </trkpt>
      <trkpt lat="45.32678" lon="0.40035">
        <ele>164</ele>
        <time>2015-12-05T09:39:14Z</time>
      </trkpt>
      <trkpt lat="45.32681" lon="0.40039">
        <ele>164</ele>
        <time>2015-12-05T09:39:18Z</time>
      </trkpt>
      <trkpt lat="45.32685" lon="0.40042">
        <ele>164</ele>
        <time>2015-12-05T09:39:22Z</time>
      </trkpt>
      <trkpt lat="45.3269" lon="0.40047">
        <ele>164</ele>
        <time>2015-12-05T09:39:27Z</time>
      </trkpt>
      <trkpt lat="45.32694" lon="0.40052">
        <ele>165</ele>
        <time>2015-12-05T09:39:31Z</time>
      </trkpt>
      <trkpt lat="45.32698" lon="0.40055">
        <ele>164</ele>
        <time>2015-12-05T09:39:36Z</time>
      </trkpt>
      <trkpt lat="45.32702" lon="0.40061">
        <ele>163</ele>
        <time>2015-12-05T09:39:41Z</time>
      </trkpt>
      <trkpt lat="45.32706" lon="0.40068">
        <ele>162</ele>
        <time>2015-12-05T09:39:45Z</time>
      </trkpt>
      <trkpt lat="45.3271" lon="0.40075">
        <ele>162</ele>
        <time>2015-12-05T09:39:49Z</time>
      </trkpt>
      <trkpt lat="45.32713" lon="0.40082">
        <ele>162</ele>
        <time>2015-12-05T09:39:53Z</time>
      </trkpt>
      <trkpt lat="45.32717" lon="0.40089">
        <ele>161</ele>
        <time>2015-12-05T09:39:57Z</time>
      </trkpt>
      <trkpt lat="45.32722" lon="0.40098">
        <ele>162</ele>
        <time>2015-12-05T09:40:02Z</time>
      </trkpt>
      <trkpt lat="45.32725" lon="0.40105">
        <ele>162</ele>
        <time>2015-12-05T09:40:06Z</time>
      </trkpt>
      <trkpt lat="45.3273" lon="0.40113">
        <ele>161</ele>
        <time>2015-12-05T09:40:11Z</time>
      </trkpt>
      <trkpt lat="45.32734" lon="0.40123">
        <ele>160</ele>
        <time>2015-12-05T09:40:16Z</time>
      </trkpt>
      <trkpt lat="45.32738" lon="0.4013">
        <ele>161</ele>
        <time>2015-12-05T09:40:20Z</time>
      </trkpt>
      <trkpt lat="45.32742" lon="0.40137">
        <ele>161</ele>
        <time>2015-12-05T09:40:24Z</time>
      </trkpt>
      <trkpt lat="45.32747" lon="0.40144">
        <ele>162</ele>
        <time>2015-12-05T09:40:29Z</time>
      </trkpt>
      <trkpt lat="45.32752" lon="0.40147">
        <ele>163</ele>
        <time>2015-12-05T09:40:33Z</time>
      </trkpt>
      <trkpt lat="45.32759" lon="0.40147">
        <ele>163</ele>
        <time>2015-12-05T09:40:38Z</time>
      </trkpt>
      <trkpt lat="45.32765" lon="0.40143">
        <ele>164</ele>
        <time>2015-12-05T09:40:42Z</time>
      </trkpt>
      <trkpt lat="45.3277" lon="0.40138">
        <ele>165</ele>
        <time>2015-12-05T09:40:46Z</time>
      </trkpt>
      <trkpt lat="45.32773" lon="0.40135">
        <ele>166</ele>
        <time>2015-12-05T09:40:50Z</time>
      </trkpt>
      <trkpt lat="45.32778" lon="0.4013">
        <ele>167</ele>
        <time>2015-12-05T09:40:54Z</time>
      </trkpt>
      <trkpt lat="45.32784" lon="0.40125">
        <ele>168</ele>
        <time>2015-12-05T09:40:59Z</time>
      </trkpt>
      <trkpt lat="45.32788" lon="0.40123">
        <ele>167</ele>
        <time>2015-12-05T09:41:03Z</time>
      </trkpt>
      <trkpt lat="45.32792" lon="0.40127">
        <ele>168</ele>
        <time>2015-12-05T09:41:07Z</time>
      </trkpt>
      <trkpt lat="45.32795" lon="0.40132">
        <ele>167</ele>
        <time>2015-12-05T09:41:12Z</time>
      </trkpt>
      <trkpt lat="45.32798" lon="0.40135">
        <ele>166</ele>
        <time>2015-12-05T09:41:16Z</time>
      </trkpt>
      <trkpt lat="45.32805" lon="0.4014">
        <ele>165</ele>
        <time>2015-12-05T09:41:21Z</time>
      </trkpt>
      <trkpt lat="45.32809" lon="0.40146">
        <ele>166</ele>
        <time>2015-12-05T09:41:25Z</time>
      </trkpt>
      <trkpt lat="45.32812" lon="0.40153">
        <ele>167</ele>
        <time>2015-12-05T09:41:30Z</time>
      </trkpt>
      <trkpt lat="45.32816" lon="0.4016">
        <ele>166</ele>
        <time>2015-12-05T09:41:34Z</time>
      </trkpt>
      <trkpt lat="45.32822" lon="0.40165">
        <ele>167</ele>
        <time>2015-12-05T09:41:39Z</time>
      </trkpt>
      <trkpt lat="45.32827" lon="0.40172">
        <ele>166</ele>
        <time>2015-12-05T09:41:44Z</time>
      </trkpt>
      <trkpt lat="45.32831" lon="0.40177">
        <ele>167</ele>
        <time>2015-12-05T09:41:48Z</time>
      </trkpt>
      <trkpt lat="45.32835" lon="0.40182">
        <ele>167</ele>
        <time>2015-12-05T09:41:52Z</time>
      </trkpt>
      <trkpt lat="45.32839" lon="0.40188">
        <ele>169</ele>
        <time>2015-12-05T09:41:56Z</time>
      </trkpt>
      <trkpt lat="45.32844" lon="0.40195">
        <ele>167</ele>
        <time>2015-12-05T09:42:01Z</time>
      </trkpt>
      <trkpt lat="45.32846" lon="0.402">
        <ele>166</ele>
        <time>2015-12-05T09:42:05Z</time>
      </trkpt>
      <trkpt lat="45.32847" lon="0.40205">
        <ele>165</ele>
        <time>2015-12-05T09:42:09Z</time>
      </trkpt>
      <trkpt lat="45.32844" lon="0.40213">
        <ele>165</ele>
        <time>2015-12-05T09:42:14Z</time>
      </trkpt>
      <trkpt lat="45.32842" lon="0.40219">
        <ele>166</ele>
        <time>2015-12-05T09:42:18Z</time>
      </trkpt>
      <trkpt lat="45.32839" lon="0.40225">
        <ele>166</ele>
        <time>2015-12-05T09:42:23Z</time>
      </trkpt>
      <trkpt lat="45.32836" lon="0.4023">
        <ele>166</ele>
        <time>2015-12-05T09:42:27Z</time>
      </trkpt>
      <trkpt lat="45.32834" lon="0.40236">
        <ele>167</ele>
        <time>2015-12-05T09:42:31Z</time>
      </trkpt>
      <trkpt lat="45.32831" lon="0.4024">
        <ele>166</ele>
        <time>2015-12-05T09:42:35Z</time>
      </trkpt>
      <trkpt lat="45.32827" lon="0.40246">
        <ele>165</ele>
        <time>2015-12-05T09:42:39Z</time>
      </trkpt>
      <trkpt lat="45.32824" lon="0.40249">
        <ele>166</ele>
        <time>2015-12-05T09:42:43Z</time>
      </trkpt>
      <trkpt lat="45.32821" lon="0.40251">
        <ele>166</ele>
        <time>2015-12-05T09:42:47Z</time>
      </trkpt>
      <trkpt lat="45.32816" lon="0.40263">
        <ele>165</ele>
        <time>2015-12-05T09:42:52Z</time>
      </trkpt>
      <trkpt lat="45.32812" lon="0.40268">
        <ele>164</ele>
        <time>2015-12-05T09:42:56Z</time>
      </trkpt>
      <trkpt lat="45.32808" lon="0.40275">
        <ele>161</ele>
        <time>2015-12-05T09:43:00Z</time>
      </trkpt>
      <trkpt lat="45.32802" lon="0.40281">
        <ele>160</ele>
        <time>2015-12-05T09:43:05Z</time>
      </trkpt>
      <trkpt lat="45.32798" lon="0.40287">
        <ele>160</ele>
        <time>2015-12-05T09:43:10Z</time>
      </trkpt>
      <trkpt lat="45.32795" lon="0.40292">
        <ele>156</ele>
        <time>2015-12-05T09:43:15Z</time>
      </trkpt>
      <trkpt lat="45.32793" lon="0.40296">
        <ele>154</ele>
        <time>2015-12-05T09:43:31Z</time>
      </trkpt>
      <trkpt lat="45.32786" lon="0.403">
        <ele>154</ele>
        <time>2015-12-05T09:43:36Z</time>
      </trkpt>
      <trkpt lat="45.3278" lon="0.40305">
        <ele>154</ele>
        <time>2015-12-05T09:43:41Z</time>
      </trkpt>
      <trkpt lat="45.32774" lon="0.40308">
        <ele>154</ele>
        <time>2015-12-05T09:43:45Z</time>
      </trkpt>
      <trkpt lat="45.3277" lon="0.40311">
        <ele>156</ele>
        <time>2015-12-05T09:43:49Z</time>
      </trkpt>
      <trkpt lat="45.32763" lon="0.40314">
        <ele>156</ele>
        <time>2015-12-05T09:43:54Z</time>
      </trkpt>
      <trkpt lat="45.32755" lon="0.40316">
        <ele>154</ele>
        <time>2015-12-05T09:43:59Z</time>
      </trkpt>
      <trkpt lat="45.32748" lon="0.4032">
        <ele>154</ele>
        <time>2015-12-05T09:44:04Z</time>
      </trkpt>
      <trkpt lat="45.32741" lon="0.40323">
        <ele>151</ele>
        <time>2015-12-05T09:44:08Z</time>
      </trkpt>
      <trkpt lat="45.32735" lon="0.40325">
        <ele>152</ele>
        <time>2015-12-05T09:44:13Z</time>
      </trkpt>
      <trkpt lat="45.32728" lon="0.40325">
        <ele>149</ele>
        <time>2015-12-05T09:44:17Z</time>
      </trkpt>
      <trkpt lat="45.32723" lon="0.40327">
        <ele>148</ele>
        <time>2015-12-05T09:44:21Z</time>
      </trkpt>
      <trkpt lat="45.32718" lon="0.40332">
        <ele>147</ele>
        <time>2015-12-05T09:44:25Z</time>
      </trkpt>
      <trkpt lat="45.32713" lon="0.40335">
        <ele>149</ele>
        <time>2015-12-05T09:44:29Z</time>
      </trkpt>
      <trkpt lat="45.32709" lon="0.40345">
        <ele>151</ele>
        <time>2015-12-05T09:44:34Z</time>
      </trkpt>
      <trkpt lat="45.32704" lon="0.40346">
        <ele>151</ele>
        <time>2015-12-05T09:44:38Z</time>
      </trkpt>
      <trkpt lat="45.327" lon="0.40349">
        <ele>151</ele>
        <time>2015-12-05T09:44:42Z</time>
      </trkpt>
      <trkpt lat="45.32694" lon="0.40354">
        <ele>148</ele>
        <time>2015-12-05T09:44:47Z</time>
      </trkpt>
      <trkpt lat="45.32689" lon="0.40361">
        <ele>147</ele>
        <time>2015-12-05T09:44:52Z</time>
      </trkpt>
      <trkpt lat="45.32685" lon="0.40367">
        <ele>149</ele>
        <time>2015-12-05T09:44:56Z</time>
      </trkpt>
      <trkpt lat="45.3268" lon="0.40372">
        <ele>149</ele>
        <time>2015-12-05T09:45:00Z</time>
      </trkpt>
      <trkpt lat="45.32675" lon="0.40381">
        <ele>145</ele>
        <time>2015-12-05T09:45:05Z</time>
      </trkpt>
      <trkpt lat="45.32671" lon="0.40387">
        <ele>144</ele>
        <time>2015-12-05T09:45:09Z</time>
      </trkpt>
      <trkpt lat="45.32668" lon="0.40394">
        <ele>144</ele>
        <time>2015-12-05T09:45:14Z</time>
      </trkpt>
      <trkpt lat="45.32665" lon="0.404">
        <ele>145</ele>
        <time>2015-12-05T09:45:18Z</time>
      </trkpt>
      <trkpt lat="45.32663" lon="0.4041">
        <ele>145</ele>
        <time>2015-12-05T09:45:23Z</time>
      </trkpt>
      <trkpt lat="45.32657" lon="0.40416">
        <ele>142</ele>
        <time>2015-12-05T09:45:27Z</time>
      </trkpt>
      <trkpt lat="45.32653" lon="0.40421">
        <ele>140</ele>
        <time>2015-12-05T09:45:32Z</time>
      </trkpt>
      <trkpt lat="45.3265" lon="0.40423">
        <ele>139</ele>
        <time>2015-12-05T09:45:37Z</time>
      </trkpt>
      <trkpt lat="45.32646" lon="0.40428">
        <ele>137</ele>
        <time>2015-12-05T09:45:42Z</time>
      </trkpt>
      <trkpt lat="45.32641" lon="0.40432">
        <ele>136</ele>
        <time>2015-12-05T09:45:46Z</time>
      </trkpt>
      <trkpt lat="45.32635" lon="0.40438">
        <ele>136</ele>
        <time>2015-12-05T09:45:51Z</time>
      </trkpt>
      <trkpt lat="45.32631" lon="0.40442">
        <ele>136</ele>
        <time>2015-12-05T09:45:55Z</time>
      </trkpt>
      <trkpt lat="45.32625" lon="0.40448">
        <ele>134</ele>
        <time>2015-12-05T09:45:59Z</time>
      </trkpt>
      <trkpt lat="45.32619" lon="0.40453">
        <ele>134</ele>
        <time>2015-12-05T09:46:04Z</time>
      </trkpt>
      <trkpt lat="45.32617" lon="0.4046">
        <ele>134</ele>
        <time>2015-12-05T09:46:08Z</time>
      </trkpt>
      <trkpt lat="45.32612" lon="0.40468">
        <ele>134</ele>
        <time>2015-12-05T09:46:13Z</time>
      </trkpt>
      <trkpt lat="45.32607" lon="0.40472">
        <ele>132</ele>
        <time>2015-12-05T09:46:17Z</time>
      </trkpt>
      <trkpt lat="45.32604" lon="0.40475">
        <ele>137</ele>
        <time>2015-12-05T09:46:52Z</time>
      </trkpt>
      <trkpt lat="45.32599" lon="0.40483">
        <ele>136</ele>
        <time>2015-12-05T09:46:57Z</time>
      </trkpt>
      <trkpt lat="45.32595" lon="0.40488">
        <ele>133</ele>
        <time>2015-12-05T09:47:01Z</time>
      </trkpt>
      <trkpt lat="45.32591" lon="0.40495">
        <ele>131</ele>
        <time>2015-12-05T09:47:05Z</time>
      </trkpt>
      <trkpt lat="45.32586" lon="0.40501">
        <ele>132</ele>
        <time>2015-12-05T09:47:10Z</time>
      </trkpt>
      <trkpt lat="45.32584" lon="0.40507">
        <ele>133</ele>
        <time>2015-12-05T09:47:14Z</time>
      </trkpt>
      <trkpt lat="45.32581" lon="0.40516">
        <ele>130</ele>
        <time>2015-12-05T09:47:18Z</time>
      </trkpt>
      <trkpt lat="45.32579" lon="0.40528">
        <ele>131</ele>
        <time>2015-12-05T09:47:23Z</time>
      </trkpt>
      <trkpt lat="45.32575" lon="0.40539">
        <ele>134</ele>
        <time>2015-12-05T09:47:28Z</time>
      </trkpt>
      <trkpt lat="45.32572" lon="0.40547">
        <ele>135</ele>
        <time>2015-12-05T09:47:32Z</time>
      </trkpt>
      <trkpt lat="45.3257" lon="0.40561">
        <ele>135</ele>
        <time>2015-12-05T09:47:37Z</time>
      </trkpt>
      <trkpt lat="45.32571" lon="0.40575">
        <ele>134</ele>
        <time>2015-12-05T09:47:42Z</time>
      </trkpt>
      <trkpt lat="45.32573" lon="0.40587">
        <ele>134</ele>
        <time>2015-12-05T09:47:47Z</time>
      </trkpt>
      <trkpt lat="45.32574" lon="0.40595">
        <ele>135</ele>
        <time>2015-12-05T09:47:51Z</time>
      </trkpt>
      <trkpt lat="45.32572" lon="0.40602">
        <ele>136</ele>
        <time>2015-12-05T09:47:55Z</time>
      </trkpt>
      <trkpt lat="45.32568" lon="0.40612">
        <ele>135</ele>
        <time>2015-12-05T09:48:00Z</time>
      </trkpt>
      <trkpt lat="45.32566" lon="0.40623">
        <ele>137</ele>
        <time>2015-12-05T09:48:05Z</time>
      </trkpt>
      <trkpt lat="45.32562" lon="0.4063">
        <ele>138</ele>
        <time>2015-12-05T09:48:09Z</time>
      </trkpt>
      <trkpt lat="45.32561" lon="0.40642">
        <ele>137</ele>
        <time>2015-12-05T09:48:14Z</time>
      </trkpt>
      <trkpt lat="45.3256" lon="0.40651">
        <ele>138</ele>
        <time>2015-12-05T09:48:18Z</time>
      </trkpt>
      <trkpt lat="45.32558" lon="0.40659">
        <ele>139</ele>
        <time>2015-12-05T09:48:22Z</time>
      </trkpt>
      <trkpt lat="45.32553" lon="0.40667">
        <ele>140</ele>
        <time>2015-12-05T09:48:27Z</time>
      </trkpt>
      <trkpt lat="45.3255" lon="0.40673">
        <ele>141</ele>
        <time>2015-12-05T09:48:31Z</time>
      </trkpt>
      <trkpt lat="45.32546" lon="0.4068">
        <ele>142</ele>
        <time>2015-12-05T09:48:35Z</time>
      </trkpt>
      <trkpt lat="45.32542" lon="0.40685">
        <ele>142</ele>
        <time>2015-12-05T09:48:39Z</time>
      </trkpt>
      <trkpt lat="45.32539" lon="0.40692">
        <ele>143</ele>
        <time>2015-12-05T09:48:43Z</time>
      </trkpt>
      <trkpt lat="45.32534" lon="0.407">
        <ele>143</ele>
        <time>2015-12-05T09:48:48Z</time>
      </trkpt>
      <trkpt lat="45.3253" lon="0.40707">
        <ele>142</ele>
        <time>2015-12-05T09:48:52Z</time>
      </trkpt>
      <trkpt lat="45.32527" lon="0.40715">
        <ele>142</ele>
        <time>2015-12-05T09:48:57Z</time>
      </trkpt>
      <trkpt lat="45.32524" lon="0.4072">
        <ele>142</ele>
        <time>2015-12-05T09:49:01Z</time>
      </trkpt>
      <trkpt lat="45.32522" lon="0.40727">
        <ele>142</ele>
        <time>2015-12-05T09:49:06Z</time>
      </trkpt>
      <trkpt lat="45.32518" lon="0.4073">
        <ele>143</ele>
        <time>2015-12-05T09:49:10Z</time>
      </trkpt>
      <trkpt lat="45.32515" lon="0.40737">
        <ele>142</ele>
        <time>2015-12-05T09:49:15Z</time>
      </trkpt>
      <trkpt lat="45.32513" lon="0.40741">
        <ele>142</ele>
        <time>2015-12-05T09:49:19Z</time>
      </trkpt>
      <trkpt lat="45.3251" lon="0.40745">
        <ele>144</ele>
        <time>2015-12-05T09:49:23Z</time>
      </trkpt>
      <trkpt lat="45.32507" lon="0.40751">
        <ele>144</ele>
        <time>2015-12-05T09:49:28Z</time>
      </trkpt>
      <trkpt lat="45.32505" lon="0.40759">
        <ele>144</ele>
        <time>2015-12-05T09:49:33Z</time>
      </trkpt>
      <trkpt lat="45.32503" lon="0.40764">
        <ele>145</ele>
        <time>2015-12-05T09:49:37Z</time>
      </trkpt>
      <trkpt lat="45.325" lon="0.40771">
        <ele>146</ele>
        <time>2015-12-05T09:49:42Z</time>
      </trkpt>
      <trkpt lat="45.32497" lon="0.40777">
        <ele>147</ele>
        <time>2015-12-05T09:49:47Z</time>
      </trkpt>
      <trkpt lat="45.32494" lon="0.40779">
        <ele>147</ele>
        <time>2015-12-05T09:49:51Z</time>
      </trkpt>
      <trkpt lat="45.32491" lon="0.40785">
        <ele>148</ele>
        <time>2015-12-05T09:49:56Z</time>
      </trkpt>
      <trkpt lat="45.32489" lon="0.40791">
        <ele>148</ele>
        <time>2015-12-05T09:50:01Z</time>
      </trkpt>
      <trkpt lat="45.32486" lon="0.40796">
        <ele>148</ele>
        <time>2015-12-05T09:50:06Z</time>
      </trkpt>
      <trkpt lat="45.32483" lon="0.40802">
        <ele>148</ele>
        <time>2015-12-05T09:50:11Z</time>
      </trkpt>
      <trkpt lat="45.3248" lon="0.40809">
        <ele>147</ele>
        <time>2015-12-05T09:50:16Z</time>
      </trkpt>
      <trkpt lat="45.32477" lon="0.40813">
        <ele>148</ele>
        <time>2015-12-05T09:50:20Z</time>
      </trkpt>
      <trkpt lat="45.32474" lon="0.4082">
        <ele>148</ele>
        <time>2015-12-05T09:50:25Z</time>
      </trkpt>
      <trkpt lat="45.3247" lon="0.40826">
        <ele>148</ele>
        <time>2015-12-05T09:50:30Z</time>
      </trkpt>
      <trkpt lat="45.32468" lon="0.40831">
        <ele>148</ele>
        <time>2015-12-05T09:50:35Z</time>
      </trkpt>
      <trkpt lat="45.32464" lon="0.40837">
        <ele>148</ele>
        <time>2015-12-05T09:50:40Z</time>
      </trkpt>
      <trkpt lat="45.32462" lon="0.40841">
        <ele>147</ele>
        <time>2015-12-05T09:50:44Z</time>
      </trkpt>
      <trkpt lat="45.32459" lon="0.40846">
        <ele>148</ele>
        <time>2015-12-05T09:50:48Z</time>
      </trkpt>
      <trkpt lat="45.32456" lon="0.40851">
        <ele>150</ele>
        <time>2015-12-05T09:50:53Z</time>
      </trkpt>
      <trkpt lat="45.32454" lon="0.40856">
        <ele>151</ele>
        <time>2015-12-05T09:50:58Z</time>
      </trkpt>
      <trkpt lat="45.32452" lon="0.40861">
        <ele>153</ele>
        <time>2015-12-05T09:51:04Z</time>
      </trkpt>
      <trkpt lat="45.3245" lon="0.40868">
        <ele>153</ele>
        <time>2015-12-05T09:51:09Z</time>
      </trkpt>
      <trkpt lat="45.32446" lon="0.40874">
        <ele>153</ele>
        <time>2015-12-05T09:51:14Z</time>
      </trkpt>
      <trkpt lat="45.32445" lon="0.40881">
        <ele>153</ele>
        <time>2015-12-05T09:51:18Z</time>
      </trkpt>
      <trkpt lat="45.32442" lon="0.40887">
        <ele>153</ele>
        <time>2015-12-05T09:51:23Z</time>
      </trkpt>
      <trkpt lat="45.32441" lon="0.40892">
        <ele>155</ele>
        <time>2015-12-05T09:51:27Z</time>
      </trkpt>
      <trkpt lat="45.32438" lon="0.40897">
        <ele>155</ele>
        <time>2015-12-05T09:51:31Z</time>
      </trkpt>
      <trkpt lat="45.32435" lon="0.40903">
        <ele>155</ele>
        <time>2015-12-05T09:51:36Z</time>
      </trkpt>
      <trkpt lat="45.32432" lon="0.40911">
        <ele>154</ele>
        <time>2015-12-05T09:51:41Z</time>
      </trkpt>
      <trkpt lat="45.32431" lon="0.40918">
        <ele>155</ele>
        <time>2015-12-05T09:51:45Z</time>
      </trkpt>
      <trkpt lat="45.32429" lon="0.40923">
        <ele>156</ele>
        <time>2015-12-05T09:51:49Z</time>
      </trkpt>
      <trkpt lat="45.32427" lon="0.40929">
        <ele>158</ele>
        <time>2015-12-05T09:51:53Z</time>
      </trkpt>
      <trkpt lat="45.32424" lon="0.40934">
        <ele>158</ele>
        <time>2015-12-05T09:51:58Z</time>
      </trkpt>
      <trkpt lat="45.32422" lon="0.4094">
        <ele>159</ele>
        <time>2015-12-05T09:52:03Z</time>
      </trkpt>
      <trkpt lat="45.32419" lon="0.40945">
        <ele>159</ele>
        <time>2015-12-05T09:52:07Z</time>
      </trkpt>
      <trkpt lat="45.32417" lon="0.40953">
        <ele>160</ele>
        <time>2015-12-05T09:52:12Z</time>
      </trkpt>
      <trkpt lat="45.32414" lon="0.40959">
        <ele>160</ele>
        <time>2015-12-05T09:52:17Z</time>
      </trkpt>
      <trkpt lat="45.32413" lon="0.40964">
        <ele>161</ele>
        <time>2015-12-05T09:52:21Z</time>
      </trkpt>
      <trkpt lat="45.32411" lon="0.40969">
        <ele>161</ele>
        <time>2015-12-05T09:52:25Z</time>
      </trkpt>
      <trkpt lat="45.3241" lon="0.40978">
        <ele>162</ele>
        <time>2015-12-05T09:52:30Z</time>
      </trkpt>
      <trkpt lat="45.32408" lon="0.40983">
        <ele>163</ele>
        <time>2015-12-05T09:52:34Z</time>
      </trkpt>
      <trkpt lat="45.32406" lon="0.40989">
        <ele>164</ele>
        <time>2015-12-05T09:52:39Z</time>
      </trkpt>
      <trkpt lat="45.32404" lon="0.40997">
        <ele>163</ele>
        <time>2015-12-05T09:52:44Z</time>
      </trkpt>
      <trkpt lat="45.32402" lon="0.41002">
        <ele>162</ele>
        <time>2015-12-05T09:52:49Z</time>
      </trkpt>
      <trkpt lat="45.32401" lon="0.41008">
        <ele>162</ele>
        <time>2015-12-05T09:52:53Z</time>
      </trkpt>
      <trkpt lat="45.32399" lon="0.41013">
        <ele>163</ele>
        <time>2015-12-05T09:52:59Z</time>
      </trkpt>
      <trkpt lat="45.32398" lon="0.41023">
        <ele>163</ele>
        <time>2015-12-05T09:53:04Z</time>
      </trkpt>
      <trkpt lat="45.32396" lon="0.41029">
        <ele>164</ele>
        <time>2015-12-05T09:53:08Z</time>
      </trkpt>
      <trkpt lat="45.32394" lon="0.41035">
        <ele>164</ele>
        <time>2015-12-05T09:53:12Z</time>
      </trkpt>
      <trkpt lat="45.32391" lon="0.41043">
        <ele>165</ele>
        <time>2015-12-05T09:53:17Z</time>
      </trkpt>
      <trkpt lat="45.32389" lon="0.41048">
        <ele>165</ele>
        <time>2015-12-05T09:53:21Z</time>
      </trkpt>
      <trkpt lat="45.32387" lon="0.41055">
        <ele>165</ele>
        <time>2015-12-05T09:53:26Z</time>
      </trkpt>
      <trkpt lat="45.32386" lon="0.41061">
        <ele>165</ele>
        <time>2015-12-05T09:53:30Z</time>
      </trkpt>
      <trkpt lat="45.32384" lon="0.41069">
        <ele>166</ele>
        <time>2015-12-05T09:53:35Z</time>
      </trkpt>
      <trkpt lat="45.32382" lon="0.41074">
        <ele>165</ele>
        <time>2015-12-05T09:53:39Z</time>
      </trkpt>
      <trkpt lat="45.32379" lon="0.4108">
        <ele>166</ele>
        <time>2015-12-05T09:53:44Z</time>
      </trkpt>
      <trkpt lat="45.32377" lon="0.41084">
        <ele>169</ele>
        <time>2015-12-05T09:53:48Z</time>
      </trkpt>
      <trkpt lat="45.32375" lon="0.4109">
        <ele>168</ele>
        <time>2015-12-05T09:53:52Z</time>
      </trkpt>
      <trkpt lat="45.32373" lon="0.41095">
        <ele>168</ele>
        <time>2015-12-05T09:53:56Z</time>
      </trkpt>
      <trkpt lat="45.3237" lon="0.411">
        <ele>168</ele>
        <time>2015-12-05T09:54:01Z</time>
      </trkpt>
      <trkpt lat="45.32367" lon="0.41104">
        <ele>168</ele>
        <time>2015-12-05T09:54:05Z</time>
      </trkpt>
      <trkpt lat="45.32364" lon="0.41109">
        <ele>169</ele>
        <time>2015-12-05T09:54:10Z</time>
      </trkpt>
      <trkpt lat="45.32362" lon="0.41114">
        <ele>168</ele>
        <time>2015-12-05T09:54:21Z</time>
      </trkpt>
      <trkpt lat="45.32359" lon="0.41118">
        <ele>169</ele>
        <time>2015-12-05T09:54:26Z</time>
      </trkpt>
      <trkpt lat="45.32357" lon="0.41124">
        <ele>169</ele>
        <time>2015-12-05T09:54:31Z</time>
      </trkpt>
      <trkpt lat="45.32355" lon="0.41129">
        <ele>169</ele>
        <time>2015-12-05T09:54:39Z</time>
      </trkpt>
      <trkpt lat="45.32353" lon="0.41134">
        <ele>169</ele>
        <time>2015-12-05T09:54:52Z</time>
      </trkpt>
      <trkpt lat="45.3235" lon="0.41138">
        <ele>169</ele>
        <time>2015-12-05T09:54:56Z</time>
      </trkpt>
      <trkpt lat="45.32348" lon="0.41142">
        <ele>170</ele>
        <time>2015-12-05T09:55:00Z</time>
      </trkpt>
      <trkpt lat="45.32345" lon="0.41146">
        <ele>171</ele>
        <time>2015-12-05T09:55:04Z</time>
      </trkpt>
      <trkpt lat="45.32342" lon="0.41151">
        <ele>173</ele>
        <time>2015-12-05T09:55:09Z</time>
      </trkpt>
      <trkpt lat="45.32339" lon="0.41155">
        <ele>172</ele>
        <time>2015-12-05T09:55:13Z</time>
      </trkpt>
      <trkpt lat="45.32337" lon="0.41162">
        <ele>172</ele>
        <time>2015-12-05T09:55:17Z</time>
      </trkpt>
      <trkpt lat="45.32334" lon="0.41169">
        <ele>173</ele>
        <time>2015-12-05T09:55:22Z</time>
      </trkpt>
      <trkpt lat="45.32331" lon="0.41173">
        <ele>173</ele>
        <time>2015-12-05T09:55:26Z</time>
      </trkpt>
      <trkpt lat="45.32328" lon="0.41179">
        <ele>174</ele>
        <time>2015-12-05T09:55:31Z</time>
      </trkpt>
      <trkpt lat="45.32325" lon="0.41184">
        <ele>174</ele>
        <time>2015-12-05T09:55:35Z</time>
      </trkpt>
      <trkpt lat="45.32323" lon="0.41187">
        <ele>174</ele>
        <time>2015-12-05T09:55:39Z</time>
      </trkpt>
      <trkpt lat="45.32321" lon="0.4119">
        <ele>174</ele>
        <time>2015-12-05T09:55:43Z</time>
      </trkpt>
      <trkpt lat="45.32318" lon="0.41196">
        <ele>174</ele>
        <time>2015-12-05T09:55:47Z</time>
      </trkpt>
      <trkpt lat="45.32315" lon="0.41199">
        <ele>176</ele>
        <time>2015-12-05T09:55:52Z</time>
      </trkpt>
      <trkpt lat="45.32312" lon="0.41206">
        <ele>175</ele>
        <time>2015-12-05T09:55:56Z</time>
      </trkpt>
      <trkpt lat="45.32308" lon="0.41213">
        <ele>176</ele>
        <time>2015-12-05T09:56:01Z</time>
      </trkpt>
      <trkpt lat="45.32306" lon="0.41217">
        <ele>177</ele>
        <time>2015-12-05T09:56:05Z</time>
      </trkpt>
      <trkpt lat="45.32303" lon="0.41222">
        <ele>176</ele>
        <time>2015-12-05T09:56:09Z</time>
      </trkpt>
      <trkpt lat="45.32298" lon="0.41228">
        <ele>176</ele>
        <time>2015-12-05T09:56:14Z</time>
      </trkpt>
      <trkpt lat="45.32295" lon="0.41236">
        <ele>177</ele>
        <time>2015-12-05T09:56:19Z</time>
      </trkpt>
      <trkpt lat="45.32292" lon="0.41239">
        <ele>178</ele>
        <time>2015-12-05T09:56:23Z</time>
      </trkpt>
      <trkpt lat="45.32289" lon="0.41244">
        <ele>178</ele>
        <time>2015-12-05T09:56:27Z</time>
      </trkpt>
      <trkpt lat="45.32285" lon="0.41246">
        <ele>178</ele>
        <time>2015-12-05T09:56:31Z</time>
      </trkpt>
      <trkpt lat="45.3228" lon="0.4125">
        <ele>179</ele>
        <time>2015-12-05T09:56:36Z</time>
      </trkpt>
      <trkpt lat="45.32277" lon="0.41252">
        <ele>180</ele>
        <time>2015-12-05T09:56:40Z</time>
      </trkpt>
      <trkpt lat="45.32272" lon="0.41255">
        <ele>179</ele>
        <time>2015-12-05T09:56:45Z</time>
      </trkpt>
      <trkpt lat="45.32268" lon="0.41257">
        <ele>182</ele>
        <time>2015-12-05T09:56:51Z</time>
      </trkpt>
      <trkpt lat="45.32264" lon="0.41261">
        <ele>182</ele>
        <time>2015-12-05T09:56:56Z</time>
      </trkpt>
      <trkpt lat="45.3226" lon="0.41263">
        <ele>182</ele>
        <time>2015-12-05T09:57:00Z</time>
      </trkpt>
      <trkpt lat="45.32256" lon="0.41266">
        <ele>184</ele>
        <time>2015-12-05T09:57:05Z</time>
      </trkpt>
      <trkpt lat="45.32252" lon="0.41268">
        <ele>184</ele>
        <time>2015-12-05T09:57:10Z</time>
      </trkpt>
      <trkpt lat="45.32249" lon="0.4127">
        <ele>186</ele>
        <time>2015-12-05T09:57:14Z</time>
      </trkpt>
      <trkpt lat="45.32245" lon="0.41275">
        <ele>188</ele>
        <time>2015-12-05T09:57:19Z</time>
      </trkpt>
      <trkpt lat="45.32242" lon="0.41278">
        <ele>190</ele>
        <time>2015-12-05T09:57:23Z</time>
      </trkpt>
      <trkpt lat="45.32238" lon="0.41281">
        <ele>189</ele>
        <time>2015-12-05T09:57:28Z</time>
      </trkpt>
      <trkpt lat="45.32233" lon="0.41284">
        <ele>190</ele>
        <time>2015-12-05T09:57:33Z</time>
      </trkpt>
      <trkpt lat="45.32228" lon="0.41288">
        <ele>192</ele>
        <time>2015-12-05T09:57:37Z</time>
      </trkpt>
      <trkpt lat="45.32224" lon="0.41289">
        <ele>194</ele>
        <time>2015-12-05T09:57:42Z</time>
      </trkpt>
      <trkpt lat="45.32221" lon="0.41291">
        <ele>196</ele>
        <time>2015-12-05T09:57:46Z</time>
      </trkpt>
      <trkpt lat="45.32217" lon="0.41297">
        <ele>195</ele>
        <time>2015-12-05T09:57:51Z</time>
      </trkpt>
      <trkpt lat="45.32212" lon="0.41298">
        <ele>196</ele>
        <time>2015-12-05T09:57:58Z</time>
      </trkpt>
      <trkpt lat="45.32209" lon="0.41302">
        <ele>196</ele>
        <time>2015-12-05T09:58:02Z</time>
      </trkpt>
      <trkpt lat="45.32207" lon="0.41308">
        <ele>196</ele>
        <time>2015-12-05T09:58:07Z</time>
      </trkpt>
      <trkpt lat="45.32204" lon="0.41313">
        <ele>196</ele>
        <time>2015-12-05T09:58:12Z</time>
      </trkpt>
      <trkpt lat="45.32195" lon="0.41321">
        <ele>189</ele>
        <time>2015-12-05T09:58:16Z</time>
      </trkpt>
      <trkpt lat="45.32192" lon="0.41326">
        <ele>189</ele>
        <time>2015-12-05T09:58:20Z</time>
      </trkpt>
      <trkpt lat="45.3219" lon="0.41331">
        <ele>188</ele>
        <time>2015-12-05T09:58:24Z</time>
      </trkpt>
      <trkpt lat="45.32188" lon="0.41337">
        <ele>189</ele>
        <time>2015-12-05T09:58:29Z</time>
      </trkpt>
      <trkpt lat="45.32184" lon="0.4134">
        <ele>190</ele>
        <time>2015-12-05T09:58:34Z</time>
      </trkpt>
      <trkpt lat="45.32181" lon="0.41345">
        <ele>191</ele>
        <time>2015-12-05T09:58:39Z</time>
      </trkpt>
      <trkpt lat="45.32177" lon="0.41349">
        <ele>194</ele>
        <time>2015-12-05T09:58:44Z</time>
      </trkpt>
      <trkpt lat="45.32173" lon="0.41354">
        <ele>197</ele>
        <time>2015-12-05T09:58:49Z</time>
      </trkpt>
      <trkpt lat="45.3217" lon="0.41359">
        <ele>196</ele>
        <time>2015-12-05T09:58:53Z</time>
      </trkpt>
      <trkpt lat="45.32167" lon="0.41365">
        <ele>198</ele>
        <time>2015-12-05T09:58:58Z</time>
      </trkpt>
      <trkpt lat="45.32163" lon="0.41369">
        <ele>201</ele>
        <time>2015-12-05T09:59:03Z</time>
      </trkpt>
      <trkpt lat="45.3216" lon="0.41373">
        <ele>204</ele>
        <time>2015-12-05T09:59:08Z</time>
      </trkpt>
      <trkpt lat="45.3216" lon="0.41393">
        <ele>193</ele>
        <time>2015-12-05T09:59:13Z</time>
      </trkpt>
      <trkpt lat="45.32156" lon="0.41398">
        <ele>193</ele>
        <time>2015-12-05T09:59:18Z</time>
      </trkpt>
      <trkpt lat="45.32156" lon="0.41405">
        <ele>195</ele>
        <time>2015-12-05T09:59:22Z</time>
      </trkpt>
      <trkpt lat="45.3215" lon="0.41411">
        <ele>195</ele>
        <time>2015-12-05T09:59:27Z</time>
      </trkpt>
      <trkpt lat="45.32147" lon="0.41417">
        <ele>195</ele>
        <time>2015-12-05T09:59:31Z</time>
      </trkpt>
      <trkpt lat="45.32145" lon="0.41421">
        <ele>194</ele>
        <time>2015-12-05T09:59:35Z</time>
      </trkpt>
      <trkpt lat="45.32142" lon="0.41426">
        <ele>193</ele>
        <time>2015-12-05T09:59:39Z</time>
      </trkpt>
      <trkpt lat="45.32137" lon="0.41431">
        <ele>192</ele>
        <time>2015-12-05T09:59:44Z</time>
      </trkpt>
      <trkpt lat="45.32133" lon="0.41437">
        <ele>193</ele>
        <time>2015-12-05T09:59:49Z</time>
      </trkpt>
      <trkpt lat="45.32134" lon="0.41445">
        <ele>195</ele>
        <time>2015-12-05T09:59:53Z</time>
      </trkpt>
      <trkpt lat="45.32135" lon="0.41452">
        <ele>195</ele>
        <time>2015-12-05T09:59:57Z</time>
      </trkpt>
      <trkpt lat="45.32131" lon="0.41458">
        <ele>194</ele>
        <time>2015-12-05T10:00:01Z</time>
      </trkpt>
      <trkpt lat="45.32137" lon="0.41464">
        <ele>195</ele>
        <time>2015-12-05T10:00:05Z</time>
      </trkpt>
      <trkpt lat="45.32143" lon="0.41471">
        <ele>196</ele>
        <time>2015-12-05T10:00:09Z</time>
      </trkpt>
      <trkpt lat="45.32145" lon="0.41479">
        <ele>196</ele>
        <time>2015-12-05T10:00:13Z</time>
      </trkpt>
      <trkpt lat="45.32148" lon="0.41487">
        <ele>197</ele>
        <time>2015-12-05T10:00:17Z</time>
      </trkpt>
      <trkpt lat="45.32151" lon="0.41491">
        <ele>198</ele>
        <time>2015-12-05T10:00:22Z</time>
      </trkpt>
      <trkpt lat="45.32153" lon="0.41498">
        <ele>199</ele>
        <time>2015-12-05T10:00:27Z</time>
      </trkpt>
      <trkpt lat="45.3215" lon="0.41503">
        <ele>197</ele>
        <time>2015-12-05T10:00:31Z</time>
      </trkpt>
      <trkpt lat="45.32147" lon="0.41509">
        <ele>199</ele>
        <time>2015-12-05T10:00:36Z</time>
      </trkpt>
      <trkpt lat="45.32144" lon="0.41513">
        <ele>198</ele>
        <time>2015-12-05T10:00:40Z</time>
      </trkpt>
      <trkpt lat="45.32142" lon="0.41521">
        <ele>196</ele>
        <time>2015-12-05T10:00:45Z</time>
      </trkpt>
      <trkpt lat="45.32144" lon="0.41529">
        <ele>198</ele>
        <time>2015-12-05T10:00:49Z</time>
      </trkpt>
      <trkpt lat="45.32145" lon="0.41534">
        <ele>201</ele>
        <time>2015-12-05T10:00:59Z</time>
      </trkpt>
      <trkpt lat="45.32145" lon="0.41539">
        <ele>195</ele>
        <time>2015-12-05T10:02:03Z</time>
      </trkpt>
      <trkpt lat="45.32147" lon="0.41545">
        <ele>196</ele>
        <time>2015-12-05T10:02:07Z</time>
      </trkpt>
      <trkpt lat="45.3215" lon="0.4155">
        <ele>195</ele>
        <time>2015-12-05T10:02:12Z</time>
      </trkpt>
      <trkpt lat="45.32152" lon="0.41555">
        <ele>194</ele>
        <time>2015-12-05T10:02:17Z</time>
      </trkpt>
      <trkpt lat="45.32155" lon="0.41562">
        <ele>194</ele>
        <time>2015-12-05T10:02:22Z</time>
      </trkpt>
      <trkpt lat="45.32157" lon="0.41566">
        <ele>195</ele>
        <time>2015-12-05T10:02:26Z</time>
      </trkpt>
      <trkpt lat="45.3216" lon="0.41571">
        <ele>197</ele>
        <time>2015-12-05T10:02:30Z</time>
      </trkpt>
      <trkpt lat="45.32164" lon="0.41577">
        <ele>197</ele>
        <time>2015-12-05T10:02:34Z</time>
      </trkpt>
      <trkpt lat="45.32167" lon="0.41582">
        <ele>199</ele>
        <time>2015-12-05T10:02:40Z</time>
      </trkpt>
      <trkpt lat="45.3217" lon="0.41589">
        <ele>199</ele>
        <time>2015-12-05T10:02:44Z</time>
      </trkpt>
      <trkpt lat="45.32173" lon="0.41594">
        <ele>201</ele>
        <time>2015-12-05T10:02:48Z</time>
      </trkpt>
      <trkpt lat="45.32179" lon="0.41599">
        <ele>200</ele>
        <time>2015-12-05T10:02:53Z</time>
      </trkpt>
      <trkpt lat="45.32183" lon="0.41606">
        <ele>200</ele>
        <time>2015-12-05T10:02:57Z</time>
      </trkpt>
      <trkpt lat="45.32187" lon="0.41613">
        <ele>200</ele>
        <time>2015-12-05T10:03:02Z</time>
      </trkpt>
      <trkpt lat="45.32191" lon="0.41617">
        <ele>200</ele>
        <time>2015-12-05T10:03:06Z</time>
      </trkpt>
      <trkpt lat="45.32193" lon="0.4162">
        <ele>200</ele>
        <time>2015-12-05T10:03:11Z</time>
      </trkpt>
      <trkpt lat="45.32197" lon="0.41625">
        <ele>198</ele>
        <time>2015-12-05T10:03:16Z</time>
      </trkpt>
      <trkpt lat="45.322" lon="0.41628">
        <ele>197</ele>
        <time>2015-12-05T10:03:20Z</time>
      </trkpt>
      <trkpt lat="45.32204" lon="0.41635">
        <ele>200</ele>
        <time>2015-12-05T10:03:24Z</time>
      </trkpt>
      <trkpt lat="45.32207" lon="0.41641">
        <ele>201</ele>
        <time>2015-12-05T10:03:28Z</time>
      </trkpt>
      <trkpt lat="45.32209" lon="0.41646">
        <ele>202</ele>
        <time>2015-12-05T10:03:32Z</time>
      </trkpt>
      <trkpt lat="45.32214" lon="0.41652">
        <ele>202</ele>
        <time>2015-12-05T10:03:36Z</time>
      </trkpt>
      <trkpt lat="45.32217" lon="0.41658">
        <ele>203</ele>
        <time>2015-12-05T10:03:40Z</time>
      </trkpt>
      <trkpt lat="45.32221" lon="0.41663">
        <ele>201</ele>
        <time>2015-12-05T10:03:44Z</time>
      </trkpt>
      <trkpt lat="45.32225" lon="0.41669">
        <ele>203</ele>
        <time>2015-12-05T10:03:49Z</time>
      </trkpt>
      <trkpt lat="45.32228" lon="0.41675">
        <ele>204</ele>
        <time>2015-12-05T10:03:53Z</time>
      </trkpt>
      <trkpt lat="45.32231" lon="0.41679">
        <ele>206</ele>
        <time>2015-12-05T10:03:57Z</time>
      </trkpt>
      <trkpt lat="45.32233" lon="0.41687">
        <ele>207</ele>
        <time>2015-12-05T10:04:02Z</time>
      </trkpt>
      <trkpt lat="45.32235" lon="0.41693">
        <ele>208</ele>
        <time>2015-12-05T10:04:06Z</time>
      </trkpt>
      <trkpt lat="45.32238" lon="0.41698">
        <ele>207</ele>
        <time>2015-12-05T10:04:10Z</time>
      </trkpt>
      <trkpt lat="45.3224" lon="0.41703">
        <ele>207</ele>
        <time>2015-12-05T10:04:14Z</time>
      </trkpt>
      <trkpt lat="45.32242" lon="0.4171">
        <ele>207</ele>
        <time>2015-12-05T10:04:19Z</time>
      </trkpt>
      <trkpt lat="45.32242" lon="0.41716">
        <ele>208</ele>
        <time>2015-12-05T10:04:23Z</time>
      </trkpt>
      <trkpt lat="45.32242" lon="0.41724">
        <ele>207</ele>
        <time>2015-12-05T10:04:28Z</time>
      </trkpt>
      <trkpt lat="45.32242" lon="0.41732">
        <ele>207</ele>
        <time>2015-12-05T10:04:33Z</time>
      </trkpt>
      <trkpt lat="45.32242" lon="0.41738">
        <ele>207</ele>
        <time>2015-12-05T10:04:37Z</time>
      </trkpt>
      <trkpt lat="45.32242" lon="0.41744">
        <ele>207</ele>
        <time>2015-12-05T10:04:41Z</time>
      </trkpt>
      <trkpt lat="45.32243" lon="0.41752">
        <ele>206</ele>
        <time>2015-12-05T10:04:46Z</time>
      </trkpt>
      <trkpt lat="45.32241" lon="0.41757">
        <ele>206</ele>
        <time>2015-12-05T10:04:50Z</time>
      </trkpt>
      <trkpt lat="45.32238" lon="0.41762">
        <ele>205</ele>
        <time>2015-12-05T10:04:54Z</time>
      </trkpt>
      <trkpt lat="45.32234" lon="0.41765">
        <ele>203</ele>
        <time>2015-12-05T10:05:05Z</time>
      </trkpt>
      <trkpt lat="45.3223" lon="0.41766">
        <ele>203</ele>
        <time>2015-12-05T10:05:09Z</time>
      </trkpt>
      <trkpt lat="45.32226" lon="0.41772">
        <ele>201</ele>
        <time>2015-12-05T10:05:14Z</time>
      </trkpt>
      <trkpt lat="45.32222" lon="0.41774">
        <ele>203</ele>
        <time>2015-12-05T10:05:21Z</time>
      </trkpt>
      <trkpt lat="45.32219" lon="0.41781">
        <ele>201</ele>
        <time>2015-12-05T10:05:26Z</time>
      </trkpt>
      <trkpt lat="45.32214" lon="0.41784">
        <ele>201</ele>
        <time>2015-12-05T10:05:31Z</time>
      </trkpt>
      <trkpt lat="45.3221" lon="0.41786">
        <ele>202</ele>
        <time>2015-12-05T10:05:35Z</time>
      </trkpt>
      <trkpt lat="45.32205" lon="0.41789">
        <ele>203</ele>
        <time>2015-12-05T10:05:40Z</time>
      </trkpt>
      <trkpt lat="45.32201" lon="0.41791">
        <ele>202</ele>
        <time>2015-12-05T10:05:44Z</time>
      </trkpt>
      <trkpt lat="45.32198" lon="0.41795">
        <ele>202</ele>
        <time>2015-12-05T10:05:48Z</time>
      </trkpt>
      <trkpt lat="45.32194" lon="0.41797">
        <ele>200</ele>
        <time>2015-12-05T10:05:54Z</time>
      </trkpt>
      <trkpt lat="45.32191" lon="0.418">
        <ele>200</ele>
        <time>2015-12-05T10:05:58Z</time>
      </trkpt>
      <trkpt lat="45.32188" lon="0.41806">
        <ele>201</ele>
        <time>2015-12-05T10:06:03Z</time>
      </trkpt>
      <trkpt lat="45.32186" lon="0.41812">
        <ele>201</ele>
        <time>2015-12-05T10:06:07Z</time>
      </trkpt>
      <trkpt lat="45.32182" lon="0.41816">
        <ele>202</ele>
        <time>2015-12-05T10:06:11Z</time>
      </trkpt>
      <trkpt lat="45.3218" lon="0.41822">
        <ele>202</ele>
        <time>2015-12-05T10:06:16Z</time>
      </trkpt>
      <trkpt lat="45.32175" lon="0.41826">
        <ele>201</ele>
        <time>2015-12-05T10:06:20Z</time>
      </trkpt>
      <trkpt lat="45.32171" lon="0.41828">
        <ele>200</ele>
        <time>2015-12-05T10:06:24Z</time>
      </trkpt>
      <trkpt lat="45.32166" lon="0.4183">
        <ele>201</ele>
        <time>2015-12-05T10:06:28Z</time>
      </trkpt>
      <trkpt lat="45.32162" lon="0.41832">
        <ele>202</ele>
        <time>2015-12-05T10:06:32Z</time>
      </trkpt>
      <trkpt lat="45.32158" lon="0.41836">
        <ele>201</ele>
        <time>2015-12-05T10:06:36Z</time>
      </trkpt>
      <trkpt lat="45.32153" lon="0.41839">
        <ele>201</ele>
        <time>2015-12-05T10:06:40Z</time>
      </trkpt>
      <trkpt lat="45.32149" lon="0.41842">
        <ele>201</ele>
        <time>2015-12-05T10:06:45Z</time>
      </trkpt>
      <trkpt lat="45.32143" lon="0.41842">
        <ele>201</ele>
        <time>2015-12-05T10:06:50Z</time>
      </trkpt>
      <trkpt lat="45.32138" lon="0.41842">
        <ele>202</ele>
        <time>2015-12-05T10:06:54Z</time>
      </trkpt>
      <trkpt lat="45.32133" lon="0.41847">
        <ele>202</ele>
        <time>2015-12-05T10:06:59Z</time>
      </trkpt>
      <trkpt lat="45.3213" lon="0.41846">
        <ele>201</ele>
        <time>2015-12-05T10:07:03Z</time>
      </trkpt>
      <trkpt lat="45.32127" lon="0.41848">
        <ele>198</ele>
        <time>2015-12-05T10:07:07Z</time>
      </trkpt>
      <trkpt lat="45.3212" lon="0.41849">
        <ele>200</ele>
        <time>2015-12-05T10:07:11Z</time>
      </trkpt>
      <trkpt lat="45.32115" lon="0.41851">
        <ele>200</ele>
        <time>2015-12-05T10:07:16Z</time>
      </trkpt>
      <trkpt lat="45.32111" lon="0.4185">
        <ele>199</ele>
        <time>2015-12-05T10:07:20Z</time>
      </trkpt>
      <trkpt lat="45.32107" lon="0.41851">
        <ele>199</ele>
        <time>2015-12-05T10:07:24Z</time>
      </trkpt>
      <trkpt lat="45.32103" lon="0.4185">
        <ele>200</ele>
        <time>2015-12-05T10:07:30Z</time>
      </trkpt>
      <trkpt lat="45.32099" lon="0.41853">
        <ele>199</ele>
        <time>2015-12-05T10:07:34Z</time>
      </trkpt>
      <trkpt lat="45.32092" lon="0.41853">
        <ele>198</ele>
        <time>2015-12-05T10:07:38Z</time>
      </trkpt>
      <trkpt lat="45.32088" lon="0.41857">
        <ele>196</ele>
        <time>2015-12-05T10:07:42Z</time>
      </trkpt>
      <trkpt lat="45.32086" lon="0.41861">
        <ele>197</ele>
        <time>2015-12-05T10:07:47Z</time>
      </trkpt>
      <trkpt lat="45.32085" lon="0.41867">
        <ele>197</ele>
        <time>2015-12-05T10:07:53Z</time>
      </trkpt>
      <trkpt lat="45.32086" lon="0.41872">
        <ele>198</ele>
        <time>2015-12-05T10:07:58Z</time>
      </trkpt>
      <trkpt lat="45.32087" lon="0.41878">
        <ele>199</ele>
        <time>2015-12-05T10:08:03Z</time>
      </trkpt>
      <trkpt lat="45.32088" lon="0.41883">
        <ele>200</ele>
        <time>2015-12-05T10:08:07Z</time>
      </trkpt>
      <trkpt lat="45.3209" lon="0.41889">
        <ele>203</ele>
        <time>2015-12-05T10:08:12Z</time>
      </trkpt>
      <trkpt lat="45.32091" lon="0.41894">
        <ele>198</ele>
        <time>2015-12-05T10:08:20Z</time>
      </trkpt>
      <trkpt lat="45.32093" lon="0.419">
        <ele>197</ele>
        <time>2015-12-05T10:08:26Z</time>
      </trkpt>
      <trkpt lat="45.32095" lon="0.41905">
        <ele>198</ele>
        <time>2015-12-05T10:08:32Z</time>
      </trkpt>
      <trkpt lat="45.32096" lon="0.41912">
        <ele>198</ele>
        <time>2015-12-05T10:08:37Z</time>
      </trkpt>
      <trkpt lat="45.32098" lon="0.41917">
        <ele>197</ele>
        <time>2015-12-05T10:08:44Z</time>
      </trkpt>
      <trkpt lat="45.32101" lon="0.41922">
        <ele>199</ele>
        <time>2015-12-05T10:08:49Z</time>
      </trkpt>
      <trkpt lat="45.32101" lon="0.41928">
        <ele>201</ele>
        <time>2015-12-05T10:08:54Z</time>
      </trkpt>
      <trkpt lat="45.32101" lon="0.41934">
        <ele>203</ele>
        <time>2015-12-05T10:08:58Z</time>
      </trkpt>
      <trkpt lat="45.32102" lon="0.41939">
        <ele>205</ele>
        <time>2015-12-05T10:09:02Z</time>
      </trkpt>
      <trkpt lat="45.32103" lon="0.41945">
        <ele>204</ele>
        <time>2015-12-05T10:09:06Z</time>
      </trkpt>
      <trkpt lat="45.32105" lon="0.41953">
        <ele>204</ele>
        <time>2015-12-05T10:09:10Z</time>
      </trkpt>
      <trkpt lat="45.32107" lon="0.41963">
        <ele>203</ele>
        <time>2015-12-05T10:09:14Z</time>
      </trkpt>
      <trkpt lat="45.32108" lon="0.41973">
        <ele>202</ele>
        <time>2015-12-05T10:09:19Z</time>
      </trkpt>
      <trkpt lat="45.32108" lon="0.41981">
        <ele>203</ele>
        <time>2015-12-05T10:09:23Z</time>
      </trkpt>
      <trkpt lat="45.32106" lon="0.41988">
        <ele>201</ele>
        <time>2015-12-05T10:09:28Z</time>
      </trkpt>
      <trkpt lat="45.32106" lon="0.41997">
        <ele>201</ele>
        <time>2015-12-05T10:09:33Z</time>
      </trkpt>
      <trkpt lat="45.32105" lon="0.42005">
        <ele>200</ele>
        <time>2015-12-05T10:09:37Z</time>
      </trkpt>
      <trkpt lat="45.32105" lon="0.42012">
        <ele>201</ele>
        <time>2015-12-05T10:09:42Z</time>
      </trkpt>
      <trkpt lat="45.32105" lon="0.4202">
        <ele>201</ele>
        <time>2015-12-05T10:09:47Z</time>
      </trkpt>
      <trkpt lat="45.32104" lon="0.42025">
        <ele>200</ele>
        <time>2015-12-05T10:09:52Z</time>
      </trkpt>
      <trkpt lat="45.32105" lon="0.4203">
        <ele>201</ele>
        <time>2015-12-05T10:09:56Z</time>
      </trkpt>
      <trkpt lat="45.32106" lon="0.42036">
        <ele>200</ele>
        <time>2015-12-05T10:10:01Z</time>
      </trkpt>
      <trkpt lat="45.32108" lon="0.42042">
        <ele>200</ele>
        <time>2015-12-05T10:10:05Z</time>
      </trkpt>
      <trkpt lat="45.32109" lon="0.42048">
        <ele>200</ele>
        <time>2015-12-05T10:10:09Z</time>
      </trkpt>
      <trkpt lat="45.3211" lon="0.42054">
        <ele>201</ele>
        <time>2015-12-05T10:10:13Z</time>
      </trkpt>
      <trkpt lat="45.32113" lon="0.42061">
        <ele>203</ele>
        <time>2015-12-05T10:10:18Z</time>
      </trkpt>
      <trkpt lat="45.32116" lon="0.42068">
        <ele>204</ele>
        <time>2015-12-05T10:10:23Z</time>
      </trkpt>
      <trkpt lat="45.32117" lon="0.42077">
        <ele>204</ele>
        <time>2015-12-05T10:10:28Z</time>
      </trkpt>
      <trkpt lat="45.32118" lon="0.42083">
        <ele>204</ele>
        <time>2015-12-05T10:10:32Z</time>
      </trkpt>
      <trkpt lat="45.32117" lon="0.42089">
        <ele>203</ele>
        <time>2015-12-05T10:10:37Z</time>
      </trkpt>
      <trkpt lat="45.32115" lon="0.42095">
        <ele>202</ele>
        <time>2015-12-05T10:10:42Z</time>
      </trkpt>
      <trkpt lat="45.32113" lon="0.42101">
        <ele>202</ele>
        <time>2015-12-05T10:10:46Z</time>
      </trkpt>
      <trkpt lat="45.3211" lon="0.42106">
        <ele>202</ele>
        <time>2015-12-05T10:10:50Z</time>
      </trkpt>
      <trkpt lat="45.32107" lon="0.42108">
        <ele>201</ele>
        <time>2015-12-05T10:10:54Z</time>
      </trkpt>
      <trkpt lat="45.32104" lon="0.42111">
        <ele>202</ele>
        <time>2015-12-05T10:10:58Z</time>
      </trkpt>
      <trkpt lat="45.32101" lon="0.42117">
        <ele>200</ele>
        <time>2015-12-05T10:11:02Z</time>
      </trkpt>
      <trkpt lat="45.32096" lon="0.4212">
        <ele>200</ele>
        <time>2015-12-05T10:11:07Z</time>
      </trkpt>
      <trkpt lat="45.32093" lon="0.42126">
        <ele>200</ele>
        <time>2015-12-05T10:11:11Z</time>
      </trkpt>
      <trkpt lat="45.32089" lon="0.42128">
        <ele>200</ele>
        <time>2015-12-05T10:11:15Z</time>
      </trkpt>
      <trkpt lat="45.32083" lon="0.42132">
        <ele>200</ele>
        <time>2015-12-05T10:11:20Z</time>
      </trkpt>
      <trkpt lat="45.32078" lon="0.42135">
        <ele>199</ele>
        <time>2015-12-05T10:11:25Z</time>
      </trkpt>
      <trkpt lat="45.32074" lon="0.42137">
        <ele>200</ele>
        <time>2015-12-05T10:11:29Z</time>
      </trkpt>
      <trkpt lat="45.3207" lon="0.42139">
        <ele>200</ele>
        <time>2015-12-05T10:11:33Z</time>
      </trkpt>
      <trkpt lat="45.32065" lon="0.42144">
        <ele>200</ele>
        <time>2015-12-05T10:11:38Z</time>
      </trkpt>
      <trkpt lat="45.3206" lon="0.42147">
        <ele>200</ele>
        <time>2015-12-05T10:11:43Z</time>
      </trkpt>
      <trkpt lat="45.32054" lon="0.42151">
        <ele>199</ele>
        <time>2015-12-05T10:11:47Z</time>
      </trkpt>
      <trkpt lat="45.32049" lon="0.4215">
        <ele>199</ele>
        <time>2015-12-05T10:11:51Z</time>
      </trkpt>
      <trkpt lat="45.32045" lon="0.42152">
        <ele>199</ele>
        <time>2015-12-05T10:11:56Z</time>
      </trkpt>
      <trkpt lat="45.32041" lon="0.42157">
        <ele>198</ele>
        <time>2015-12-05T10:12:01Z</time>
      </trkpt>
      <trkpt lat="45.32038" lon="0.42164">
        <ele>198</ele>
        <time>2015-12-05T10:12:05Z</time>
      </trkpt>
      <trkpt lat="45.32033" lon="0.42167">
        <ele>199</ele>
        <time>2015-12-05T10:12:10Z</time>
      </trkpt>
      <trkpt lat="45.32027" lon="0.42172">
        <ele>195</ele>
        <time>2015-12-05T10:12:14Z</time>
      </trkpt>
      <trkpt lat="45.32024" lon="0.42176">
        <ele>196</ele>
        <time>2015-12-05T10:12:18Z</time>
      </trkpt>
      <trkpt lat="45.3202" lon="0.42179">
        <ele>195</ele>
        <time>2015-12-05T10:12:22Z</time>
      </trkpt>
      <trkpt lat="45.32017" lon="0.42185">
        <ele>195</ele>
        <time>2015-12-05T10:12:26Z</time>
      </trkpt>
      <trkpt lat="45.32014" lon="0.4219">
        <ele>194</ele>
        <time>2015-12-05T10:12:30Z</time>
      </trkpt>
      <trkpt lat="45.32007" lon="0.42192">
        <ele>193</ele>
        <time>2015-12-05T10:12:35Z</time>
      </trkpt>
      <trkpt lat="45.32004" lon="0.42196">
        <ele>192</ele>
        <time>2015-12-05T10:12:39Z</time>
      </trkpt>
      <trkpt lat="45.32001" lon="0.422">
        <ele>192</ele>
        <time>2015-12-05T10:12:43Z</time>
      </trkpt>
      <trkpt lat="45.31999" lon="0.42206">
        <ele>193</ele>
        <time>2015-12-05T10:12:47Z</time>
      </trkpt>
      <trkpt lat="45.31996" lon="0.42214">
        <ele>193</ele>
        <time>2015-12-05T10:12:52Z</time>
      </trkpt>
      <trkpt lat="45.31993" lon="0.42218">
        <ele>193</ele>
        <time>2015-12-05T10:12:56Z</time>
      </trkpt>
      <trkpt lat="45.31992" lon="0.42228">
        <ele>195</ele>
        <time>2015-12-05T10:13:01Z</time>
      </trkpt>
      <trkpt lat="45.31987" lon="0.42234">
        <ele>195</ele>
        <time>2015-12-05T10:13:05Z</time>
      </trkpt>
      <trkpt lat="45.31985" lon="0.42238">
        <ele>196</ele>
        <time>2015-12-05T10:13:10Z</time>
      </trkpt>
      <trkpt lat="45.3198" lon="0.42244">
        <ele>198</ele>
        <time>2015-12-05T10:13:15Z</time>
      </trkpt>
      <trkpt lat="45.31975" lon="0.42249">
        <ele>198</ele>
        <time>2015-12-05T10:13:20Z</time>
      </trkpt>
      <trkpt lat="45.3197" lon="0.42253">
        <ele>199</ele>
        <time>2015-12-05T10:13:24Z</time>
      </trkpt>
      <trkpt lat="45.31968" lon="0.42256">
        <ele>199</ele>
        <time>2015-12-05T10:13:28Z</time>
      </trkpt>
      <trkpt lat="45.31964" lon="0.42262">
        <ele>197</ele>
        <time>2015-12-05T10:13:33Z</time>
      </trkpt>
      <trkpt lat="45.3196" lon="0.42266">
        <ele>198</ele>
        <time>2015-12-05T10:13:37Z</time>
      </trkpt>
      <trkpt lat="45.31957" lon="0.42271">
        <ele>199</ele>
        <time>2015-12-05T10:13:42Z</time>
      </trkpt>
      <trkpt lat="45.31953" lon="0.42274">
        <ele>199</ele>
        <time>2015-12-05T10:13:46Z</time>
      </trkpt>
      <trkpt lat="45.31948" lon="0.42279">
        <ele>200</ele>
        <time>2015-12-05T10:13:51Z</time>
      </trkpt>
      <trkpt lat="45.31943" lon="0.42282">
        <ele>200</ele>
        <time>2015-12-05T10:13:55Z</time>
      </trkpt>
      <trkpt lat="45.3194" lon="0.42286">
        <ele>200</ele>
        <time>2015-12-05T10:13:59Z</time>
      </trkpt>
      <trkpt lat="45.31936" lon="0.42291">
        <ele>200</ele>
        <time>2015-12-05T10:14:04Z</time>
      </trkpt>
      <trkpt lat="45.31932" lon="0.42296">
        <ele>199</ele>
        <time>2015-12-05T10:14:09Z</time>
      </trkpt>
      <trkpt lat="45.31927" lon="0.42301">
        <ele>198</ele>
        <time>2015-12-05T10:14:14Z</time>
      </trkpt>
      <trkpt lat="45.31923" lon="0.42305">
        <ele>198</ele>
        <time>2015-12-05T10:14:18Z</time>
      </trkpt>
      <trkpt lat="45.31918" lon="0.42308">
        <ele>198</ele>
        <time>2015-12-05T10:14:22Z</time>
      </trkpt>
      <trkpt lat="45.31912" lon="0.42309">
        <ele>198</ele>
        <time>2015-12-05T10:14:27Z</time>
      </trkpt>
      <trkpt lat="45.31908" lon="0.42313">
        <ele>196</ele>
        <time>2015-12-05T10:14:31Z</time>
      </trkpt>
      <trkpt lat="45.31902" lon="0.42317">
        <ele>197</ele>
        <time>2015-12-05T10:14:36Z</time>
      </trkpt>
      <trkpt lat="45.31898" lon="0.42322">
        <ele>196</ele>
        <time>2015-12-05T10:14:41Z</time>
      </trkpt>
      <trkpt lat="45.31893" lon="0.42325">
        <ele>195</ele>
        <time>2015-12-05T10:14:45Z</time>
      </trkpt>
      <trkpt lat="45.31887" lon="0.42328">
        <ele>195</ele>
        <time>2015-12-05T10:14:50Z</time>
      </trkpt>
      <trkpt lat="45.31884" lon="0.42332">
        <ele>194</ele>
        <time>2015-12-05T10:14:54Z</time>
      </trkpt>
      <trkpt lat="45.31879" lon="0.42333">
        <ele>195</ele>
        <time>2015-12-05T10:14:58Z</time>
      </trkpt>
      <trkpt lat="45.31873" lon="0.42335">
        <ele>194</ele>
        <time>2015-12-05T10:15:02Z</time>
      </trkpt>
      <trkpt lat="45.31866" lon="0.42337">
        <ele>194</ele>
        <time>2015-12-05T10:15:07Z</time>
      </trkpt>
      <trkpt lat="45.31861" lon="0.42339">
        <ele>193</ele>
        <time>2015-12-05T10:15:11Z</time>
      </trkpt>
      <trkpt lat="45.31857" lon="0.42341">
        <ele>192</ele>
        <time>2015-12-05T10:15:15Z</time>
      </trkpt>
      <trkpt lat="45.31852" lon="0.42343">
        <ele>192</ele>
        <time>2015-12-05T10:15:19Z</time>
      </trkpt>
      <trkpt lat="45.31846" lon="0.42347">
        <ele>192</ele>
        <time>2015-12-05T10:15:24Z</time>
      </trkpt>
      <trkpt lat="45.31841" lon="0.42349">
        <ele>191</ele>
        <time>2015-12-05T10:15:29Z</time>
      </trkpt>
      <trkpt lat="45.31836" lon="0.42351">
        <ele>190</ele>
        <time>2015-12-05T10:15:33Z</time>
      </trkpt>
      <trkpt lat="45.31832" lon="0.42355">
        <ele>190</ele>
        <time>2015-12-05T10:15:38Z</time>
      </trkpt>
      <trkpt lat="45.31828" lon="0.42358">
        <ele>189</ele>
        <time>2015-12-05T10:15:42Z</time>
      </trkpt>
      <trkpt lat="45.31821" lon="0.4236">
        <ele>188</ele>
        <time>2015-12-05T10:15:47Z</time>
      </trkpt>
      <trkpt lat="45.31817" lon="0.42362">
        <ele>188</ele>
        <time>2015-12-05T10:15:51Z</time>
      </trkpt>
      <trkpt lat="45.31812" lon="0.42363">
        <ele>188</ele>
        <time>2015-12-05T10:15:55Z</time>
      </trkpt>
      <trkpt lat="45.31806" lon="0.42366">
        <ele>188</ele>
        <time>2015-12-05T10:16:00Z</time>
      </trkpt>
      <trkpt lat="45.31802" lon="0.42369">
        <ele>187</ele>
        <time>2015-12-05T10:16:04Z</time>
      </trkpt>
      <trkpt lat="45.31799" lon="0.42374">
        <ele>186</ele>
        <time>2015-12-05T10:16:08Z</time>
      </trkpt>
      <trkpt lat="45.31794" lon="0.42377">
        <ele>187</ele>
        <time>2015-12-05T10:16:12Z</time>
      </trkpt>
      <trkpt lat="45.31789" lon="0.42381">
        <ele>186</ele>
        <time>2015-12-05T10:16:17Z</time>
      </trkpt>
      <trkpt lat="45.31785" lon="0.42388">
        <ele>186</ele>
        <time>2015-12-05T10:16:22Z</time>
      </trkpt>
      <trkpt lat="45.31781" lon="0.42391">
        <ele>185</ele>
        <time>2015-12-05T10:16:26Z</time>
      </trkpt>
      <trkpt lat="45.31776" lon="0.42397">
        <ele>186</ele>
        <time>2015-12-05T10:16:31Z</time>
      </trkpt>
      <trkpt lat="45.31772" lon="0.42399">
        <ele>186</ele>
        <time>2015-12-05T10:16:35Z</time>
      </trkpt>
      <trkpt lat="45.31766" lon="0.42401">
        <ele>186</ele>
        <time>2015-12-05T10:16:40Z</time>
      </trkpt>
      <trkpt lat="45.31762" lon="0.42404">
        <ele>185</ele>
        <time>2015-12-05T10:16:44Z</time>
      </trkpt>
      <trkpt lat="45.31757" lon="0.42408">
        <ele>185</ele>
        <time>2015-12-05T10:16:49Z</time>
      </trkpt>
      <trkpt lat="45.31753" lon="0.42413">
        <ele>185</ele>
        <time>2015-12-05T10:16:53Z</time>
      </trkpt>
      <trkpt lat="45.3175" lon="0.42416">
        <ele>186</ele>
        <time>2015-12-05T10:16:57Z</time>
      </trkpt>
      <trkpt lat="45.31746" lon="0.42421">
        <ele>185</ele>
        <time>2015-12-05T10:17:01Z</time>
      </trkpt>
      <trkpt lat="45.31742" lon="0.42425">
        <ele>185</ele>
        <time>2015-12-05T10:17:06Z</time>
      </trkpt>
      <trkpt lat="45.31739" lon="0.42428">
        <ele>186</ele>
        <time>2015-12-05T10:17:10Z</time>
      </trkpt>
      <trkpt lat="45.31732" lon="0.42432">
        <ele>185</ele>
        <time>2015-12-05T10:17:15Z</time>
      </trkpt>
      <trkpt lat="45.31729" lon="0.42437">
        <ele>185</ele>
        <time>2015-12-05T10:17:20Z</time>
      </trkpt>
      <trkpt lat="45.31729" lon="0.42441">
        <ele>187</ele>
        <time>2015-12-05T10:17:50Z</time>
      </trkpt>
      <trkpt lat="45.31723" lon="0.42447">
        <ele>185</ele>
        <time>2015-12-05T10:17:54Z</time>
      </trkpt>
      <trkpt lat="45.31718" lon="0.42453">
        <ele>185</ele>
        <time>2015-12-05T10:17:59Z</time>
      </trkpt>
      <trkpt lat="45.31713" lon="0.42457">
        <ele>185</ele>
        <time>2015-12-05T10:18:04Z</time>
      </trkpt>
      <trkpt lat="45.31708" lon="0.42461">
        <ele>185</ele>
        <time>2015-12-05T10:18:08Z</time>
      </trkpt>
      <trkpt lat="45.317" lon="0.42463">
        <ele>188</ele>
        <time>2015-12-05T10:18:13Z</time>
      </trkpt>
      <trkpt lat="45.31696" lon="0.42467">
        <ele>189</ele>
        <time>2015-12-05T10:18:17Z</time>
      </trkpt>
      <trkpt lat="45.3169" lon="0.42471">
        <ele>188</ele>
        <time>2015-12-05T10:18:22Z</time>
      </trkpt>
      <trkpt lat="45.31685" lon="0.42474">
        <ele>188</ele>
        <time>2015-12-05T10:18:26Z</time>
      </trkpt>
      <trkpt lat="45.3168" lon="0.42477">
        <ele>188</ele>
        <time>2015-12-05T10:18:30Z</time>
      </trkpt>
      <trkpt lat="45.31674" lon="0.42481">
        <ele>187</ele>
        <time>2015-12-05T10:18:35Z</time>
      </trkpt>
      <trkpt lat="45.31668" lon="0.42483">
        <ele>188</ele>
        <time>2015-12-05T10:18:39Z</time>
      </trkpt>
      <trkpt lat="45.31663" lon="0.42485">
        <ele>189</ele>
        <time>2015-12-05T10:18:43Z</time>
      </trkpt>
      <trkpt lat="45.31656" lon="0.42485">
        <ele>191</ele>
        <time>2015-12-05T10:18:48Z</time>
      </trkpt>
      <trkpt lat="45.31651" lon="0.42486">
        <ele>189</ele>
        <time>2015-12-05T10:18:52Z</time>
      </trkpt>
      <trkpt lat="45.31642" lon="0.42488">
        <ele>188</ele>
        <time>2015-12-05T10:18:57Z</time>
      </trkpt>
      <trkpt lat="45.31637" lon="0.42492">
        <ele>186</ele>
        <time>2015-12-05T10:19:02Z</time>
      </trkpt>
      <trkpt lat="45.31632" lon="0.42498">
        <ele>184</ele>
        <time>2015-12-05T10:19:06Z</time>
      </trkpt>
      <trkpt lat="45.31626" lon="0.42503">
        <ele>182</ele>
        <time>2015-12-05T10:19:11Z</time>
      </trkpt>
      <trkpt lat="45.3162" lon="0.42506">
        <ele>182</ele>
        <time>2015-12-05T10:19:16Z</time>
      </trkpt>
      <trkpt lat="45.31614" lon="0.42508">
        <ele>182</ele>
        <time>2015-12-05T10:19:20Z</time>
      </trkpt>
      <trkpt lat="45.31609" lon="0.42509">
        <ele>182</ele>
        <time>2015-12-05T10:19:24Z</time>
      </trkpt>
      <trkpt lat="45.31604" lon="0.42511">
        <ele>182</ele>
        <time>2015-12-05T10:19:28Z</time>
      </trkpt>
      <trkpt lat="45.31599" lon="0.42513">
        <ele>182</ele>
        <time>2015-12-05T10:19:32Z</time>
      </trkpt>
      <trkpt lat="45.31594" lon="0.42514">
        <ele>183</ele>
        <time>2015-12-05T10:19:36Z</time>
      </trkpt>
      <trkpt lat="45.31587" lon="0.42515">
        <ele>184</ele>
        <time>2015-12-05T10:19:41Z</time>
      </trkpt>
      <trkpt lat="45.31581" lon="0.42517">
        <ele>184</ele>
        <time>2015-12-05T10:19:46Z</time>
      </trkpt>
      <trkpt lat="45.31576" lon="0.42518">
        <ele>184</ele>
        <time>2015-12-05T10:19:50Z</time>
      </trkpt>
      <trkpt lat="45.31569" lon="0.42519">
        <ele>184</ele>
        <time>2015-12-05T10:19:54Z</time>
      </trkpt>
      <trkpt lat="45.31564" lon="0.42521">
        <ele>182</ele>
        <time>2015-12-05T10:19:59Z</time>
      </trkpt>
      <trkpt lat="45.3156" lon="0.42519">
        <ele>182</ele>
        <time>2015-12-05T10:20:05Z</time>
      </trkpt>
      <trkpt lat="45.31554" lon="0.42519">
        <ele>180</ele>
        <time>2015-12-05T10:20:09Z</time>
      </trkpt>
      <trkpt lat="45.31547" lon="0.42517">
        <ele>179</ele>
        <time>2015-12-05T10:20:13Z</time>
      </trkpt>
      <trkpt lat="45.31541" lon="0.42517">
        <ele>179</ele>
        <time>2015-12-05T10:20:17Z</time>
      </trkpt>
      <trkpt lat="45.31537" lon="0.42518">
        <ele>179</ele>
        <time>2015-12-05T10:20:21Z</time>
      </trkpt>
      <trkpt lat="45.31532" lon="0.42518">
        <ele>178</ele>
        <time>2015-12-05T10:20:26Z</time>
      </trkpt>
      <trkpt lat="45.31526" lon="0.42519">
        <ele>179</ele>
        <time>2015-12-05T10:20:31Z</time>
      </trkpt>
      <trkpt lat="45.31522" lon="0.42518">
        <ele>181</ele>
        <time>2015-12-05T10:20:36Z</time>
      </trkpt>
      <trkpt lat="45.31518" lon="0.42517">
        <ele>181</ele>
        <time>2015-12-05T10:20:40Z</time>
      </trkpt>
      <trkpt lat="45.31511" lon="0.42518">
        <ele>181</ele>
        <time>2015-12-05T10:20:45Z</time>
      </trkpt>
      <trkpt lat="45.31504" lon="0.42517">
        <ele>180</ele>
        <time>2015-12-05T10:20:49Z</time>
      </trkpt>
      <trkpt lat="45.31496" lon="0.42517">
        <ele>179</ele>
        <time>2015-12-05T10:20:54Z</time>
      </trkpt>
      <trkpt lat="45.31488" lon="0.42517">
        <ele>178</ele>
        <time>2015-12-05T10:20:59Z</time>
      </trkpt>
      <trkpt lat="45.31483" lon="0.42515">
        <ele>179</ele>
        <time>2015-12-05T10:21:03Z</time>
      </trkpt>
      <trkpt lat="45.31476" lon="0.42515">
        <ele>178</ele>
        <time>2015-12-05T10:21:08Z</time>
      </trkpt>
      <trkpt lat="45.31471" lon="0.42514">
        <ele>177</ele>
        <time>2015-12-05T10:21:12Z</time>
      </trkpt>
      <trkpt lat="45.31466" lon="0.42514">
        <ele>176</ele>
        <time>2015-12-05T10:21:16Z</time>
      </trkpt>
      <trkpt lat="45.31459" lon="0.42517">
        <ele>173</ele>
        <time>2015-12-05T10:21:21Z</time>
      </trkpt>
      <trkpt lat="45.31455" lon="0.42518">
        <ele>173</ele>
        <time>2015-12-05T10:21:26Z</time>
      </trkpt>
      <trkpt lat="45.31448" lon="0.42518">
        <ele>172</ele>
        <time>2015-12-05T10:21:31Z</time>
      </trkpt>
      <trkpt lat="45.31443" lon="0.42519">
        <ele>171</ele>
        <time>2015-12-05T10:21:35Z</time>
      </trkpt>
      <trkpt lat="45.31438" lon="0.42521">
        <ele>168</ele>
        <time>2015-12-05T10:21:39Z</time>
      </trkpt>
      <trkpt lat="45.31432" lon="0.42522">
        <ele>168</ele>
        <time>2015-12-05T10:21:44Z</time>
      </trkpt>
      <trkpt lat="45.31426" lon="0.42521">
        <ele>167</ele>
        <time>2015-12-05T10:21:48Z</time>
      </trkpt>
      <trkpt lat="45.31419" lon="0.42523">
        <ele>167</ele>
        <time>2015-12-05T10:21:53Z</time>
      </trkpt>
      <trkpt lat="45.31414" lon="0.42524">
        <ele>167</ele>
        <time>2015-12-05T10:21:57Z</time>
      </trkpt>
      <trkpt lat="45.31407" lon="0.42525">
        <ele>165</ele>
        <time>2015-12-05T10:22:01Z</time>
      </trkpt>
      <trkpt lat="45.31401" lon="0.42523">
        <ele>163</ele>
        <time>2015-12-05T10:22:06Z</time>
      </trkpt>
      <trkpt lat="45.31393" lon="0.42522">
        <ele>163</ele>
        <time>2015-12-05T10:22:11Z</time>
      </trkpt>
      <trkpt lat="45.31389" lon="0.42522">
        <ele>164</ele>
        <time>2015-12-05T10:22:15Z</time>
      </trkpt>
      <trkpt lat="45.3138" lon="0.42522">
        <ele>163</ele>
        <time>2015-12-05T10:22:20Z</time>
      </trkpt>
      <trkpt lat="45.31374" lon="0.42521">
        <ele>165</ele>
        <time>2015-12-05T10:22:24Z</time>
      </trkpt>
      <trkpt lat="45.31367" lon="0.42519">
        <ele>166</ele>
        <time>2015-12-05T10:22:29Z</time>
      </trkpt>
      <trkpt lat="45.31362" lon="0.42519">
        <ele>165</ele>
        <time>2015-12-05T10:22:33Z</time>
      </trkpt>
      <trkpt lat="45.31355" lon="0.42518">
        <ele>164</ele>
        <time>2015-12-05T10:22:38Z</time>
      </trkpt>
      <trkpt lat="45.3135" lon="0.42514">
        <ele>165</ele>
        <time>2015-12-05T10:22:42Z</time>
      </trkpt>
      <trkpt lat="45.31345" lon="0.42512">
        <ele>167</ele>
        <time>2015-12-05T10:22:46Z</time>
      </trkpt>
      <trkpt lat="45.31341" lon="0.4251">
        <ele>169</ele>
        <time>2015-12-05T10:22:50Z</time>
      </trkpt>
      <trkpt lat="45.31336" lon="0.42507">
        <ele>170</ele>
        <time>2015-12-05T10:22:55Z</time>
      </trkpt>
      <trkpt lat="45.31331" lon="0.42506">
        <ele>170</ele>
        <time>2015-12-05T10:22:59Z</time>
      </trkpt>
      <trkpt lat="45.31328" lon="0.42502">
        <ele>171</ele>
        <time>2015-12-05T10:23:04Z</time>
      </trkpt>
      <trkpt lat="45.31323" lon="0.42501">
        <ele>173</ele>
        <time>2015-12-05T10:23:09Z</time>
      </trkpt>
      <trkpt lat="45.31319" lon="0.42501">
        <ele>173</ele>
        <time>2015-12-05T10:23:18Z</time>
      </trkpt>
      <trkpt lat="45.31315" lon="0.42503">
        <ele>172</ele>
        <time>2015-12-05T10:24:38Z</time>
      </trkpt>
      <trkpt lat="45.31309" lon="0.42502">
        <ele>170</ele>
        <time>2015-12-05T10:24:42Z</time>
      </trkpt>
      <trkpt lat="45.31307" lon="0.42507">
        <ele>169</ele>
        <time>2015-12-05T10:24:47Z</time>
      </trkpt>
      <trkpt lat="45.31307" lon="0.42515">
        <ele>169</ele>
        <time>2015-12-05T10:24:52Z</time>
      </trkpt>
      <trkpt lat="45.31309" lon="0.4252">
        <ele>170</ele>
        <time>2015-12-05T10:24:57Z</time>
      </trkpt>
      <trkpt lat="45.31311" lon="0.42527">
        <ele>169</ele>
        <time>2015-12-05T10:25:01Z</time>
      </trkpt>
      <trkpt lat="45.31314" lon="0.42531">
        <ele>168</ele>
        <time>2015-12-05T10:25:05Z</time>
      </trkpt>
      <trkpt lat="45.31316" lon="0.42537">
        <ele>166</ele>
        <time>2015-12-05T10:25:09Z</time>
      </trkpt>
      <trkpt lat="45.31317" lon="0.42544">
        <ele>165</ele>
        <time>2015-12-05T10:25:13Z</time>
      </trkpt>
      <trkpt lat="45.31319" lon="0.42549">
        <ele>167</ele>
        <time>2015-12-05T10:25:18Z</time>
      </trkpt>
      <trkpt lat="45.3132" lon="0.42556">
        <ele>168</ele>
        <time>2015-12-05T10:25:23Z</time>
      </trkpt>
      <trkpt lat="45.31321" lon="0.42563">
        <ele>168</ele>
        <time>2015-12-05T10:25:27Z</time>
      </trkpt>
      <trkpt lat="45.31323" lon="0.42571">
        <ele>167</ele>
        <time>2015-12-05T10:25:31Z</time>
      </trkpt>
      <trkpt lat="45.31324" lon="0.42575">
        <ele>169</ele>
        <time>2015-12-05T10:25:36Z</time>
      </trkpt>
      <trkpt lat="45.31328" lon="0.4258">
        <ele>169</ele>
        <time>2015-12-05T10:25:41Z</time>
      </trkpt>
      <trkpt lat="45.3133" lon="0.42587">
        <ele>167</ele>
        <time>2015-12-05T10:25:45Z</time>
      </trkpt>
      <trkpt lat="45.31333" lon="0.42595">
        <ele>166</ele>
        <time>2015-12-05T10:25:49Z</time>
      </trkpt>
      <trkpt lat="45.31337" lon="0.42601">
        <ele>164</ele>
        <time>2015-12-05T10:25:53Z</time>
      </trkpt>
      <trkpt lat="45.31338" lon="0.42607">
        <ele>164</ele>
        <time>2015-12-05T10:25:58Z</time>
      </trkpt>
      <trkpt lat="45.31339" lon="0.42614">
        <ele>164</ele>
        <time>2015-12-05T10:26:02Z</time>
      </trkpt>
      <trkpt lat="45.31341" lon="0.42619">
        <ele>163</ele>
        <time>2015-12-05T10:26:07Z</time>
      </trkpt>
      <trkpt lat="45.31343" lon="0.42625">
        <ele>164</ele>
        <time>2015-12-05T10:26:11Z</time>
      </trkpt>
      <trkpt lat="45.31347" lon="0.42633">
        <ele>164</ele>
        <time>2015-12-05T10:26:16Z</time>
      </trkpt>
      <trkpt lat="45.31348" lon="0.42638">
        <ele>162</ele>
        <time>2015-12-05T10:26:21Z</time>
      </trkpt>
      <trkpt lat="45.31349" lon="0.42646">
        <ele>161</ele>
        <time>2015-12-05T10:26:25Z</time>
      </trkpt>
      <trkpt lat="45.31351" lon="0.4265">
        <ele>161</ele>
        <time>2015-12-05T10:26:29Z</time>
      </trkpt>
      <trkpt lat="45.31353" lon="0.42659">
        <ele>161</ele>
        <time>2015-12-05T10:26:34Z</time>
      </trkpt>
      <trkpt lat="45.31355" lon="0.42668">
        <ele>162</ele>
        <time>2015-12-05T10:26:39Z</time>
      </trkpt>
      <trkpt lat="45.31355" lon="0.42673">
        <ele>161</ele>
        <time>2015-12-05T10:26:44Z</time>
      </trkpt>
      <trkpt lat="45.31355" lon="0.42678">
        <ele>160</ele>
        <time>2015-12-05T10:26:48Z</time>
      </trkpt>
      <trkpt lat="45.31356" lon="0.42684">
        <ele>159</ele>
        <time>2015-12-05T10:26:52Z</time>
      </trkpt>
      <trkpt lat="45.31357" lon="0.42691">
        <ele>157</ele>
        <time>2015-12-05T10:26:56Z</time>
      </trkpt>
      <trkpt lat="45.31356" lon="0.42697">
        <ele>157</ele>
        <time>2015-12-05T10:27:00Z</time>
      </trkpt>
      <trkpt lat="45.31355" lon="0.42703">
        <ele>157</ele>
        <time>2015-12-05T10:27:05Z</time>
      </trkpt>
      <trkpt lat="45.31354" lon="0.42709">
        <ele>157</ele>
        <time>2015-12-05T10:27:10Z</time>
      </trkpt>
      <trkpt lat="45.31353" lon="0.42716">
        <ele>157</ele>
        <time>2015-12-05T10:27:14Z</time>
      </trkpt>
      <trkpt lat="45.31354" lon="0.42722">
        <ele>156</ele>
        <time>2015-12-05T10:27:18Z</time>
      </trkpt>
      <trkpt lat="45.31356" lon="0.42731">
        <ele>154</ele>
        <time>2015-12-05T10:27:23Z</time>
      </trkpt>
      <trkpt lat="45.31357" lon="0.42739">
        <ele>153</ele>
        <time>2015-12-05T10:27:27Z</time>
      </trkpt>
      <trkpt lat="45.31357" lon="0.42747">
        <ele>152</ele>
        <time>2015-12-05T10:27:31Z</time>
      </trkpt>
      <trkpt lat="45.31357" lon="0.42754">
        <ele>151</ele>
        <time>2015-12-05T10:27:36Z</time>
      </trkpt>
      <trkpt lat="45.31357" lon="0.42762">
        <ele>150</ele>
        <time>2015-12-05T10:27:40Z</time>
      </trkpt>
      <trkpt lat="45.31357" lon="0.4277">
        <ele>149</ele>
        <time>2015-12-05T10:27:44Z</time>
      </trkpt>
      <trkpt lat="45.31356" lon="0.42776">
        <ele>149</ele>
        <time>2015-12-05T10:27:48Z</time>
      </trkpt>
      <trkpt lat="45.31356" lon="0.42782">
        <ele>148</ele>
        <time>2015-12-05T10:27:52Z</time>
      </trkpt>
      <trkpt lat="45.31355" lon="0.42789">
        <ele>148</ele>
        <time>2015-12-05T10:27:57Z</time>
      </trkpt>
      <trkpt lat="45.31355" lon="0.42795">
        <ele>148</ele>
        <time>2015-12-05T10:28:01Z</time>
      </trkpt>
      <trkpt lat="45.31355" lon="0.42802">
        <ele>147</ele>
        <time>2015-12-05T10:28:05Z</time>
      </trkpt>
      <trkpt lat="45.31355" lon="0.4281">
        <ele>146</ele>
        <time>2015-12-05T10:28:09Z</time>
      </trkpt>
      <trkpt lat="45.31355" lon="0.4282">
        <ele>146</ele>
        <time>2015-12-05T10:28:14Z</time>
      </trkpt>
      <trkpt lat="45.31354" lon="0.42827">
        <ele>145</ele>
        <time>2015-12-05T10:28:19Z</time>
      </trkpt>
      <trkpt lat="45.31354" lon="0.42834">
        <ele>144</ele>
        <time>2015-12-05T10:28:23Z</time>
      </trkpt>
      <trkpt lat="45.31355" lon="0.42842">
        <ele>144</ele>
        <time>2015-12-05T10:28:27Z</time>
      </trkpt>
      <trkpt lat="45.31354" lon="0.42849">
        <ele>144</ele>
        <time>2015-12-05T10:28:31Z</time>
      </trkpt>
      <trkpt lat="45.31353" lon="0.42856">
        <ele>143</ele>
        <time>2015-12-05T10:28:35Z</time>
      </trkpt>
      <trkpt lat="45.31354" lon="0.42863">
        <ele>141</ele>
        <time>2015-12-05T10:28:39Z</time>
      </trkpt>
      <trkpt lat="45.31355" lon="0.42871">
        <ele>141</ele>
        <time>2015-12-05T10:28:43Z</time>
      </trkpt>
      <trkpt lat="45.31354" lon="0.42876">
        <ele>141</ele>
        <time>2015-12-05T10:28:47Z</time>
      </trkpt>
      <trkpt lat="45.31354" lon="0.42882">
        <ele>140</ele>
        <time>2015-12-05T10:28:51Z</time>
      </trkpt>
      <trkpt lat="45.31353" lon="0.42887">
        <ele>140</ele>
        <time>2015-12-05T10:28:55Z</time>
      </trkpt>
      <trkpt lat="45.31353" lon="0.42892">
        <ele>140</ele>
        <time>2015-12-05T10:28:59Z</time>
      </trkpt>
      <trkpt lat="45.31352" lon="0.42901">
        <ele>140</ele>
        <time>2015-12-05T10:29:04Z</time>
      </trkpt>
      <trkpt lat="45.31353" lon="0.42909">
        <ele>140</ele>
        <time>2015-12-05T10:29:09Z</time>
      </trkpt>
      <trkpt lat="45.31352" lon="0.42914">
        <ele>141</ele>
        <time>2015-12-05T10:29:13Z</time>
      </trkpt>
      <trkpt lat="45.31351" lon="0.42922">
        <ele>140</ele>
        <time>2015-12-05T10:29:18Z</time>
      </trkpt>
      <trkpt lat="45.3135" lon="0.42928">
        <ele>141</ele>
        <time>2015-12-05T10:29:22Z</time>
      </trkpt>
      <trkpt lat="45.31351" lon="0.42937">
        <ele>140</ele>
        <time>2015-12-05T10:29:26Z</time>
      </trkpt>
      <trkpt lat="45.3135" lon="0.42942">
        <ele>140</ele>
        <time>2015-12-05T10:29:30Z</time>
      </trkpt>
      <trkpt lat="45.31351" lon="0.42951">
        <ele>140</ele>
        <time>2015-12-05T10:29:34Z</time>
      </trkpt>
      <trkpt lat="45.3135" lon="0.42959">
        <ele>141</ele>
        <time>2015-12-05T10:29:39Z</time>
      </trkpt>
      <trkpt lat="45.3135" lon="0.42968">
        <ele>140</ele>
        <time>2015-12-05T10:29:43Z</time>
      </trkpt>
      <trkpt lat="45.31352" lon="0.42977">
        <ele>138</ele>
        <time>2015-12-05T10:29:48Z</time>
      </trkpt>
      <trkpt lat="45.31352" lon="0.42984">
        <ele>137</ele>
        <time>2015-12-05T10:29:52Z</time>
      </trkpt>
      <trkpt lat="45.31352" lon="0.42992">
        <ele>136</ele>
        <time>2015-12-05T10:29:57Z</time>
      </trkpt>
      <trkpt lat="45.3135" lon="0.42998">
        <ele>136</ele>
        <time>2015-12-05T10:30:01Z</time>
      </trkpt>
      <trkpt lat="45.3135" lon="0.43007">
        <ele>136</ele>
        <time>2015-12-05T10:30:06Z</time>
      </trkpt>
      <trkpt lat="45.3135" lon="0.43015">
        <ele>137</ele>
        <time>2015-12-05T10:30:11Z</time>
      </trkpt>
      <trkpt lat="45.3135" lon="0.43021">
        <ele>137</ele>
        <time>2015-12-05T10:30:15Z</time>
      </trkpt>
      <trkpt lat="45.31349" lon="0.43027">
        <ele>138</ele>
        <time>2015-12-05T10:30:19Z</time>
      </trkpt>
      <trkpt lat="45.31348" lon="0.43036">
        <ele>138</ele>
        <time>2015-12-05T10:30:24Z</time>
      </trkpt>
      <trkpt lat="45.31347" lon="0.43041">
        <ele>138</ele>
        <time>2015-12-05T10:30:28Z</time>
      </trkpt>
      <trkpt lat="45.31347" lon="0.43047">
        <ele>137</ele>
        <time>2015-12-05T10:30:32Z</time>
      </trkpt>
      <trkpt lat="45.31345" lon="0.43053">
        <ele>136</ele>
        <time>2015-12-05T10:30:37Z</time>
      </trkpt>
      <trkpt lat="45.31347" lon="0.43062">
        <ele>134</ele>
        <time>2015-12-05T10:30:42Z</time>
      </trkpt>
      <trkpt lat="45.31345" lon="0.43067">
        <ele>135</ele>
        <time>2015-12-05T10:30:46Z</time>
      </trkpt>
      <trkpt lat="45.31345" lon="0.43076">
        <ele>134</ele>
        <time>2015-12-05T10:30:51Z</time>
      </trkpt>
      <trkpt lat="45.31343" lon="0.43082">
        <ele>134</ele>
        <time>2015-12-05T10:30:55Z</time>
      </trkpt>
      <trkpt lat="45.31343" lon="0.43089">
        <ele>134</ele>
        <time>2015-12-05T10:30:59Z</time>
      </trkpt>
      <trkpt lat="45.31344" lon="0.43099">
        <ele>134</ele>
        <time>2015-12-05T10:31:04Z</time>
      </trkpt>
      <trkpt lat="45.31343" lon="0.43109">
        <ele>133</ele>
        <time>2015-12-05T10:31:09Z</time>
      </trkpt>
      <trkpt lat="45.31342" lon="0.43115">
        <ele>133</ele>
        <time>2015-12-05T10:31:13Z</time>
      </trkpt>
      <trkpt lat="45.31342" lon="0.43122">
        <ele>132</ele>
        <time>2015-12-05T10:31:17Z</time>
      </trkpt>
      <trkpt lat="45.3134" lon="0.43127">
        <ele>132</ele>
        <time>2015-12-05T10:31:22Z</time>
      </trkpt>
      <trkpt lat="45.31337" lon="0.43134">
        <ele>133</ele>
        <time>2015-12-05T10:31:27Z</time>
      </trkpt>
      <trkpt lat="45.31336" lon="0.4314">
        <ele>132</ele>
        <time>2015-12-05T10:31:31Z</time>
      </trkpt>
      <trkpt lat="45.31335" lon="0.43146">
        <ele>132</ele>
        <time>2015-12-05T10:31:37Z</time>
      </trkpt>
      <trkpt lat="45.31335" lon="0.43152">
        <ele>131</ele>
        <time>2015-12-05T10:31:41Z</time>
      </trkpt>
      <trkpt lat="45.31335" lon="0.43159">
        <ele>130</ele>
        <time>2015-12-05T10:31:46Z</time>
      </trkpt>
      <trkpt lat="45.31334" lon="0.43165">
        <ele>129</ele>
        <time>2015-12-05T10:31:50Z</time>
      </trkpt>
      <trkpt lat="45.31334" lon="0.43172">
        <ele>128</ele>
        <time>2015-12-05T10:31:54Z</time>
      </trkpt>
      <trkpt lat="45.31332" lon="0.43179">
        <ele>130</ele>
        <time>2015-12-05T10:31:59Z</time>
      </trkpt>
      <trkpt lat="45.31331" lon="0.43185">
        <ele>130</ele>
        <time>2015-12-05T10:32:03Z</time>
      </trkpt>
      <trkpt lat="45.31331" lon="0.43194">
        <ele>129</ele>
        <time>2015-12-05T10:32:08Z</time>
      </trkpt>
      <trkpt lat="45.31331" lon="0.43203">
        <ele>128</ele>
        <time>2015-12-05T10:32:13Z</time>
      </trkpt>
      <trkpt lat="45.31331" lon="0.43209">
        <ele>128</ele>
        <time>2015-12-05T10:32:18Z</time>
      </trkpt>
      <trkpt lat="45.31331" lon="0.43216">
        <ele>128</ele>
        <time>2015-12-05T10:32:23Z</time>
      </trkpt>
      <trkpt lat="45.3133" lon="0.43222">
        <ele>129</ele>
        <time>2015-12-05T10:32:27Z</time>
      </trkpt>
      <trkpt lat="45.3133" lon="0.43228">
        <ele>128</ele>
        <time>2015-12-05T10:32:31Z</time>
      </trkpt>
      <trkpt lat="45.31329" lon="0.43234">
        <ele>127</ele>
        <time>2015-12-05T10:32:35Z</time>
      </trkpt>
      <trkpt lat="45.31328" lon="0.43239">
        <ele>127</ele>
        <time>2015-12-05T10:32:39Z</time>
      </trkpt>
      <trkpt lat="45.31326" lon="0.43246">
        <ele>128</ele>
        <time>2015-12-05T10:32:44Z</time>
      </trkpt>
      <trkpt lat="45.31325" lon="0.43251">
        <ele>128</ele>
        <time>2015-12-05T10:32:48Z</time>
      </trkpt>
      <trkpt lat="45.31324" lon="0.4326">
        <ele>126</ele>
        <time>2015-12-05T10:32:52Z</time>
      </trkpt>
      <trkpt lat="45.31324" lon="0.43265">
        <ele>125</ele>
        <time>2015-12-05T10:32:59Z</time>
      </trkpt>
      <trkpt lat="45.31322" lon="0.43273">
        <ele>125</ele>
        <time>2015-12-05T10:33:04Z</time>
      </trkpt>
      <trkpt lat="45.31321" lon="0.43281">
        <ele>124</ele>
        <time>2015-12-05T10:33:08Z</time>
      </trkpt>
      <trkpt lat="45.3132" lon="0.43286">
        <ele>125</ele>
        <time>2015-12-05T10:33:15Z</time>
      </trkpt>
      <trkpt lat="45.31317" lon="0.43291">
        <ele>127</ele>
        <time>2015-12-05T10:33:20Z</time>
      </trkpt>
      <trkpt lat="45.31317" lon="0.43296">
        <ele>126</ele>
        <time>2015-12-05T10:33:25Z</time>
      </trkpt>
      <trkpt lat="45.31316" lon="0.43304">
        <ele>126</ele>
        <time>2015-12-05T10:33:30Z</time>
      </trkpt>
      <trkpt lat="45.31314" lon="0.43311">
        <ele>127</ele>
        <time>2015-12-05T10:33:35Z</time>
      </trkpt>
      <trkpt lat="45.31314" lon="0.43316">
        <ele>125</ele>
        <time>2015-12-05T10:33:39Z</time>
      </trkpt>
      <trkpt lat="45.31312" lon="0.43322">
        <ele>128</ele>
        <time>2015-12-05T10:33:43Z</time>
      </trkpt>
      <trkpt lat="45.31311" lon="0.43327">
        <ele>129</ele>
        <time>2015-12-05T10:33:51Z</time>
      </trkpt>
      <trkpt lat="45.31313" lon="0.43341">
        <ele>126</ele>
        <time>2015-12-05T10:33:56Z</time>
      </trkpt>
      <trkpt lat="45.31312" lon="0.43349">
        <ele>129</ele>
        <time>2015-12-05T10:34:00Z</time>
      </trkpt>
      <trkpt lat="45.31311" lon="0.43358">
        <ele>129</ele>
        <time>2015-12-05T10:34:05Z</time>
      </trkpt>
      <trkpt lat="45.31307" lon="0.43359">
        <ele>132</ele>
        <time>2015-12-05T10:34:15Z</time>
      </trkpt>
      <trkpt lat="45.31302" lon="0.43355">
        <ele>132</ele>
        <time>2015-12-05T10:34:20Z</time>
      </trkpt>
      <trkpt lat="45.31297" lon="0.43354">
        <ele>131</ele>
        <time>2015-12-05T10:34:25Z</time>
      </trkpt>
      <trkpt lat="45.31292" lon="0.43353">
        <ele>132</ele>
        <time>2015-12-05T10:34:30Z</time>
      </trkpt>
      <trkpt lat="45.31288" lon="0.43352">
        <ele>132</ele>
        <time>2015-12-05T10:34:35Z</time>
      </trkpt>
      <trkpt lat="45.31282" lon="0.43351">
        <ele>131</ele>
        <time>2015-12-05T10:34:40Z</time>
      </trkpt>
      <trkpt lat="45.31278" lon="0.43349">
        <ele>131</ele>
        <time>2015-12-05T10:34:44Z</time>
      </trkpt>
      <trkpt lat="45.31274" lon="0.43348">
        <ele>132</ele>
        <time>2015-12-05T10:34:48Z</time>
      </trkpt>
      <trkpt lat="45.3127" lon="0.43346">
        <ele>133</ele>
        <time>2015-12-05T10:34:52Z</time>
      </trkpt>
      <trkpt lat="45.31266" lon="0.43345">
        <ele>132</ele>
        <time>2015-12-05T10:34:56Z</time>
      </trkpt>
      <trkpt lat="45.31261" lon="0.43343">
        <ele>131</ele>
        <time>2015-12-05T10:35:00Z</time>
      </trkpt>
      <trkpt lat="45.31256" lon="0.43341">
        <ele>131</ele>
        <time>2015-12-05T10:35:05Z</time>
      </trkpt>
      <trkpt lat="45.31253" lon="0.43337">
        <ele>132</ele>
        <time>2015-12-05T10:35:09Z</time>
      </trkpt>
      <trkpt lat="45.3125" lon="0.43335">
        <ele>132</ele>
        <time>2015-12-05T10:35:13Z</time>
      </trkpt>
      <trkpt lat="45.31244" lon="0.4333">
        <ele>131</ele>
        <time>2015-12-05T10:35:18Z</time>
      </trkpt>
      <trkpt lat="45.3124" lon="0.43327">
        <ele>131</ele>
        <time>2015-12-05T10:35:22Z</time>
      </trkpt>
      <trkpt lat="45.31236" lon="0.43325">
        <ele>133</ele>
        <time>2015-12-05T10:35:26Z</time>
      </trkpt>
      <trkpt lat="45.3123" lon="0.4332">
        <ele>132</ele>
        <time>2015-12-05T10:35:31Z</time>
      </trkpt>
      <trkpt lat="45.31225" lon="0.43317">
        <ele>132</ele>
        <time>2015-12-05T10:35:36Z</time>
      </trkpt>
      <trkpt lat="45.31222" lon="0.43312">
        <ele>135</ele>
        <time>2015-12-05T10:35:40Z</time>
      </trkpt>
      <trkpt lat="45.31216" lon="0.43308">
        <ele>135</ele>
        <time>2015-12-05T10:35:45Z</time>
      </trkpt>
      <trkpt lat="45.3121" lon="0.43304">
        <ele>134</ele>
        <time>2015-12-05T10:35:50Z</time>
      </trkpt>
      <trkpt lat="45.31199" lon="0.433">
        <ele>130</ele>
        <time>2015-12-05T10:35:55Z</time>
      </trkpt>
      <trkpt lat="45.31195" lon="0.43297">
        <ele>130</ele>
        <time>2015-12-05T10:35:59Z</time>
      </trkpt>
      <trkpt lat="45.3119" lon="0.43293">
        <ele>129</ele>
        <time>2015-12-05T10:36:03Z</time>
      </trkpt>
      <trkpt lat="45.31183" lon="0.43289">
        <ele>128</ele>
        <time>2015-12-05T10:36:08Z</time>
      </trkpt>
      <trkpt lat="45.31178" lon="0.43285">
        <ele>129</ele>
        <time>2015-12-05T10:36:12Z</time>
      </trkpt>
      <trkpt lat="45.31173" lon="0.43281">
        <ele>130</ele>
        <time>2015-12-05T10:36:16Z</time>
      </trkpt>
      <trkpt lat="45.31169" lon="0.43277">
        <ele>130</ele>
        <time>2015-12-05T10:36:20Z</time>
      </trkpt>
      <trkpt lat="45.31163" lon="0.43274">
        <ele>128</ele>
        <time>2015-12-05T10:36:24Z</time>
      </trkpt>
      <trkpt lat="45.31157" lon="0.43271">
        <ele>126</ele>
        <time>2015-12-05T10:36:29Z</time>
      </trkpt>
      <trkpt lat="45.31151" lon="0.43267">
        <ele>126</ele>
        <time>2015-12-05T10:36:34Z</time>
      </trkpt>
      <trkpt lat="45.31146" lon="0.43264">
        <ele>126</ele>
        <time>2015-12-05T10:36:38Z</time>
      </trkpt>
      <trkpt lat="45.3114" lon="0.4326">
        <ele>126</ele>
        <time>2015-12-05T10:36:43Z</time>
      </trkpt>
      <trkpt lat="45.31137" lon="0.43257">
        <ele>127</ele>
        <time>2015-12-05T10:36:47Z</time>
      </trkpt>
      <trkpt lat="45.31132" lon="0.43252">
        <ele>127</ele>
        <time>2015-12-05T10:36:51Z</time>
      </trkpt>
      <trkpt lat="45.31126" lon="0.43248">
        <ele>127</ele>
        <time>2015-12-05T10:36:56Z</time>
      </trkpt>
      <trkpt lat="45.31122" lon="0.43245">
        <ele>127</ele>
        <time>2015-12-05T10:37:00Z</time>
      </trkpt>
      <trkpt lat="45.31117" lon="0.43243">
        <ele>127</ele>
        <time>2015-12-05T10:37:05Z</time>
      </trkpt>
      <trkpt lat="45.3111" lon="0.43239">
        <ele>126</ele>
        <time>2015-12-05T10:37:09Z</time>
      </trkpt>
      <trkpt lat="45.31104" lon="0.43237">
        <ele>125</ele>
        <time>2015-12-05T10:37:13Z</time>
      </trkpt>
      <trkpt lat="45.31098" lon="0.43235">
        <ele>125</ele>
        <time>2015-12-05T10:37:18Z</time>
      </trkpt>
      <trkpt lat="45.31093" lon="0.43231">
        <ele>125</ele>
        <time>2015-12-05T10:37:22Z</time>
      </trkpt>
      <trkpt lat="45.31088" lon="0.43231">
        <ele>125</ele>
        <time>2015-12-05T10:37:26Z</time>
      </trkpt>
      <trkpt lat="45.31081" lon="0.43228">
        <ele>124</ele>
        <time>2015-12-05T10:37:31Z</time>
      </trkpt>
      <trkpt lat="45.31076" lon="0.43226">
        <ele>124</ele>
        <time>2015-12-05T10:37:35Z</time>
      </trkpt>
      <trkpt lat="45.3107" lon="0.43223">
        <ele>123</ele>
        <time>2015-12-05T10:37:40Z</time>
      </trkpt>
      <trkpt lat="45.31066" lon="0.4322">
        <ele>123</ele>
        <time>2015-12-05T10:37:44Z</time>
      </trkpt>
      <trkpt lat="45.31059" lon="0.43217">
        <ele>123</ele>
        <time>2015-12-05T10:37:49Z</time>
      </trkpt>
      <trkpt lat="45.31055" lon="0.43215">
        <ele>124</ele>
        <time>2015-12-05T10:37:53Z</time>
      </trkpt>
      <trkpt lat="45.3105" lon="0.43214">
        <ele>124</ele>
        <time>2015-12-05T10:37:57Z</time>
      </trkpt>
      <trkpt lat="45.31046" lon="0.43211">
        <ele>125</ele>
        <time>2015-12-05T10:38:02Z</time>
      </trkpt>
      <trkpt lat="45.3104" lon="0.43209">
        <ele>125</ele>
        <time>2015-12-05T10:38:07Z</time>
      </trkpt>
      <trkpt lat="45.31034" lon="0.43206">
        <ele>125</ele>
        <time>2015-12-05T10:38:11Z</time>
      </trkpt>
      <trkpt lat="45.31028" lon="0.43202">
        <ele>126</ele>
        <time>2015-12-05T10:38:16Z</time>
      </trkpt>
      <trkpt lat="45.31022" lon="0.43198">
        <ele>125</ele>
        <time>2015-12-05T10:38:21Z</time>
      </trkpt>
      <trkpt lat="45.31016" lon="0.43195">
        <ele>124</ele>
        <time>2015-12-05T10:38:25Z</time>
      </trkpt>
      <trkpt lat="45.31009" lon="0.43193">
        <ele>124</ele>
        <time>2015-12-05T10:38:30Z</time>
      </trkpt>
      <trkpt lat="45.31004" lon="0.43191">
        <ele>124</ele>
        <time>2015-12-05T10:38:34Z</time>
      </trkpt>
      <trkpt lat="45.31" lon="0.43188">
        <ele>124</ele>
        <time>2015-12-05T10:38:38Z</time>
      </trkpt>
      <trkpt lat="45.30996" lon="0.43184">
        <ele>126</ele>
        <time>2015-12-05T10:38:42Z</time>
      </trkpt>
      <trkpt lat="45.3099" lon="0.43182">
        <ele>126</ele>
        <time>2015-12-05T10:38:47Z</time>
      </trkpt>
      <trkpt lat="45.30986" lon="0.43181">
        <ele>126</ele>
        <time>2015-12-05T10:38:51Z</time>
      </trkpt>
      <trkpt lat="45.30979" lon="0.43178">
        <ele>126</ele>
        <time>2015-12-05T10:38:56Z</time>
      </trkpt>
      <trkpt lat="45.30974" lon="0.43175">
        <ele>125</ele>
        <time>2015-12-05T10:39:00Z</time>
      </trkpt>
      <trkpt lat="45.30968" lon="0.43172">
        <ele>123</ele>
        <time>2015-12-05T10:39:05Z</time>
      </trkpt>
      <trkpt lat="45.30961" lon="0.43169">
        <ele>123</ele>
        <time>2015-12-05T10:39:10Z</time>
      </trkpt>
      <trkpt lat="45.30955" lon="0.43166">
        <ele>123</ele>
        <time>2015-12-05T10:39:14Z</time>
      </trkpt>
      <trkpt lat="45.3095" lon="0.43163">
        <ele>124</ele>
        <time>2015-12-05T10:39:18Z</time>
      </trkpt>
      <trkpt lat="45.30944" lon="0.4316">
        <ele>125</ele>
        <time>2015-12-05T10:39:23Z</time>
      </trkpt>
      <trkpt lat="45.30937" lon="0.43157">
        <ele>124</ele>
        <time>2015-12-05T10:39:27Z</time>
      </trkpt>
      <trkpt lat="45.30933" lon="0.43156">
        <ele>123</ele>
        <time>2015-12-05T10:39:34Z</time>
      </trkpt>
      <trkpt lat="45.30929" lon="0.43154">
        <ele>124</ele>
        <time>2015-12-05T10:39:38Z</time>
      </trkpt>
      <trkpt lat="45.30923" lon="0.43151">
        <ele>124</ele>
        <time>2015-12-05T10:39:43Z</time>
      </trkpt>
      <trkpt lat="45.30918" lon="0.43149">
        <ele>124</ele>
        <time>2015-12-05T10:39:47Z</time>
      </trkpt>
      <trkpt lat="45.30915" lon="0.43146">
        <ele>125</ele>
        <time>2015-12-05T10:39:51Z</time>
      </trkpt>
      <trkpt lat="45.30908" lon="0.43142">
        <ele>125</ele>
        <time>2015-12-05T10:39:56Z</time>
      </trkpt>
      <trkpt lat="45.30903" lon="0.43138">
        <ele>125</ele>
        <time>2015-12-05T10:40:00Z</time>
      </trkpt>
      <trkpt lat="45.30898" lon="0.43133">
        <ele>124</ele>
        <time>2015-12-05T10:40:05Z</time>
      </trkpt>
      <trkpt lat="45.3089" lon="0.43129">
        <ele>124</ele>
        <time>2015-12-05T10:40:10Z</time>
      </trkpt>
      <trkpt lat="45.30886" lon="0.43125">
        <ele>124</ele>
        <time>2015-12-05T10:40:14Z</time>
      </trkpt>
      <trkpt lat="45.30881" lon="0.4312">
        <ele>123</ele>
        <time>2015-12-05T10:40:19Z</time>
      </trkpt>
      <trkpt lat="45.30878" lon="0.43117">
        <ele>123</ele>
        <time>2015-12-05T10:40:23Z</time>
      </trkpt>
      <trkpt lat="45.30873" lon="0.43111">
        <ele>122</ele>
        <time>2015-12-05T10:40:28Z</time>
      </trkpt>
      <trkpt lat="45.30869" lon="0.43106">
        <ele>122</ele>
        <time>2015-12-05T10:40:32Z</time>
      </trkpt>
      <trkpt lat="45.30866" lon="0.43101">
        <ele>122</ele>
        <time>2015-12-05T10:40:36Z</time>
      </trkpt>
      <trkpt lat="45.30861" lon="0.43096">
        <ele>123</ele>
        <time>2015-12-05T10:40:40Z</time>
      </trkpt>
      <trkpt lat="45.30856" lon="0.4309">
        <ele>123</ele>
        <time>2015-12-05T10:40:45Z</time>
      </trkpt>
      <trkpt lat="45.30851" lon="0.43084">
        <ele>123</ele>
        <time>2015-12-05T10:40:49Z</time>
      </trkpt>
      <trkpt lat="45.30847" lon="0.43078">
        <ele>123</ele>
        <time>2015-12-05T10:40:54Z</time>
      </trkpt>
      <trkpt lat="45.30844" lon="0.43075">
        <ele>124</ele>
        <time>2015-12-05T10:40:58Z</time>
      </trkpt>
      <trkpt lat="45.3084" lon="0.43069">
        <ele>123</ele>
        <time>2015-12-05T10:41:03Z</time>
      </trkpt>
      <trkpt lat="45.30834" lon="0.43064">
        <ele>122</ele>
        <time>2015-12-05T10:41:07Z</time>
      </trkpt>
      <trkpt lat="45.30828" lon="0.43059">
        <ele>121</ele>
        <time>2015-12-05T10:41:11Z</time>
      </trkpt>
      <trkpt lat="45.30825" lon="0.43055">
        <ele>121</ele>
        <time>2015-12-05T10:41:15Z</time>
      </trkpt>
      <trkpt lat="45.30819" lon="0.43049">
        <ele>119</ele>
        <time>2015-12-05T10:41:20Z</time>
      </trkpt>
      <trkpt lat="45.30815" lon="0.43044">
        <ele>118</ele>
        <time>2015-12-05T10:41:24Z</time>
      </trkpt>
      <trkpt lat="45.30811" lon="0.43039">
        <ele>120</ele>
        <time>2015-12-05T10:41:28Z</time>
      </trkpt>
      <trkpt lat="45.30806" lon="0.43034">
        <ele>119</ele>
        <time>2015-12-05T10:41:32Z</time>
      </trkpt>
      <trkpt lat="45.30805" lon="0.43028">
        <ele>121</ele>
        <time>2015-12-05T10:41:38Z</time>
      </trkpt>
      <trkpt lat="45.30801" lon="0.43023">
        <ele>124</ele>
        <time>2015-12-05T10:41:43Z</time>
      </trkpt>
      <trkpt lat="45.30797" lon="0.43018">
        <ele>124</ele>
        <time>2015-12-05T10:41:47Z</time>
      </trkpt>
      <trkpt lat="45.30791" lon="0.43011">
        <ele>124</ele>
        <time>2015-12-05T10:41:52Z</time>
      </trkpt>
      <trkpt lat="45.30786" lon="0.43006">
        <ele>124</ele>
        <time>2015-12-05T10:41:56Z</time>
      </trkpt>
      <trkpt lat="45.30782" lon="0.43002">
        <ele>125</ele>
        <time>2015-12-05T10:42:00Z</time>
      </trkpt>
      <trkpt lat="45.30777" lon="0.42996">
        <ele>124</ele>
        <time>2015-12-05T10:42:05Z</time>
      </trkpt>
      <trkpt lat="45.30773" lon="0.42992">
        <ele>123</ele>
        <time>2015-12-05T10:42:09Z</time>
      </trkpt>
      <trkpt lat="45.30769" lon="0.42986">
        <ele>122</ele>
        <time>2015-12-05T10:42:14Z</time>
      </trkpt>
      <trkpt lat="45.30765" lon="0.42981">
        <ele>121</ele>
        <time>2015-12-05T10:42:18Z</time>
      </trkpt>
      <trkpt lat="45.30761" lon="0.42975">
        <ele>121</ele>
        <time>2015-12-05T10:42:23Z</time>
      </trkpt>
      <trkpt lat="45.30758" lon="0.4297">
        <ele>122</ele>
        <time>2015-12-05T10:42:27Z</time>
      </trkpt>
      <trkpt lat="45.30752" lon="0.42964">
        <ele>122</ele>
        <time>2015-12-05T10:42:32Z</time>
      </trkpt>
      <trkpt lat="45.30749" lon="0.42959">
        <ele>123</ele>
        <time>2015-12-05T10:42:36Z</time>
      </trkpt>
      <trkpt lat="45.30743" lon="0.42955">
        <ele>122</ele>
        <time>2015-12-05T10:42:41Z</time>
      </trkpt>
      <trkpt lat="45.3074" lon="0.42949">
        <ele>125</ele>
        <time>2015-12-05T10:42:46Z</time>
      </trkpt>
      <trkpt lat="45.30737" lon="0.42944">
        <ele>126</ele>
        <time>2015-12-05T10:42:50Z</time>
      </trkpt>
      <trkpt lat="45.30731" lon="0.42942">
        <ele>125</ele>
        <time>2015-12-05T10:42:55Z</time>
      </trkpt>
      <trkpt lat="45.30728" lon="0.42938">
        <ele>126</ele>
        <time>2015-12-05T10:43:00Z</time>
      </trkpt>
      <trkpt lat="45.30717" lon="0.42936">
        <ele>123</ele>
        <time>2015-12-05T10:43:05Z</time>
      </trkpt>
      <trkpt lat="45.30711" lon="0.42935">
        <ele>121</ele>
        <time>2015-12-05T10:43:10Z</time>
      </trkpt>
      <trkpt lat="45.30707" lon="0.42935">
        <ele>120</ele>
        <time>2015-12-05T10:43:16Z</time>
      </trkpt>
      <trkpt lat="45.30701" lon="0.42932">
        <ele>120</ele>
        <time>2015-12-05T10:43:20Z</time>
      </trkpt>
      <trkpt lat="45.30695" lon="0.42929">
        <ele>121</ele>
        <time>2015-12-05T10:43:24Z</time>
      </trkpt>
      <trkpt lat="45.30691" lon="0.42926">
        <ele>120</ele>
        <time>2015-12-05T10:43:28Z</time>
      </trkpt>
      <trkpt lat="45.30687" lon="0.42923">
        <ele>121</ele>
        <time>2015-12-05T10:43:35Z</time>
      </trkpt>
      <trkpt lat="45.30683" lon="0.42922">
        <ele>121</ele>
        <time>2015-12-05T10:45:00Z</time>
      </trkpt>
      <trkpt lat="45.30676" lon="0.42918">
        <ele>124</ele>
        <time>2015-12-05T10:45:05Z</time>
      </trkpt>
      <trkpt lat="45.30673" lon="0.42917">
        <ele>123</ele>
        <time>2015-12-05T10:45:15Z</time>
      </trkpt>
      <trkpt lat="45.30666" lon="0.42914">
        <ele>122</ele>
        <time>2015-12-05T10:45:20Z</time>
      </trkpt>
      <trkpt lat="45.30662" lon="0.42912">
        <ele>119</ele>
        <time>2015-12-05T10:45:25Z</time>
      </trkpt>
      <trkpt lat="45.30658" lon="0.42909">
        <ele>118</ele>
        <time>2015-12-05T10:45:29Z</time>
      </trkpt>
      <trkpt lat="45.30652" lon="0.4291">
        <ele>120</ele>
        <time>2015-12-05T10:45:33Z</time>
      </trkpt>
      <trkpt lat="45.30648" lon="0.42906">
        <ele>121</ele>
        <time>2015-12-05T10:45:38Z</time>
      </trkpt>
      <trkpt lat="45.30645" lon="0.42904">
        <ele>121</ele>
        <time>2015-12-05T10:45:43Z</time>
      </trkpt>
      <trkpt lat="45.30638" lon="0.42905">
        <ele>121</ele>
        <time>2015-12-05T10:45:48Z</time>
      </trkpt>
      <trkpt lat="45.30634" lon="0.42901">
        <ele>120</ele>
        <time>2015-12-05T10:45:52Z</time>
      </trkpt>
      <trkpt lat="45.30629" lon="0.429">
        <ele>120</ele>
        <time>2015-12-05T10:45:56Z</time>
      </trkpt>
      <trkpt lat="45.30625" lon="0.42899">
        <ele>121</ele>
        <time>2015-12-05T10:46:00Z</time>
      </trkpt>
      <trkpt lat="45.30619" lon="0.42894">
        <ele>121</ele>
        <time>2015-12-05T10:46:04Z</time>
      </trkpt>
      <trkpt lat="45.30615" lon="0.42891">
        <ele>123</ele>
        <time>2015-12-05T10:46:08Z</time>
      </trkpt>
      <trkpt lat="45.30608" lon="0.4289">
        <ele>122</ele>
        <time>2015-12-05T10:46:13Z</time>
      </trkpt>
      <trkpt lat="45.30604" lon="0.42888">
        <ele>124</ele>
        <time>2015-12-05T10:46:17Z</time>
      </trkpt>
      <trkpt lat="45.30596" lon="0.42885">
        <ele>123</ele>
        <time>2015-12-05T10:46:22Z</time>
      </trkpt>
      <trkpt lat="45.30591" lon="0.42882">
        <ele>122</ele>
        <time>2015-12-05T10:46:26Z</time>
      </trkpt>
      <trkpt lat="45.30586" lon="0.42879">
        <ele>122</ele>
        <time>2015-12-05T10:46:30Z</time>
      </trkpt>
      <trkpt lat="45.30581" lon="0.42878">
        <ele>122</ele>
        <time>2015-12-05T10:46:34Z</time>
      </trkpt>
      <trkpt lat="45.30576" lon="0.42876">
        <ele>122</ele>
        <time>2015-12-05T10:46:38Z</time>
      </trkpt>
      <trkpt lat="45.30572" lon="0.42874">
        <ele>123</ele>
        <time>2015-12-05T10:46:42Z</time>
      </trkpt>
      <trkpt lat="45.30568" lon="0.42872">
        <ele>124</ele>
        <time>2015-12-05T10:46:46Z</time>
      </trkpt>
      <trkpt lat="45.30561" lon="0.42869">
        <ele>124</ele>
        <time>2015-12-05T10:46:51Z</time>
      </trkpt>
      <trkpt lat="45.30553" lon="0.42867">
        <ele>123</ele>
        <time>2015-12-05T10:46:56Z</time>
      </trkpt>
      <trkpt lat="45.30549" lon="0.42863">
        <ele>123</ele>
        <time>2015-12-05T10:47:00Z</time>
      </trkpt>
      <trkpt lat="45.30545" lon="0.4286">
        <ele>124</ele>
        <time>2015-12-05T10:47:04Z</time>
      </trkpt>
      <trkpt lat="45.30541" lon="0.42857">
        <ele>124</ele>
        <time>2015-12-05T10:47:09Z</time>
      </trkpt>
      <trkpt lat="45.30536" lon="0.42854">
        <ele>124</ele>
        <time>2015-12-05T10:47:14Z</time>
      </trkpt>
      <trkpt lat="45.30531" lon="0.42851">
        <ele>125</ele>
        <time>2015-12-05T10:47:18Z</time>
      </trkpt>
      <trkpt lat="45.30527" lon="0.42848">
        <ele>126</ele>
        <time>2015-12-05T10:47:23Z</time>
      </trkpt>
      <trkpt lat="45.30523" lon="0.42845">
        <ele>127</ele>
        <time>2015-12-05T10:47:27Z</time>
      </trkpt>
      <trkpt lat="45.3052" lon="0.42841">
        <ele>127</ele>
        <time>2015-12-05T10:47:32Z</time>
      </trkpt>
      <trkpt lat="45.30516" lon="0.42838">
        <ele>126</ele>
        <time>2015-12-05T10:47:37Z</time>
      </trkpt>
      <trkpt lat="45.3051" lon="0.42834">
        <ele>123</ele>
        <time>2015-12-05T10:47:41Z</time>
      </trkpt>
      <trkpt lat="45.30508" lon="0.4283">
        <ele>123</ele>
        <time>2015-12-05T10:47:45Z</time>
      </trkpt>
      <trkpt lat="45.30504" lon="0.42826">
        <ele>124</ele>
        <time>2015-12-05T10:47:49Z</time>
      </trkpt>
      <trkpt lat="45.30501" lon="0.4282">
        <ele>124</ele>
        <time>2015-12-05T10:47:54Z</time>
      </trkpt>
      <trkpt lat="45.30497" lon="0.42813">
        <ele>125</ele>
        <time>2015-12-05T10:47:59Z</time>
      </trkpt>
      <trkpt lat="45.30493" lon="0.42808">
        <ele>126</ele>
        <time>2015-12-05T10:48:03Z</time>
      </trkpt>
      <trkpt lat="45.3049" lon="0.42803">
        <ele>127</ele>
        <time>2015-12-05T10:48:07Z</time>
      </trkpt>
      <trkpt lat="45.30487" lon="0.42797">
        <ele>128</ele>
        <time>2015-12-05T10:48:11Z</time>
      </trkpt>
      <trkpt lat="45.30484" lon="0.42792">
        <ele>129</ele>
        <time>2015-12-05T10:48:15Z</time>
      </trkpt>
      <trkpt lat="45.30481" lon="0.42785">
        <ele>129</ele>
        <time>2015-12-05T10:48:20Z</time>
      </trkpt>
      <trkpt lat="45.30477" lon="0.42783">
        <ele>128</ele>
        <time>2015-12-05T10:48:24Z</time>
      </trkpt>
      <trkpt lat="45.30474" lon="0.42779">
        <ele>128</ele>
        <time>2015-12-05T10:48:28Z</time>
      </trkpt>
      <trkpt lat="45.3047" lon="0.4277">
        <ele>130</ele>
        <time>2015-12-05T10:48:33Z</time>
      </trkpt>
      <trkpt lat="45.30466" lon="0.42762">
        <ele>129</ele>
        <time>2015-12-05T10:48:38Z</time>
      </trkpt>
      <trkpt lat="45.30464" lon="0.42756">
        <ele>129</ele>
        <time>2015-12-05T10:48:42Z</time>
      </trkpt>
      <trkpt lat="45.30461" lon="0.42749">
        <ele>128</ele>
        <time>2015-12-05T10:48:46Z</time>
      </trkpt>
      <trkpt lat="45.30457" lon="0.42743">
        <ele>128</ele>
        <time>2015-12-05T10:48:50Z</time>
      </trkpt>
      <trkpt lat="45.30453" lon="0.42739">
        <ele>128</ele>
        <time>2015-12-05T10:48:54Z</time>
      </trkpt>
      <trkpt lat="45.30444" lon="0.42733">
        <ele>125</ele>
        <time>2015-12-05T10:48:59Z</time>
      </trkpt>
      <trkpt lat="45.30438" lon="0.42727">
        <ele>123</ele>
        <time>2015-12-05T10:49:04Z</time>
      </trkpt>
      <trkpt lat="45.30433" lon="0.42723">
        <ele>122</ele>
        <time>2015-12-05T10:49:08Z</time>
      </trkpt>
      <trkpt lat="45.30425" lon="0.42718">
        <ele>121</ele>
        <time>2015-12-05T10:49:13Z</time>
      </trkpt>
      <trkpt lat="45.30419" lon="0.42715">
        <ele>120</ele>
        <time>2015-12-05T10:49:17Z</time>
      </trkpt>
      <trkpt lat="45.30415" lon="0.42709">
        <ele>120</ele>
        <time>2015-12-05T10:49:22Z</time>
      </trkpt>
      <trkpt lat="45.30412" lon="0.42707">
        <ele>120</ele>
        <time>2015-12-05T10:49:26Z</time>
      </trkpt>
      <trkpt lat="45.30407" lon="0.42703">
        <ele>121</ele>
        <time>2015-12-05T10:49:30Z</time>
      </trkpt>
      <trkpt lat="45.30401" lon="0.42698">
        <ele>122</ele>
        <time>2015-12-05T10:49:35Z</time>
      </trkpt>
      <trkpt lat="45.30393" lon="0.42696">
        <ele>118</ele>
        <time>2015-12-05T10:49:40Z</time>
      </trkpt>
      <trkpt lat="45.30389" lon="0.42693">
        <ele>118</ele>
        <time>2015-12-05T10:49:44Z</time>
      </trkpt>
      <trkpt lat="45.30384" lon="0.4269">
        <ele>117</ele>
        <time>2015-12-05T10:49:48Z</time>
      </trkpt>
      <trkpt lat="45.30377" lon="0.42686">
        <ele>117</ele>
        <time>2015-12-05T10:49:53Z</time>
      </trkpt>
      <trkpt lat="45.30371" lon="0.42682">
        <ele>117</ele>
        <time>2015-12-05T10:49:57Z</time>
      </trkpt>
      <trkpt lat="45.30366" lon="0.42678">
        <ele>116</ele>
        <time>2015-12-05T10:50:02Z</time>
      </trkpt>
      <trkpt lat="45.30361" lon="0.42674">
        <ele>116</ele>
        <time>2015-12-05T10:50:06Z</time>
      </trkpt>
      <trkpt lat="45.30356" lon="0.4267">
        <ele>115</ele>
        <time>2015-12-05T10:50:11Z</time>
      </trkpt>
      <trkpt lat="45.30352" lon="0.42665">
        <ele>114</ele>
        <time>2015-12-05T10:50:15Z</time>
      </trkpt>
      <trkpt lat="45.30349" lon="0.42659">
        <ele>116</ele>
        <time>2015-12-05T10:50:19Z</time>
      </trkpt>
      <trkpt lat="45.30348" lon="0.42653">
        <ele>116</ele>
        <time>2015-12-05T10:50:23Z</time>
      </trkpt>
      <trkpt lat="45.30347" lon="0.42647">
        <ele>116</ele>
        <time>2015-12-05T10:50:27Z</time>
      </trkpt>
      <trkpt lat="45.30346" lon="0.42641">
        <ele>117</ele>
        <time>2015-12-05T10:50:31Z</time>
      </trkpt>
      <trkpt lat="45.30344" lon="0.42634">
        <ele>117</ele>
        <time>2015-12-05T10:50:35Z</time>
      </trkpt>
      <trkpt lat="45.30343" lon="0.42628">
        <ele>118</ele>
        <time>2015-12-05T10:50:39Z</time>
      </trkpt>
      <trkpt lat="45.30342" lon="0.42621">
        <ele>119</ele>
        <time>2015-12-05T10:50:43Z</time>
      </trkpt>
      <trkpt lat="45.3034" lon="0.42612">
        <ele>119</ele>
        <time>2015-12-05T10:50:48Z</time>
      </trkpt>
      <trkpt lat="45.30338" lon="0.42606">
        <ele>119</ele>
        <time>2015-12-05T10:50:52Z</time>
      </trkpt>
      <trkpt lat="45.30335" lon="0.426">
        <ele>119</ele>
        <time>2015-12-05T10:50:56Z</time>
      </trkpt>
      <trkpt lat="45.30332" lon="0.42592">
        <ele>119</ele>
        <time>2015-12-05T10:51:01Z</time>
      </trkpt>
      <trkpt lat="45.30329" lon="0.42587">
        <ele>119</ele>
        <time>2015-12-05T10:51:05Z</time>
      </trkpt>
      <trkpt lat="45.30326" lon="0.42581">
        <ele>119</ele>
        <time>2015-12-05T10:51:09Z</time>
      </trkpt>
      <trkpt lat="45.30319" lon="0.42575">
        <ele>117</ele>
        <time>2015-12-05T10:51:14Z</time>
      </trkpt>
      <trkpt lat="45.30315" lon="0.42569">
        <ele>116</ele>
        <time>2015-12-05T10:51:18Z</time>
      </trkpt>
      <trkpt lat="45.3031" lon="0.42564">
        <ele>116</ele>
        <time>2015-12-05T10:51:22Z</time>
      </trkpt>
      <trkpt lat="45.30305" lon="0.42559">
        <ele>116</ele>
        <time>2015-12-05T10:51:26Z</time>
      </trkpt>
      <trkpt lat="45.30302" lon="0.42554">
        <ele>116</ele>
        <time>2015-12-05T10:51:30Z</time>
      </trkpt>
      <trkpt lat="45.30297" lon="0.42549">
        <ele>116</ele>
        <time>2015-12-05T10:51:34Z</time>
      </trkpt>
      <trkpt lat="45.30293" lon="0.42543">
        <ele>116</ele>
        <time>2015-12-05T10:51:38Z</time>
      </trkpt>
      <trkpt lat="45.30288" lon="0.42537">
        <ele>116</ele>
        <time>2015-12-05T10:51:43Z</time>
      </trkpt>
      <trkpt lat="45.30284" lon="0.4253">
        <ele>114</ele>
        <time>2015-12-05T10:51:48Z</time>
      </trkpt>
      <trkpt lat="45.30281" lon="0.42524">
        <ele>114</ele>
        <time>2015-12-05T10:51:52Z</time>
      </trkpt>
      <trkpt lat="45.30279" lon="0.42519">
        <ele>115</ele>
        <time>2015-12-05T10:51:56Z</time>
      </trkpt>
      <trkpt lat="45.30278" lon="0.42512">
        <ele>114</ele>
        <time>2015-12-05T10:52:00Z</time>
      </trkpt>
      <trkpt lat="45.30276" lon="0.42506">
        <ele>114</ele>
        <time>2015-12-05T10:52:04Z</time>
      </trkpt>
      <trkpt lat="45.30276" lon="0.42499">
        <ele>114</ele>
        <time>2015-12-05T10:52:08Z</time>
      </trkpt>
      <trkpt lat="45.30275" lon="0.42493">
        <ele>114</ele>
        <time>2015-12-05T10:52:12Z</time>
      </trkpt>
      <trkpt lat="45.30276" lon="0.42486">
        <ele>114</ele>
        <time>2015-12-05T10:52:17Z</time>
      </trkpt>
      <trkpt lat="45.30278" lon="0.42478">
        <ele>116</ele>
        <time>2015-12-05T10:52:21Z</time>
      </trkpt>
      <trkpt lat="45.30279" lon="0.42471">
        <ele>116</ele>
        <time>2015-12-05T10:52:25Z</time>
      </trkpt>
      <trkpt lat="45.3028" lon="0.42463">
        <ele>117</ele>
        <time>2015-12-05T10:52:29Z</time>
      </trkpt>
      <trkpt lat="45.3028" lon="0.42457">
        <ele>117</ele>
        <time>2015-12-05T10:52:34Z</time>
      </trkpt>
      <trkpt lat="45.30279" lon="0.42451">
        <ele>117</ele>
        <time>2015-12-05T10:52:39Z</time>
      </trkpt>
      <trkpt lat="45.30282" lon="0.4244">
        <ele>118</ele>
        <time>2015-12-05T10:52:44Z</time>
      </trkpt>
      <trkpt lat="45.30285" lon="0.42432">
        <ele>119</ele>
        <time>2015-12-05T10:52:48Z</time>
      </trkpt>
      <trkpt lat="45.30285" lon="0.42425">
        <ele>120</ele>
        <time>2015-12-05T10:52:52Z</time>
      </trkpt>
      <trkpt lat="45.30284" lon="0.42418">
        <ele>122</ele>
        <time>2015-12-05T10:52:57Z</time>
      </trkpt>
      <trkpt lat="45.30285" lon="0.4241">
        <ele>122</ele>
        <time>2015-12-05T10:53:01Z</time>
      </trkpt>
      <trkpt lat="45.30288" lon="0.424">
        <ele>123</ele>
        <time>2015-12-05T10:53:05Z</time>
      </trkpt>
      <trkpt lat="45.30286" lon="0.42389">
        <ele>123</ele>
        <time>2015-12-05T10:53:10Z</time>
      </trkpt>
      <trkpt lat="45.30283" lon="0.42378">
        <ele>121</ele>
        <time>2015-12-05T10:53:15Z</time>
      </trkpt>
      <trkpt lat="45.30275" lon="0.42373">
        <ele>116</ele>
        <time>2015-12-05T10:53:19Z</time>
      </trkpt>
      <trkpt lat="45.30275" lon="0.42366">
        <ele>117</ele>
        <time>2015-12-05T10:53:24Z</time>
      </trkpt>
      <trkpt lat="45.30274" lon="0.4236">
        <ele>117</ele>
        <time>2015-12-05T10:53:28Z</time>
      </trkpt>
      <trkpt lat="45.30267" lon="0.42355">
        <ele>114</ele>
        <time>2015-12-05T10:53:32Z</time>
      </trkpt>
      <trkpt lat="45.30265" lon="0.4235">
        <ele>112</ele>
        <time>2015-12-05T10:53:39Z</time>
      </trkpt>
      <trkpt lat="45.30262" lon="0.42342">
        <ele>113</ele>
        <time>2015-12-05T10:53:44Z</time>
      </trkpt>
      <trkpt lat="45.3026" lon="0.42337">
        <ele>114</ele>
        <time>2015-12-05T10:53:49Z</time>
      </trkpt>
      <trkpt lat="45.30257" lon="0.42332">
        <ele>113</ele>
        <time>2015-12-05T10:53:53Z</time>
      </trkpt>
      <trkpt lat="45.30257" lon="0.42326">
        <ele>117</ele>
        <time>2015-12-05T10:53:57Z</time>
      </trkpt>
      <trkpt lat="45.30255" lon="0.42317">
        <ele>117</ele>
        <time>2015-12-05T10:54:02Z</time>
      </trkpt>
      <trkpt lat="45.30251" lon="0.42314">
        <ele>121</ele>
        <time>2015-12-05T10:54:07Z</time>
      </trkpt>
      <trkpt lat="45.30248" lon="0.42307">
        <ele>119</ele>
        <time>2015-12-05T10:54:11Z</time>
      </trkpt>
      <trkpt lat="45.30244" lon="0.42301">
        <ele>120</ele>
        <time>2015-12-05T10:54:16Z</time>
      </trkpt>
      <trkpt lat="45.30244" lon="0.42293">
        <ele>121</ele>
        <time>2015-12-05T10:54:20Z</time>
      </trkpt>
      <trkpt lat="45.30243" lon="0.42287">
        <ele>124</ele>
        <time>2015-12-05T10:54:25Z</time>
      </trkpt>
      <trkpt lat="45.30239" lon="0.4228">
        <ele>123</ele>
        <time>2015-12-05T10:54:30Z</time>
      </trkpt>
      <trkpt lat="45.30235" lon="0.42276">
        <ele>123</ele>
        <time>2015-12-05T10:54:34Z</time>
      </trkpt>
      <trkpt lat="45.30232" lon="0.42269">
        <ele>123</ele>
        <time>2015-12-05T10:54:38Z</time>
      </trkpt>
      <trkpt lat="45.30229" lon="0.42264">
        <ele>123</ele>
        <time>2015-12-05T10:54:43Z</time>
      </trkpt>
      <trkpt lat="45.30224" lon="0.4226">
        <ele>122</ele>
        <time>2015-12-05T10:54:48Z</time>
      </trkpt>
      <trkpt lat="45.30223" lon="0.42251">
        <ele>124</ele>
        <time>2015-12-05T10:54:52Z</time>
      </trkpt>
      <trkpt lat="45.30221" lon="0.4224">
        <ele>125</ele>
        <time>2015-12-05T10:54:57Z</time>
      </trkpt>
      <trkpt lat="45.30218" lon="0.42233">
        <ele>123</ele>
        <time>2015-12-05T10:55:02Z</time>
      </trkpt>
      <trkpt lat="45.30213" lon="0.42225">
        <ele>120</ele>
        <time>2015-12-05T10:55:06Z</time>
      </trkpt>
      <trkpt lat="45.30212" lon="0.42219">
        <ele>124</ele>
        <time>2015-12-05T10:55:11Z</time>
      </trkpt>
      <trkpt lat="45.30212" lon="0.42213">
        <ele>126</ele>
        <time>2015-12-05T10:55:15Z</time>
      </trkpt>
      <trkpt lat="45.30206" lon="0.42206">
        <ele>123</ele>
        <time>2015-12-05T10:55:20Z</time>
      </trkpt>
      <trkpt lat="45.30201" lon="0.42205">
        <ele>123</ele>
        <time>2015-12-05T10:55:24Z</time>
      </trkpt>
      <trkpt lat="45.30203" lon="0.42194">
        <ele>123</ele>
        <time>2015-12-05T10:55:28Z</time>
      </trkpt>
      <trkpt lat="45.30201" lon="0.42183">
        <ele>124</ele>
        <time>2015-12-05T10:55:32Z</time>
      </trkpt>
      <trkpt lat="45.302" lon="0.42177">
        <ele>124</ele>
        <time>2015-12-05T10:55:36Z</time>
      </trkpt>
      <trkpt lat="45.30195" lon="0.42168">
        <ele>122</ele>
        <time>2015-12-05T10:55:41Z</time>
      </trkpt>
      <trkpt lat="45.30192" lon="0.42162">
        <ele>122</ele>
        <time>2015-12-05T10:55:45Z</time>
      </trkpt>
      <trkpt lat="45.30189" lon="0.42154">
        <ele>121</ele>
        <time>2015-12-05T10:55:50Z</time>
      </trkpt>
      <trkpt lat="45.30186" lon="0.4215">
        <ele>122</ele>
        <time>2015-12-05T10:55:54Z</time>
      </trkpt>
      <trkpt lat="45.30179" lon="0.4214">
        <ele>118</ele>
        <time>2015-12-05T10:55:59Z</time>
      </trkpt>
      <trkpt lat="45.30176" lon="0.42134">
        <ele>118</ele>
        <time>2015-12-05T10:56:03Z</time>
      </trkpt>
      <trkpt lat="45.3017" lon="0.42126">
        <ele>113</ele>
        <time>2015-12-05T10:56:08Z</time>
      </trkpt>
      <trkpt lat="45.30167" lon="0.4212">
        <ele>113</ele>
        <time>2015-12-05T10:56:12Z</time>
      </trkpt>
      <trkpt lat="45.30164" lon="0.42116">
        <ele>113</ele>
        <time>2015-12-05T10:56:17Z</time>
      </trkpt>
      <trkpt lat="45.3016" lon="0.42111">
        <ele>114</ele>
        <time>2015-12-05T10:56:22Z</time>
      </trkpt>
      <trkpt lat="45.30158" lon="0.421">
        <ele>113</ele>
        <time>2015-12-05T10:56:26Z</time>
      </trkpt>
      <trkpt lat="45.30153" lon="0.42094">
        <ele>110</ele>
        <time>2015-12-05T10:56:30Z</time>
      </trkpt>
      <trkpt lat="45.30149" lon="0.42086">
        <ele>111</ele>
        <time>2015-12-05T10:56:35Z</time>
      </trkpt>
      <trkpt lat="45.3015" lon="0.42078">
        <ele>114</ele>
        <time>2015-12-05T10:56:39Z</time>
      </trkpt>
      <trkpt lat="45.30148" lon="0.42073">
        <ele>114</ele>
        <time>2015-12-05T10:56:44Z</time>
      </trkpt>
      <trkpt lat="45.30147" lon="0.42065">
        <ele>113</ele>
        <time>2015-12-05T10:56:49Z</time>
      </trkpt>
      <trkpt lat="45.30144" lon="0.4206">
        <ele>112</ele>
        <time>2015-12-05T10:56:53Z</time>
      </trkpt>
      <trkpt lat="45.3014" lon="0.42055">
        <ele>110</ele>
        <time>2015-12-05T10:56:58Z</time>
      </trkpt>
      <trkpt lat="45.30139" lon="0.42048">
        <ele>111</ele>
        <time>2015-12-05T10:57:02Z</time>
      </trkpt>
      <trkpt lat="45.30135" lon="0.42044">
        <ele>111</ele>
        <time>2015-12-05T10:57:06Z</time>
      </trkpt>
      <trkpt lat="45.3013" lon="0.42034">
        <ele>109</ele>
        <time>2015-12-05T10:57:11Z</time>
      </trkpt>
      <trkpt lat="45.30129" lon="0.42028">
        <ele>115</ele>
        <time>2015-12-05T10:57:17Z</time>
      </trkpt>
      <trkpt lat="45.30127" lon="0.42019">
        <ele>116</ele>
        <time>2015-12-05T10:57:22Z</time>
      </trkpt>
      <trkpt lat="45.30126" lon="0.42013">
        <ele>115</ele>
        <time>2015-12-05T10:57:27Z</time>
      </trkpt>
      <trkpt lat="45.30121" lon="0.42008">
        <ele>115</ele>
        <time>2015-12-05T10:57:32Z</time>
      </trkpt>
      <trkpt lat="45.30118" lon="0.42001">
        <ele>113</ele>
        <time>2015-12-05T10:57:36Z</time>
      </trkpt>
      <trkpt lat="45.30117" lon="0.41992">
        <ele>114</ele>
        <time>2015-12-05T10:57:41Z</time>
      </trkpt>
      <trkpt lat="45.30115" lon="0.41987">
        <ele>115</ele>
        <time>2015-12-05T10:57:45Z</time>
      </trkpt>
      <trkpt lat="45.30112" lon="0.41981">
        <ele>115</ele>
        <time>2015-12-05T10:57:49Z</time>
      </trkpt>
      <trkpt lat="45.30109" lon="0.41972">
        <ele>113</ele>
        <time>2015-12-05T10:57:54Z</time>
      </trkpt>
      <trkpt lat="45.30103" lon="0.41964">
        <ele>113</ele>
        <time>2015-12-05T10:57:59Z</time>
      </trkpt>
      <trkpt lat="45.30099" lon="0.41959">
        <ele>115</ele>
        <time>2015-12-05T10:58:04Z</time>
      </trkpt>
      <trkpt lat="45.30097" lon="0.41953">
        <ele>116</ele>
        <time>2015-12-05T10:58:08Z</time>
      </trkpt>
      <trkpt lat="45.30094" lon="0.41948">
        <ele>117</ele>
        <time>2015-12-05T10:58:13Z</time>
      </trkpt>
      <trkpt lat="45.30088" lon="0.41942">
        <ele>117</ele>
        <time>2015-12-05T10:58:18Z</time>
      </trkpt>
      <trkpt lat="45.30085" lon="0.41938">
        <ele>116</ele>
        <time>2015-12-05T10:58:22Z</time>
      </trkpt>
      <trkpt lat="45.30085" lon="0.41932">
        <ele>121</ele>
        <time>2015-12-05T10:58:29Z</time>
      </trkpt>
      <trkpt lat="45.30082" lon="0.41927">
        <ele>124</ele>
        <time>2015-12-05T10:58:34Z</time>
      </trkpt>
      <trkpt lat="45.30063" lon="0.4192">
        <ele>110</ele>
        <time>2015-12-05T10:58:39Z</time>
      </trkpt>
      <trkpt lat="45.30058" lon="0.41915">
        <ele>111</ele>
        <time>2015-12-05T10:58:44Z</time>
      </trkpt>
      <trkpt lat="45.30052" lon="0.4191">
        <ele>109</ele>
        <time>2015-12-05T10:58:48Z</time>
      </trkpt>
      <trkpt lat="45.30049" lon="0.41907">
        <ele>110</ele>
        <time>2015-12-05T10:58:52Z</time>
      </trkpt>
      <trkpt lat="45.30044" lon="0.41902">
        <ele>111</ele>
        <time>2015-12-05T10:58:57Z</time>
      </trkpt>
      <trkpt lat="45.30039" lon="0.41899">
        <ele>111</ele>
        <time>2015-12-05T10:59:01Z</time>
      </trkpt>
      <trkpt lat="45.30037" lon="0.41894">
        <ele>112</ele>
        <time>2015-12-05T10:59:06Z</time>
      </trkpt>
      <trkpt lat="45.30033" lon="0.41891">
        <ele>113</ele>
        <time>2015-12-05T10:59:10Z</time>
      </trkpt>
      <trkpt lat="45.30025" lon="0.41889">
        <ele>111</ele>
        <time>2015-12-05T10:59:15Z</time>
      </trkpt>
      <trkpt lat="45.30021" lon="0.41885">
        <ele>111</ele>
        <time>2015-12-05T10:59:20Z</time>
      </trkpt>
      <trkpt lat="45.30016" lon="0.41881">
        <ele>111</ele>
        <time>2015-12-05T10:59:25Z</time>
      </trkpt>
      <trkpt lat="45.30013" lon="0.41875">
        <ele>111</ele>
        <time>2015-12-05T10:59:29Z</time>
      </trkpt>
      <trkpt lat="45.30009" lon="0.41868">
        <ele>111</ele>
        <time>2015-12-05T10:59:34Z</time>
      </trkpt>
      <trkpt lat="45.30006" lon="0.4186">
        <ele>110</ele>
        <time>2015-12-05T10:59:39Z</time>
      </trkpt>
      <trkpt lat="45.30001" lon="0.41853">
        <ele>110</ele>
        <time>2015-12-05T10:59:44Z</time>
      </trkpt>
      <trkpt lat="45.3" lon="0.41847">
        <ele>110</ele>
        <time>2015-12-05T10:59:48Z</time>
      </trkpt>
      <trkpt lat="45.29998" lon="0.41838">
        <ele>109</ele>
        <time>2015-12-05T10:59:53Z</time>
      </trkpt>
      <trkpt lat="45.29995" lon="0.41832">
        <ele>110</ele>
        <time>2015-12-05T10:59:57Z</time>
      </trkpt>
      <trkpt lat="45.29991" lon="0.41825">
        <ele>109</ele>
        <time>2015-12-05T11:00:02Z</time>
      </trkpt>
      <trkpt lat="45.29986" lon="0.41818">
        <ele>108</ele>
        <time>2015-12-05T11:00:07Z</time>
      </trkpt>
      <trkpt lat="45.29984" lon="0.41809">
        <ele>108</ele>
        <time>2015-12-05T11:00:12Z</time>
      </trkpt>
      <trkpt lat="45.29982" lon="0.41805">
        <ele>108</ele>
        <time>2015-12-05T11:00:16Z</time>
      </trkpt>
      <trkpt lat="45.29974" lon="0.41801">
        <ele>106</ele>
        <time>2015-12-05T11:00:21Z</time>
      </trkpt>
      <trkpt lat="45.2997" lon="0.41795">
        <ele>105</ele>
        <time>2015-12-05T11:00:25Z</time>
      </trkpt>
      <trkpt lat="45.29966" lon="0.41789">
        <ele>105</ele>
        <time>2015-12-05T11:00:30Z</time>
      </trkpt>
      <trkpt lat="45.29964" lon="0.41783">
        <ele>104</ele>
        <time>2015-12-05T11:00:34Z</time>
      </trkpt>
      <trkpt lat="45.29961" lon="0.41776">
        <ele>103</ele>
        <time>2015-12-05T11:00:39Z</time>
      </trkpt>
      <trkpt lat="45.29958" lon="0.41771">
        <ele>103</ele>
        <time>2015-12-05T11:00:43Z</time>
      </trkpt>
      <trkpt lat="45.29955" lon="0.41765">
        <ele>104</ele>
        <time>2015-12-05T11:00:47Z</time>
      </trkpt>
      <trkpt lat="45.29953" lon="0.41761">
        <ele>103</ele>
        <time>2015-12-05T11:00:52Z</time>
      </trkpt>
      <trkpt lat="45.29952" lon="0.41755">
        <ele>103</ele>
        <time>2015-12-05T11:00:56Z</time>
      </trkpt>
      <trkpt lat="45.29951" lon="0.41749">
        <ele>103</ele>
        <time>2015-12-05T11:01:00Z</time>
      </trkpt>
      <trkpt lat="45.29949" lon="0.41743">
        <ele>103</ele>
        <time>2015-12-05T11:01:05Z</time>
      </trkpt>
      <trkpt lat="45.29944" lon="0.41738">
        <ele>103</ele>
        <time>2015-12-05T11:01:09Z</time>
      </trkpt>
      <trkpt lat="45.29946" lon="0.41733">
        <ele>103</ele>
        <time>2015-12-05T11:01:14Z</time>
      </trkpt>
      <trkpt lat="45.2995" lon="0.41727">
        <ele>103</ele>
        <time>2015-12-05T11:01:18Z</time>
      </trkpt>
      <trkpt lat="45.29953" lon="0.41722">
        <ele>103</ele>
        <time>2015-12-05T11:01:25Z</time>
      </trkpt>
      <trkpt lat="45.29957" lon="0.41716">
        <ele>103</ele>
        <time>2015-12-05T11:01:29Z</time>
      </trkpt>
      <trkpt lat="45.29963" lon="0.41711">
        <ele>101</ele>
        <time>2015-12-05T11:01:33Z</time>
      </trkpt>
      <trkpt lat="45.29967" lon="0.41704">
        <ele>101</ele>
        <time>2015-12-05T11:01:37Z</time>
      </trkpt>
      <trkpt lat="45.2997" lon="0.41697">
        <ele>98</ele>
        <time>2015-12-05T11:01:41Z</time>
      </trkpt>
      <trkpt lat="45.29973" lon="0.41694">
        <ele>99</ele>
        <time>2015-12-05T11:01:46Z</time>
      </trkpt>
      <trkpt lat="45.29978" lon="0.41688">
        <ele>99</ele>
        <time>2015-12-05T11:01:51Z</time>
      </trkpt>
      <trkpt lat="45.29982" lon="0.41684">
        <ele>99</ele>
        <time>2015-12-05T11:01:56Z</time>
      </trkpt>
      <trkpt lat="45.29985" lon="0.4168">
        <ele>100</ele>
        <time>2015-12-05T11:02:02Z</time>
      </trkpt>
      <trkpt lat="45.2999" lon="0.41673">
        <ele>100</ele>
        <time>2015-12-05T11:02:06Z</time>
      </trkpt>
      <trkpt lat="45.29994" lon="0.41668">
        <ele>101</ele>
        <time>2015-12-05T11:02:10Z</time>
      </trkpt>
      <trkpt lat="45.29998" lon="0.41662">
        <ele>102</ele>
        <time>2015-12-05T11:02:14Z</time>
      </trkpt>
      <trkpt lat="45.30003" lon="0.41656">
        <ele>103</ele>
        <time>2015-12-05T11:02:19Z</time>
      </trkpt>
      <trkpt lat="45.30007" lon="0.41651">
        <ele>103</ele>
        <time>2015-12-05T11:02:23Z</time>
      </trkpt>
      <trkpt lat="45.3001" lon="0.41647">
        <ele>105</ele>
        <time>2015-12-05T11:02:28Z</time>
      </trkpt>
      <trkpt lat="45.30015" lon="0.41639">
        <ele>104</ele>
        <time>2015-12-05T11:02:33Z</time>
      </trkpt>
      <trkpt lat="45.3002" lon="0.41633">
        <ele>105</ele>
        <time>2015-12-05T11:02:38Z</time>
      </trkpt>
      <trkpt lat="45.30022" lon="0.41626">
        <ele>105</ele>
        <time>2015-12-05T11:02:42Z</time>
      </trkpt>
      <trkpt lat="45.30023" lon="0.41618">
        <ele>106</ele>
        <time>2015-12-05T11:02:47Z</time>
      </trkpt>
      <trkpt lat="45.30021" lon="0.41613">
        <ele>107</ele>
        <time>2015-12-05T11:02:51Z</time>
      </trkpt>
      <trkpt lat="45.30016" lon="0.41608">
        <ele>107</ele>
        <time>2015-12-05T11:02:56Z</time>
      </trkpt>
      <trkpt lat="45.30013" lon="0.41604">
        <ele>106</ele>
        <time>2015-12-05T11:03:00Z</time>
      </trkpt>
      <trkpt lat="45.30009" lon="0.416">
        <ele>107</ele>
        <time>2015-12-05T11:03:05Z</time>
      </trkpt>
      <trkpt lat="45.30004" lon="0.41596">
        <ele>106</ele>
        <time>2015-12-05T11:03:10Z</time>
      </trkpt>
      <trkpt lat="45.30001" lon="0.41592">
        <ele>105</ele>
        <time>2015-12-05T11:03:14Z</time>
      </trkpt>
      <trkpt lat="45.29998" lon="0.41589">
        <ele>106</ele>
        <time>2015-12-05T11:03:18Z</time>
      </trkpt>
      <trkpt lat="45.29995" lon="0.41585">
        <ele>107</ele>
        <time>2015-12-05T11:03:23Z</time>
      </trkpt>
      <trkpt lat="45.29991" lon="0.41582">
        <ele>106</ele>
        <time>2015-12-05T11:03:28Z</time>
      </trkpt>
      <trkpt lat="45.29988" lon="0.41578">
        <ele>107</ele>
        <time>2015-12-05T11:03:33Z</time>
      </trkpt>
      <trkpt lat="45.29984" lon="0.41577">
        <ele>104</ele>
        <time>2015-12-05T11:03:37Z</time>
      </trkpt>
      <trkpt lat="45.29979" lon="0.41571">
        <ele>104</ele>
        <time>2015-12-05T11:03:42Z</time>
      </trkpt>
      <trkpt lat="45.29974" lon="0.41565">
        <ele>104</ele>
        <time>2015-12-05T11:03:47Z</time>
      </trkpt>
      <trkpt lat="45.2997" lon="0.4156">
        <ele>104</ele>
        <time>2015-12-05T11:03:51Z</time>
      </trkpt>
      <trkpt lat="45.29966" lon="0.41555">
        <ele>105</ele>
        <time>2015-12-05T11:03:55Z</time>
      </trkpt>
      <trkpt lat="45.29962" lon="0.41551">
        <ele>105</ele>
        <time>2015-12-05T11:03:59Z</time>
      </trkpt>
      <trkpt lat="45.29957" lon="0.41548">
        <ele>104</ele>
        <time>2015-12-05T11:04:03Z</time>
      </trkpt>
      <trkpt lat="45.29953" lon="0.41545">
        <ele>104</ele>
        <time>2015-12-05T11:04:07Z</time>
      </trkpt>
      <trkpt lat="45.29948" lon="0.41542">
        <ele>104</ele>
        <time>2015-12-05T11:04:11Z</time>
      </trkpt>
      <trkpt lat="45.29944" lon="0.4154">
        <ele>104</ele>
        <time>2015-12-05T11:04:15Z</time>
      </trkpt>
      <trkpt lat="45.29939" lon="0.41535">
        <ele>105</ele>
        <time>2015-12-05T11:04:20Z</time>
      </trkpt>
      <trkpt lat="45.29934" lon="0.41532">
        <ele>107</ele>
        <time>2015-12-05T11:04:24Z</time>
      </trkpt>
      <trkpt lat="45.2993" lon="0.41528">
        <ele>107</ele>
        <time>2015-12-05T11:04:28Z</time>
      </trkpt>
      <trkpt lat="45.29925" lon="0.41523">
        <ele>108</ele>
        <time>2015-12-05T11:04:33Z</time>
      </trkpt>
      <trkpt lat="45.29921" lon="0.41519">
        <ele>108</ele>
        <time>2015-12-05T11:04:37Z</time>
      </trkpt>
      <trkpt lat="45.29916" lon="0.41512">
        <ele>108</ele>
        <time>2015-12-05T11:04:42Z</time>
      </trkpt>
      <trkpt lat="45.2991" lon="0.41507">
        <ele>107</ele>
        <time>2015-12-05T11:04:47Z</time>
      </trkpt>
      <trkpt lat="45.29908" lon="0.41503">
        <ele>110</ele>
        <time>2015-12-05T11:04:51Z</time>
      </trkpt>
      <trkpt lat="45.29905" lon="0.41497">
        <ele>111</ele>
        <time>2015-12-05T11:04:55Z</time>
      </trkpt>
      <trkpt lat="45.29899" lon="0.41489">
        <ele>110</ele>
        <time>2015-12-05T11:05:00Z</time>
      </trkpt>
      <trkpt lat="45.29897" lon="0.41482">
        <ele>110</ele>
        <time>2015-12-05T11:05:04Z</time>
      </trkpt>
      <trkpt lat="45.29894" lon="0.41472">
        <ele>109</ele>
        <time>2015-12-05T11:05:09Z</time>
      </trkpt>
      <trkpt lat="45.29891" lon="0.41464">
        <ele>107</ele>
        <time>2015-12-05T11:05:13Z</time>
      </trkpt>
      <trkpt lat="45.29889" lon="0.41456">
        <ele>108</ele>
        <time>2015-12-05T11:05:18Z</time>
      </trkpt>
      <trkpt lat="45.29888" lon="0.4145">
        <ele>107</ele>
        <time>2015-12-05T11:05:25Z</time>
      </trkpt>
      <trkpt lat="45.29886" lon="0.41445">
        <ele>103</ele>
        <time>2015-12-05T11:05:30Z</time>
      </trkpt>
      <trkpt lat="45.29881" lon="0.41442">
        <ele>105</ele>
        <time>2015-12-05T11:05:35Z</time>
      </trkpt>
      <trkpt lat="45.29884" lon="0.41439">
        <ele>104</ele>
        <time>2015-12-05T11:06:09Z</time>
      </trkpt>
      <trkpt lat="45.29888" lon="0.41437">
        <ele>104</ele>
        <time>2015-12-05T11:06:14Z</time>
      </trkpt>
      <trkpt lat="45.29892" lon="0.41436">
        <ele>102</ele>
        <time>2015-12-05T11:06:30Z</time>
      </trkpt>
      <trkpt lat="45.29892" lon="0.41435">
        <ele>102</ele>
        <time>2015-12-05T11:06:31Z</time>
      </trkpt>
      <trkpt lat="45.29892" lon="0.41435">
        <ele>102</ele>
        <time>2015-12-05T11:06:32Z</time>
      </trkpt>
    </trkseg>
  </trk>
</gpx>